[[{"header":{"parameterUnit":"m.s-1","parameterCategory":1,"la1":30.6,"la2":29.2853,"lo1":-89.7004,"lo2":-87.6739,"dy":0.0162,"dx":0.0183,"nx":112,"ny":82,"refTime":"2026-02-23T12:00:00:Z","depth":0,"parameterNumber":2,"parameterNumberName":"U-component_of_WINDS"},"data":[0.0,0.0,0.0,0.0,0.0,0.0,0.0,0.0,0.0,0.0,0.0,0.0,0.0,0.0,0.0,0.0,0.0,0.0,0.0,0.0,0.0,0.0,0.0,0.0,0.0,0.0,0.0,0.0,0.0,0.0,0.0,0.0,0.0,0.0,0.0,0.0,0.0,0.0,0.0,0.0,0.0,0.0,0.0,0.0,0.0,0.0,0.0,0.0,0.0,0.0,0.0,0.0,0.0,0.0,0.0,0.0,0.0,0.0,0.0,0.0,0.0,0.0,0.0,0.0,0.0,0.0,0.0,0.0,0.0,0.0,0.0,0.0,0.0,0.0,0.0,0.0,0.0,0.0,0.0,0.0,0.0,0.0,0.0,0.0,0.0,0.0,0.0,0.0,0.0,0.0,-3.8063,-4.0516,-4.5963,-4.9419,-4.9329,-4.9673,-4.7249,-4.0935,0.0,0.0,0.0,0.0,0.0,0.0,0.0,0.0,0.0,0.0,0.0,0.0,0.0,0.0,0.0,0.0,0.0,0.0,0.0,0.0,0.0,0.0,0.0,0.0,0.0,0.0,0.0,0.0,0.0,0.0,0.0,0.0,0.0,0.0,0.0,0.0,0.0,0.0,0.0,0.0,0.0,0.0,0.0,0.0,0.0,0.0,0.0,0.0,0.0,0.0,0.0,0.0,0.0,0.0,0.0,0.0,0.0,0.0,0.0,0.0,0.0,0.0,0.0,0.0,0.0,0.0,0.0,0.0,0.0,0.0,0.0,0.0,0.0,0.0,0.0,0.0,0.0,0.0,0.0,0.0,0.0,0.0,0.0,0.0,0.0,0.0,0.0,0.0,0.0,0.0,0.0,0.0,0.0,0.0,0.0,0.0,0.0,0.0,0.0,0.0,0.0,0.0,0.0,0.0,-3.8661,-4.6142,-4.8835,-4.9883,-4.9359,-4.8835,-4.6471,-4.1534,0.0,0.0,0.0,0.0,0.0,0.0,0.0,0.0,0.0,0.0,0.0,0.0,0.0,0.0,0.0,0.0,0.0,0.0,0.0,0.0,0.0,0.0,0.0,0.0,0.0,0.0,0.0,0.0,0.0,0.0,0.0,0.0,0.0,0.0,0.0,0.0,0.0,0.0,0.0,0.0,0.0,0.0,0.0,0.0,0.0,0.0,0.0,0.0,0.0,0.0,0.0,0.0,0.0,0.0,0.0,0.0,0.0,0.0,0.0,0.0,0.0,0.0,0.0,0.0,0.0,0.0,0.0,0.0,0.0,0.0,0.0,0.0,0.0,0.0,0.0,0.0,0.0,0.0,0.0,0.0,0.0,0.0,0.0,0.0,0.0,0.0,0.0,0.0,0.0,0.0,0.0,0.0,0.0,0.0,0.0,0.0,0.0,0.0,0.0,0.0,0.0,0.0,0.0,-3.7255,-4.0905,-4.8057,-4.9344,-4.9583,-4.9329,-4.87,-4.6322,-4.1683,-3.917,0.0,0.0,0.0,0.0,0.0,0.0,0.0,0.0,0.0,0.0,0.0,0.0,0.0,0.0,0.0,0.0,0.0,0.0,0.0,0.0,0.0,0.0,0.0,0.0,0.0,0.0,0.0,0.0,0.0,0.0,0.0,0.0,0.0,0.0,0.0,0.0,0.0,0.0,0.0,0.0,0.0,0.0,0.0,0.0,0.0,0.0,0.0,0.0,0.0,0.0,0.0,0.0,0.0,0.0,0.0,0.0,0.0,0.0,0.0,0.0,0.0,0.0,0.0,0.0,0.0,0.0,0.0,0.0,0.0,0.0,0.0,0.0,0.0,0.0,0.0,0.0,0.0,0.0,0.0,0.0,0.0,0.0,0.0,0.0,0.0,0.0,0.0,0.0,0.0,0.0,0.0,0.0,0.0,0.0,0.0,0.0,0.0,0.0,0.0,0.0,0.0,0.0,-4.1085,-4.3479,-4.855,-4.9209,-4.9239,-4.909,-4.7997,-4.5633,-4.1624,-3.8302,0.0,0.0,0.0,0.0,0.0,0.0,0.0,0.0,0.0,0.0,0.0,0.0,0.0,0.0,0.0,0.0,0.0,0.0,0.0,0.0,0.0,0.0,0.0,0.0,0.0,0.0,0.0,0.0,0.0,0.0,0.0,0.0,0.0,0.0,0.0,0.0,0.0,0.0,0.0,0.0,0.0,0.0,0.0,0.0,0.0,0.0,0.0,0.0,0.0,0.0,0.0,0.0,0.0,0.0,0.0,0.0,0.0,0.0,0.0,0.0,0.0,0.0,0.0,0.0,0.0,0.0,0.0,0.0,0.0,0.0,0.0,0.0,0.0,0.0,0.0,0.0,0.0,0.0,0.0,0.0,0.0,0.0,0.0,0.0,0.0,0.0,0.0,0.0,0.0,0.0,0.0,0.0,0.0,0.0,0.0,0.0,0.0,0.0,0.0,0.0,0.0,0.0,-4.1953,-4.5813,-4.8117,-4.894,-4.906,-4.8416,-4.6052,-4.3658,-4.1504,-3.6596,0.0,0.0,0.0,0.0,0.0,0.0,0.0,0.0,0.0,0.0,0.0,0.0,0.0,0.0,0.0,0.0,0.0,0.0,0.0,0.0,0.0,0.0,0.0,0.0,0.0,0.0,0.0,0.0,0.0,0.0,0.0,0.0,0.0,0.0,0.0,0.0,0.0,0.0,0.0,0.0,0.0,0.0,0.0,0.0,0.0,0.0,0.0,0.0,0.0,0.0,0.0,0.0,0.0,0.0,0.0,0.0,0.0,0.0,0.0,0.0,0.0,0.0,0.0,0.0,0.0,0.0,0.0,0.0,0.0,0.0,0.0,0.0,0.0,0.0,0.0,0.0,0.0,0.0,0.0,0.0,0.0,0.0,0.0,0.0,0.0,0.0,0.0,0.0,0.0,0.0,0.0,0.0,0.0,0.0,0.0,0.0,0.0,0.0,0.0,0.0,0.0,0.0,-4.0965,-4.4747,-4.7938,-4.8506,-4.8566,-4.8297,-4.6621,-4.4197,-4.0965,0.0,0.0,0.0,0.0,0.0,0.0,0.0,0.0,0.0,0.0,0.0,0.0,0.0,0.0,0.0,0.0,0.0,0.0,0.0,0.0,0.0,0.0,0.0,0.0,0.0,0.0,0.0,0.0,0.0,0.0,0.0,0.0,0.0,0.0,0.0,0.0,0.0,0.0,0.0,0.0,0.0,0.0,0.0,0.0,0.0,0.0,0.0,0.0,0.0,0.0,0.0,0.0,0.0,0.0,0.0,0.0,0.0,0.0,0.0,0.0,0.0,0.0,0.0,0.0,0.0,0.0,0.0,0.0,0.0,0.0,0.0,0.0,0.0,0.0,0.0,0.0,0.0,0.0,0.0,0.0,0.0,0.0,0.0,0.0,0.0,0.0,0.0,0.0,0.0,0.0,0.0,0.0,0.0,0.0,0.0,0.0,0.0,0.0,0.0,0.0,0.0,0.0,-3.6836,-4.0846,-4.4687,-4.8251,-4.864,-4.8775,-4.9194,-4.7249,-4.4496,-4.0935,0.0,0.0,0.0,0.0,0.0,0.0,0.0,0.0,0.0,0.0,0.0,0.0,0.0,0.0,0.0,0.0,0.0,0.0,0.0,0.0,0.0,0.0,0.0,0.0,0.0,0.0,0.0,0.0,0.0,0.0,0.0,0.0,0.0,0.0,0.0,0.0,0.0,0.0,0.0,0.0,0.0,0.0,0.0,0.0,0.0,0.0,0.0,0.0,0.0,0.0,0.0,0.0,0.0,0.0,0.0,0.0,0.0,0.0,0.0,0.0,0.0,0.0,0.0,0.0,0.0,0.0,0.0,0.0,0.0,0.0,0.0,0.0,0.0,0.0,0.0,0.0,0.0,0.0,0.0,0.0,0.0,0.0,0.0,0.0,0.0,0.0,0.0,0.0,0.0,0.0,0.0,0.0,0.0,0.0,0.0,0.0,0.0,0.0,0.0,0.0,0.0,0.0,-3.7105,-4.2073,-4.6352,-4.906,-4.9329,-4.9823,-5.1109,-4.7608,-4.4197,0.0,0.0,0.0,0.0,0.0,0.0,0.0,0.0,0.0,0.0,0.0,0.0,0.0,0.0,0.0,0.0,0.0,0.0,0.0,0.0,0.0,0.0,0.0,0.0,0.0,0.0,0.0,0.0,0.0,0.0,0.0,0.0,0.0,0.0,0.0,0.0,0.0,0.0,0.0,0.0,0.0,0.0,0.0,0.0,0.0,0.0,0.0,0.0,0.0,0.0,0.0,0.0,0.0,0.0,0.0,0.0,0.0,0.0,0.0,0.0,0.0,0.0,0.0,0.0,0.0,0.0,0.0,0.0,0.0,0.0,0.0,0.0,0.0,0.0,0.0,0.0,0.0,0.0,0.0,0.0,0.0,0.0,0.0,0.0,0.0,0.0,0.0,0.0,0.0,0.0,0.0,0.0,0.0,0.0,0.0,0.0,0.0,0.0,0.0,0.0,0.0,0.0,0.0,-3.905,-4.4137,-4.8237,-5.0421,-5.0631,-5.081,-5.1199,-4.8865,-4.5484,-4.0965,0.0,0.0,0.0,0.0,0.0,0.0,0.0,0.0,0.0,0.0,0.0,0.0,0.0,0.0,0.0,0.0,0.0,0.0,0.0,0.0,0.0,0.0,0.0,0.0,0.0,0.0,0.0,0.0,0.0,0.0,0.0,0.0,0.0,0.0,0.0,0.0,0.0,0.0,0.0,0.0,0.0,0.0,0.0,0.0,0.0,0.0,0.0,0.0,0.0,0.0,0.0,0.0,0.0,0.0,0.0,0.0,0.0,0.0,0.0,0.0,0.0,0.0,0.0,0.0,0.0,0.0,0.0,0.0,0.0,0.0,0.0,0.0,0.0,0.0,0.0,0.0,0.0,0.0,0.0,0.0,0.0,0.0,0.0,0.0,0.0,0.0,0.0,0.0,0.0,0.0,0.0,0.0,0.0,0.0,0.0,0.0,0.0,0.0,0.0,0.0,0.0,0.0,-3.9888,-4.5005,-4.9254,-5.1738,-5.2007,-5.2217,-5.2755,-5.075,-4.7189,-4.1893,0.0,0.0,0.0,0.0,0.0,0.0,0.0,0.0,0.0,0.0,0.0,0.0,0.0,0.0,0.0,0.0,0.0,0.0,0.0,0.0,0.0,0.0,0.0,0.0,0.0,0.0,0.0,0.0,0.0,0.0,0.0,0.0,0.0,0.0,0.0,0.0,0.0,0.0,0.0,0.0,0.0,0.0,0.0,0.0,0.0,0.0,0.0,0.0,0.0,0.0,0.0,0.0,0.0,0.0,0.0,0.0,0.0,0.0,0.0,0.0,0.0,0.0,0.0,0.0,0.0,0.0,0.0,0.0,0.0,0.0,0.0,0.0,0.0,0.0,0.0,0.0,0.0,0.0,0.0,0.0,0.0,0.0,0.0,0.0,0.0,0.0,0.0,0.0,0.0,0.0,0.0,0.0,0.0,0.0,0.0,0.0,0.0,0.0,0.0,0.0,0.0,0.0,-4.0157,-4.5274,-4.9793,-5.3025,-5.3384,-5.3862,-5.5089,-5.2815,-4.9075,-4.3798,0.0,0.0,0.0,0.0,0.0,0.0,0.0,0.0,0.0,0.0,0.0,0.0,0.0,0.0,0.0,0.0,0.0,0.0,0.0,0.0,0.0,0.0,0.0,0.0,0.0,0.0,0.0,0.0,0.0,0.0,0.0,0.0,0.0,0.0,0.0,0.0,0.0,0.0,0.0,0.0,0.0,0.0,0.0,0.0,0.0,0.0,0.0,0.0,0.0,0.0,0.0,0.0,0.0,0.0,0.0,0.0,0.0,0.0,0.0,0.0,-3.6877,-3.4698,0.0,0.0,0.0,0.0,0.0,0.0,0.0,0.0,0.0,0.0,0.0,0.0,0.0,0.0,0.0,0.0,0.0,0.0,0.0,0.0,0.0,0.0,0.0,0.0,0.0,0.0,0.0,0.0,0.0,0.0,0.0,0.0,0.0,0.0,0.0,0.0,0.0,0.0,0.0,0.0,-4.2034,-4.7339,-5.1678,-5.4461,-5.476,-5.488,-5.5179,-5.3234,-4.9942,-4.5185,-3.9918,0.0,0.0,0.0,0.0,0.0,0.0,0.0,0.0,0.0,0.0,0.0,0.0,0.0,0.0,0.0,0.0,0.0,0.0,0.0,0.0,0.0,0.0,0.0,0.0,0.0,0.0,0.0,0.0,0.0,0.0,0.0,0.0,0.0,0.0,0.0,0.0,0.0,0.0,0.0,0.0,0.0,0.0,0.0,0.0,0.0,0.0,0.0,0.0,0.0,0.0,0.0,0.0,0.0,0.0,0.0,0.0,0.0,0.0,0.0,-4.1331,-3.9254,0.0,0.0,0.0,0.0,0.0,0.0,0.0,0.0,0.0,0.0,0.0,0.0,0.0,0.0,0.0,0.0,0.0,0.0,0.0,0.0,0.0,0.0,0.0,0.0,0.0,0.0,0.0,0.0,0.0,0.0,0.0,0.0,0.0,0.0,0.0,0.0,0.0,0.0,0.0,0.0,-4.309,-4.8147,-5.2247,-5.491,-5.5179,-5.5179,-5.5179,-5.3354,-5.0631,-4.695,-4.2073,0.0,0.0,0.0,0.0,0.0,0.0,0.0,0.0,0.0,0.0,0.0,0.0,0.0,0.0,0.0,0.0,0.0,0.0,0.0,0.0,0.0,0.0,0.0,0.0,0.0,0.0,0.0,0.0,0.0,0.0,0.0,0.0,0.0,0.0,0.0,0.0,0.0,0.0,0.0,0.0,0.0,0.0,0.0,0.0,0.0,0.0,0.0,0.0,0.0,0.0,0.0,0.0,0.0,-4.5743,-4.6887,-4.7865,-4.8635,-4.9378,-4.9879,-4.7123,-4.5514,-4.4617,-4.191,0.0,0.0,0.0,0.0,0.0,0.0,0.0,0.0,0.0,0.0,0.0,0.0,0.0,0.0,0.0,0.0,0.0,0.0,0.0,0.0,0.0,0.0,-4.2521,-4.3509,-4.4975,-4.4496,-3.8397,0.0,0.0,0.0,0.0,0.0,0.0,0.0,0.0,0.0,0.0,0.0,-4.3599,-4.8356,-5.2157,-5.4581,-5.485,-5.488,-5.4999,-5.3384,-5.1349,-4.8955,-4.4676,-4.0636,0.0,0.0,0.0,0.0,0.0,0.0,0.0,0.0,0.0,0.0,0.0,0.0,0.0,0.0,0.0,0.0,0.0,0.0,0.0,0.0,0.0,0.0,0.0,0.0,0.0,0.0,0.0,0.0,0.0,0.0,0.0,0.0,-3.0193,-3.1002,0.0,0.0,0.0,0.0,0.0,0.0,0.0,0.0,0.0,0.0,0.0,0.0,0.0,-4.1835,-4.4385,-4.7328,-4.8981,-4.9363,-5.2957,-5.4425,-5.4081,-5.523,-5.6185,-5.6752,-5.6347,0.0,-4.6855,-4.6432,0.0,0.0,0.0,0.0,0.0,0.0,0.0,0.0,0.0,0.0,0.0,0.0,0.0,0.0,0.0,0.0,0.0,0.0,0.0,0.0,0.0,0.0,-4.9703,-4.9239,-4.9359,-4.9164,-4.7682,-4.2043,-3.6567,-3.4204,-3.1898,-2.9684,0.0,0.0,0.0,0.0,0.0,0.0,-4.3778,-4.8356,-5.1798,-5.3294,-5.3443,-5.3683,-5.4281,-5.3563,-5.2426,-5.093,-4.7578,-4.4676,-4.2432,-3.7614,0.0,0.0,0.0,0.0,0.0,0.0,0.0,0.0,0.0,0.0,0.0,0.0,0.0,0.0,0.0,0.0,0.0,0.0,0.0,0.0,0.0,0.0,0.0,0.0,0.0,0.0,0.0,0.0,0.0,-2.9894,-3.2706,-3.2647,-3.3873,-3.3814,0.0,0.0,0.0,0.0,0.0,0.0,0.0,0.0,0.0,-4.4315,-4.5351,-4.7071,-4.9716,-5.1903,-5.3385,-5.4103,-5.6601,-5.7856,-5.8017,-5.8908,-5.9487,-5.9776,-5.9824,-5.7765,-5.423,-5.1247,-4.8383,-4.5627,0.0,0.0,0.0,0.0,-4.2575,-4.3142,-4.5267,-4.6035,-4.6013,-4.5789,0.0,0.0,0.0,0.0,0.0,0.0,0.0,-4.274,-4.5933,-4.8985,-5.1618,-5.3204,-5.3294,-5.2935,-5.2665,-4.8686,-4.3928,-3.9745,-3.8008,-3.5729,-3.112,-3.0999,0.0,0.0,0.0,-4.1085,-4.5424,-4.8716,-5.1319,-5.2995,-5.3174,-5.3294,-5.3593,-5.3025,-5.2217,-5.1289,-4.9194,-4.7249,-4.5663,-4.1923,-3.8601,0.0,0.0,0.0,0.0,0.0,0.0,0.0,0.0,0.0,0.0,0.0,0.0,0.0,0.0,0.0,0.0,0.0,0.0,0.0,0.0,0.0,0.0,0.0,0.0,0.0,0.0,0.0,0.0,-3.2766,-3.5192,-3.4352,-3.6477,-3.6806,0.0,0.0,0.0,0.0,0.0,0.0,-4.3029,-4.4351,-4.6528,-4.97,-5.0627,-5.2229,-5.4708,-5.5878,-5.7,-5.8132,-5.9309,-6.0119,-6.0615,-6.1287,-6.1638,-6.1638,-6.1638,-6.1256,-6.0229,-5.5619,-5.2545,-5.0547,-4.8219,-4.7108,-4.6892,-4.7544,-4.7938,-4.846,-5.1265,-5.2132,-5.1858,-5.105,-4.9793,-4.7758,-4.3439,0.0,0.0,0.0,0.0,-4.5424,-5.0062,-5.1858,-5.3144,-5.5777,-5.6047,-5.5628,-5.5478,-5.3623,-5.0421,-4.5196,-4.3758,-4.1594,-3.5998,-3.5699,0.0,-3.651,-3.9439,-4.309,-4.704,-4.9284,-5.105,-5.2516,-5.2665,-5.2755,-5.2905,-5.2486,-5.1917,-5.1259,-5.0301,-4.9164,-4.7848,-4.5424,-4.2701,-3.9709,0.0,0.0,0.0,0.0,0.0,0.0,0.0,0.0,0.0,0.0,0.0,0.0,0.0,0.0,0.0,0.0,0.0,0.0,0.0,0.0,0.0,0.0,0.0,0.0,0.0,0.0,0.0,0.0,0.0,-3.6477,-3.9745,0.0,0.0,0.0,0.0,-4.0935,-4.2851,-4.5112,-4.7804,-4.9155,-5.1111,-5.3815,-5.5171,-5.6811,-5.8776,-5.9525,-6.0211,-6.0904,-6.1607,-6.1959,-6.2048,-6.2667,-6.3019,-6.3019,-6.3019,-6.26,-6.1789,-5.8952,-5.6653,-5.4779,-5.3361,-5.1995,-5.0948,-5.1628,-5.2328,-5.3066,-5.4531,-5.456,-5.4461,-5.6855,-5.5059,-5.1678,-5.0106,-4.7459,0.0,0.0,-4.8835,-5.0435,-5.3294,-5.497,-5.6107,-5.6885,-5.7034,-5.6825,-5.6256,-5.5029,-5.3054,-4.9629,-4.7399,-4.5214,-4.241,0.0,-4.1272,-4.1901,-4.3718,-4.5813,-4.7967,-4.9942,-5.1199,-5.1319,-5.1319,-5.1558,-5.2187,-5.2217,-5.1917,-5.1259,-5.1169,-5.0541,-4.9269,-4.7249,-4.5143,-4.308,-3.8571,0.0,0.0,0.0,0.0,0.0,0.0,0.0,0.0,0.0,0.0,0.0,0.0,0.0,0.0,0.0,0.0,0.0,0.0,0.0,0.0,0.0,0.0,0.0,0.0,0.0,0.0,0.0,0.0,-4.0314,-4.3818,0.0,-4.2432,-4.318,-4.4586,-4.6364,-4.7878,-4.99,-5.2611,-5.358,-5.5061,-5.7308,-5.7807,-5.8842,-6.039,-6.1058,-6.1535,-6.1785,-6.246,-6.2754,-6.2754,-6.3019,-6.2867,-6.2475,-6.2475,-6.2058,-6.1343,-6.0403,-5.9343,-5.8224,-5.6878,-5.6045,-5.563,-5.5388,-5.6043,-5.7064,-5.7543,-5.8112,-5.859,-5.8231,-5.6017,-5.3324,-5.2426,-5.102,-4.9972,-5.1109,-5.1768,-5.2725,-5.5388,-5.6107,-5.6436,-5.7513,-5.7423,-5.6915,-5.6316,-5.5478,-5.4221,-5.2187,-5.0182,-4.7834,-4.4766,-4.4766,-4.4825,-4.3778,-4.5304,-4.7309,-4.9284,-5.0106,-5.0704,-5.1169,-5.1229,-5.1319,-5.1558,-5.1558,-5.1468,-5.1229,-5.0794,-5.0315,-4.9912,-4.8416,-4.6651,-4.4646,-4.1324,-3.6926,0.0,0.0,0.0,0.0,0.0,0.0,0.0,0.0,0.0,0.0,0.0,0.0,0.0,0.0,0.0,0.0,0.0,0.0,0.0,0.0,0.0,0.0,0.0,0.0,0.0,-3.911,-4.294,-4.3629,-4.7189,-4.8895,-4.713,-4.7967,-4.9374,-5.1186,-5.2282,-5.3868,-5.6073,-5.6819,-5.7872,-5.9408,-5.9874,-6.0555,-6.1404,-6.2078,-6.246,-6.246,-6.2901,-6.2957,-6.2772,-6.2774,-6.2415,-6.1751,-6.1755,-6.1519,-6.1134,-6.1111,-6.0853,-6.0327,-5.921,-5.8614,-5.8411,-5.8196,-5.8662,-5.9428,-5.9428,-6.0027,-6.0505,-5.8949,-5.6974,-5.5089,-5.464,-5.3892,-5.3354,-5.4012,-5.4192,-5.464,-5.6585,-5.6795,-5.6705,-5.7573,-5.7423,-5.6915,-5.6316,-5.5837,-5.5119,-5.3803,-5.2097,-5.0062,-4.7429,-4.7698,-4.7758,-4.6232,-4.7309,-4.8775,-5.0016,-5.0375,-5.0704,-5.1169,-5.1229,-5.1139,-5.0853,-5.069,-5.0451,-5.0242,-4.9613,-4.9209,-4.9209,-4.7758,-4.6232,-4.4676,-4.1175,-3.7345,-3.3155,0.0,0.0,0.0,0.0,0.0,0.0,0.0,0.0,0.0,0.0,0.0,0.0,0.0,0.0,0.0,0.0,0.0,0.0,0.0,0.0,0.0,0.0,0.0,-3.7464,-4.2102,-4.5693,-4.6441,-4.9972,-5.1828,-5.0524,-5.2187,-5.3862,-5.5179,-5.5882,-5.6817,-5.8083,-5.8777,-5.9469,-6.0108,-6.141,-6.2078,-6.2078,-6.2694,-6.3047,-6.3047,-6.3077,-6.2712,-6.2066,-6.2078,-6.1747,-6.1112,-6.107,-6.1074,-6.1074,-6.1074,-6.1044,-6.0954,-6.0331,-5.9675,-5.9219,-5.9817,-6.0057,-6.0086,-6.0116,-6.0116,-5.9967,-5.9338,-5.8231,-5.7154,-5.7154,-5.6256,-5.5388,-5.6017,-5.6218,-5.6286,-5.6915,-5.7064,-5.7034,-5.7064,-5.7064,-5.6885,-5.6286,-5.6188,-5.5748,-5.4431,-5.3114,-5.1798,-5.0435,-5.0196,-5.0032,-4.9449,-4.9853,0.0,-5.0226,-5.0794,-5.1199,-5.1199,-5.1199,-5.093,-5.0255,-4.9643,-4.903,-4.8356,-4.7668,-4.7309,-4.7309,-4.5424,-4.4077,-4.3449,-3.8302,-3.528,-3.4593,0.0,0.0,0.0,0.0,0.0,0.0,0.0,0.0,0.0,0.0,0.0,0.0,0.0,0.0,0.0,0.0,0.0,0.0,0.0,0.0,0.0,-3.7888,-4.0853,-4.1003,-4.5196,-4.8955,-5.105,-5.3533,-5.5119,-5.5209,-5.5688,-5.6398,-5.7258,-5.7461,-5.8166,-5.9446,-5.969,-6.0138,-6.0803,-6.1166,-6.1374,-6.1374,-6.1571,-6.1654,-6.1654,-6.1631,-6.1545,-6.1408,-6.1383,-6.1271,-6.107,-6.0565,-6.0356,-6.0326,-5.9847,-5.9668,-5.9668,-5.9986,-5.9962,-5.9787,-5.9488,-5.9668,-6.0146,-6.0655,-6.0505,-6.0057,-5.9877,-5.9249,-5.856,-5.856,-5.7633,-5.6615,-5.6795,-5.6166,-5.5598,-5.6256,-5.6077,-5.5837,-5.6316,-5.6436,-5.6256,-5.5598,-5.5448,-5.5059,-5.3743,-5.2785,-5.1947,-5.1079,-5.0495,-5.0136,-5.0002,-5.0076,-5.0375,-5.0853,-5.1109,-5.0973,-5.0524,-5.0465,-5.0375,-5.0196,-4.9643,-4.9239,-4.906,-4.7938,-4.7309,-4.7309,-4.6322,-4.5454,-4.4796,-4.0546,-3.7764,0.0,0.0,0.0,0.0,0.0,0.0,0.0,0.0,0.0,0.0,0.0,0.0,0.0,0.0,0.0,0.0,0.0,0.0,0.0,0.0,0.0,0.0,-4.1594,-4.4866,-4.5903,-4.8865,-5.1845,-5.4211,-5.5957,-5.7244,-5.7872,-5.7932,-5.8082,-5.8464,-5.8494,-5.8847,-5.9615,-5.9917,-6.0271,-6.0673,-6.0921,-6.1111,-6.1111,-6.1091,-6.1068,-6.111,-6.1112,-6.0946,-6.0671,-6.0671,-6.0526,-6.0236,-5.9847,-5.9668,-5.9638,-5.9249,-5.9099,-5.9129,0.0,0.0,0.0,0.0,-5.9338,-5.9727,-6.0146,-6.0027,-5.9668,-5.9668,-5.9219,-5.868,-5.868,-5.7932,-5.7094,-5.7094,-5.6555,-5.6017,-5.6137,-5.5897,-5.5628,-5.5748,-5.5748,-5.5658,-5.5269,-5.5179,-5.488,-5.3803,-5.3294,0.0,-5.1798,-5.1079,-5.0495,-5.0226,-5.0435,-5.0644,-5.0734,-5.105,-5.1079,-5.0644,-5.0614,-5.0495,-5.0226,-4.9374,0.0,0.0,0.0,-4.6082,-4.5274,-4.5125,0.0,0.0,0.0,0.0,0.0,0.0,0.0,0.0,-3.6926,-3.6537,0.0,0.0,0.0,0.0,0.0,0.0,0.0,0.0,0.0,0.0,0.0,0.0,0.0,0.0,0.0,0.0,-4.5214,-4.8656,-5.1289,-5.2785,-5.4281,-5.6128,-5.7363,-5.8381,-5.9039,-5.9099,-5.9099,-5.8985,-5.9069,-5.9099,-5.9099,-5.9747,0.0,0.0,0.0,-6.0971,-6.0856,-6.0856,-6.0844,-6.0846,-6.0846,-6.0551,-5.9967,-5.9967,-5.9697,-5.9219,-5.9129,-5.9129,-5.9219,-5.9129,-5.9099,-5.9099,-5.9099,-5.9099,-5.9099,-5.9099,-5.9099,-5.9099,-5.9099,0.0,0.0,-5.9099,-5.871,-5.8231,-5.8231,-5.7752,-5.7214,-5.7214,-5.7154,-5.6974,-5.6406,-5.6286,-5.6107,-5.5448,-5.5299,-5.5269,-5.5209,-5.5179,-5.4999,-5.4341,-5.4221,-5.3803,-5.2546,-5.1768,-5.1109,-5.0405,-5.0794,-5.102,-5.0375,-5.0823,-5.1199,-5.1109,-5.1109,0.0,-5.0255,-4.9105,-4.8356,-4.8297,-4.6471,-4.4646,-4.3039,-4.3479,-4.3269,-4.2231,-4.324,-4.4037,-4.4646,-4.5801,-4.6172,-4.5514,-4.0187,-3.9625,0.0,0.0,0.0,0.0,0.0,0.0,0.0,0.0,0.0,0.0,0.0,0.0,0.0,0.0,0.0,-4.4676,-4.8237,-5.1379,-5.4042,-5.5538,-5.6466,-5.6885,-5.7633,-5.8381,-5.9039,-5.9099,-5.8871,-5.8327,-5.8811,-5.9099,-5.9099,-5.9722,-6.0106,-6.0106,-6.0205,-6.0018,-5.9501,-5.9501,-5.9477,-5.9483,-5.9483,0.0,-5.9279,-5.9279,-5.9518,-5.9877,-5.9338,-5.9398,-5.9847,-5.9308,-5.9099,-5.9099,-5.9099,-5.9099,-5.9099,-5.9099,-5.9099,-5.9099,-5.9099,-5.9099,-5.9099,-5.9099,-5.9009,-5.8919,-5.8919,-5.8441,0.0,-5.7932,-5.7513,-5.7064,-5.6944,-5.6915,-5.6765,-5.6137,-5.5987,-5.5837,-5.5299,-5.5179,-5.4999,-5.4341,-5.4221,-5.3952,-5.3144,-5.2456,-5.1798,-5.1139,-5.1139,-5.1169,-5.1003,-5.1139,-5.102,-5.0435,-5.0375,-5.0315,-5.0196,-4.9523,-4.891,-4.8327,-4.692,-4.6202,-4.6352,-4.6471,-4.6651,-4.695,-4.6681,-4.6591,-4.6741,-4.698,-4.7309,-4.7668,-4.5992,-4.5633,0.0,0.0,0.0,0.0,0.0,0.0,0.0,0.0,0.0,0.0,0.0,-3.54,-3.8392,0.0,-4.4436,-4.7714,-5.0481,-5.2905,-5.491,-5.6286,-5.7214,-5.7573,-5.7932,-5.8238,-5.8554,-5.8327,-5.81,-5.81,-5.8414,-5.8746,-5.9069,-5.9387,-5.9615,-5.9615,-5.9615,-5.9471,-5.9099,-5.9099,-5.9099,-5.9099,-5.9099,-5.9099,-5.9099,-5.9099,-5.9279,-5.9578,-5.9249,-5.9279,-5.9578,-5.9249,-5.9099,-5.9099,-5.9099,-5.9099,-5.9099,-5.9099,-5.9099,-5.9099,-5.9099,-5.9099,-5.9099,-5.9099,-5.9099,-5.9099,-5.9099,-5.889,-5.862,-5.862,-5.8351,-5.8022,-5.7693,-5.7603,-5.7453,-5.6795,-5.6645,-5.6466,-5.5837,-5.5688,-5.5478,-5.482,-5.47,-5.4491,-5.3803,-5.3414,-5.2965,-5.2306,-5.1917,-5.1708,-5.1708,-5.1439,-5.1079,-5.0734,-5.0674,-5.0674,-5.0674,-5.0122,-4.9464,-4.8805,-4.8147,-4.7788,-4.7788,-4.8117,-4.8297,-4.8297,-4.8596,-4.8596,-4.8297,-4.8955,-4.9254,-4.9284,-4.9613,-4.9404,0.0,0.0,0.0,0.0,0.0,0.0,0.0,-3.1001,-3.2257,-3.5552,-3.7674,-3.9828,-4.283,-4.5394,-4.7804,-5.0196,-5.2187,-5.3862,-5.5209,-5.6376,-5.7251,-5.7653,-5.7975,-5.8071,-5.8083,-5.7522,-5.732,-5.7868,-5.8014,-5.83,-5.8865,-5.9015,-5.9099,-5.9099,-5.9099,-5.9099,-5.9099,-5.9099,-5.9099,-5.9099,-5.9099,-5.9099,-5.9099,-5.9099,-5.9099,-5.9099,-5.9099,-5.9099,-5.9099,-5.9099,-5.9189,-5.9308,-5.9308,-5.9368,-5.9458,-5.9189,-5.9099,-5.9099,-5.9099,-5.9099,-5.9099,-5.9099,-5.9099,-5.9099,-5.9099,-5.9099,-5.9099,-5.9099,-5.9099,-5.8979,-5.8441,-5.8321,-5.8141,-5.7453,-5.7304,-5.7124,-5.6496,-5.6308,-5.6068,-5.5478,-5.5269,-5.5029,-5.4491,-5.4401,-5.4132,-5.3294,-5.2725,-5.2396,-5.2396,-5.1917,-5.1588,-5.1588,-5.1588,-5.1588,-5.1588,-5.0823,-5.0212,-4.9673,-4.9449,-4.912,-4.8686,-4.9164,-4.9254,-4.8865,-5.0002,-5.0361,-4.9898,-5.102,-5.1319,-5.0794,-5.1887,-5.1828,-3.0972,-2.8906,-2.8094,-2.9654,-3.0073,-3.148,0.0,-3.7793,-3.8362,-4.1713,-4.3479,-4.4885,-4.6471,-4.8372,-5.0226,-5.1738,-5.3174,-5.4551,-5.5867,-5.6645,-5.6907,-5.6479,-5.7393,-5.8077,-5.8076,-5.75,-5.7119,-5.7212,-5.7768,-5.8143,-5.8213,-5.8757,-5.9099,-5.9099,-5.9099,-5.9099,-5.9099,-5.9099,-5.9099,-5.9099,-5.9099,-5.9099,-5.9099,-5.9099,-5.9099,-5.9099,-5.9099,-5.9099,-5.9099,-5.9099,-5.9458,-5.9967,-5.9967,-6.0356,-6.0745,-5.9548,-5.9099,-5.9099,-5.9099,-5.9099,-5.9099,-5.9099,-5.9099,-5.9099,-5.9099,-5.9099,-5.9099,-5.9099,-5.9099,-5.9099,-5.9009,-5.9009,-5.883,-5.8171,-5.8022,-5.7812,-5.7124,-5.6555,-5.6188,-5.6128,-5.5598,-5.5179,-5.5089,-5.5089,-5.464,-5.3384,-5.3114,-5.3084,-5.3084,-5.2995,-5.2965,-5.2965,-5.2965,-5.2965,-5.2965,-5.1828,-5.1079,-5.099,-4.9912,-4.9494,-4.9956,-5.0046,-5.0315,-5.087,-5.1618,-5.1947,-5.1887,-5.2606,-5.2935,-5.2845,-5.2995,-5.2995,-3.4284,-3.3395,-3.3036,-3.4233,-3.51,-3.6656,-4.0307,-4.1205,-4.2102,-4.5065,-4.6711,-4.7908,-4.8835,-5.0631,-5.2127,-5.2665,-5.3892,-5.5089,-5.6098,-5.6406,-5.6474,-5.6206,-5.6683,-5.6848,-5.6415,-5.6153,-5.6153,-5.6526,-5.7153,-5.77,-5.807,-5.8728,-5.9099,-5.9099,-5.9099,-5.9099,-5.9099,-5.9099,-5.9099,-5.9099,-5.9099,-5.9099,-5.9099,-5.9099,-5.9327,-5.9645,-5.9273,-5.9548,-6.0266,-5.9861,-6.007,-6.0685,-6.0685,-6.0864,-6.1044,-6.0475,-6.0266,-6.0206,-5.9817,-5.9668,-5.9608,-5.9219,-5.9099,-5.9099,-5.9099,-5.9099,-5.9099,-5.9099,-5.9099,-5.9099,-5.9099,-5.9099,-5.9039,-5.877,-5.871,-5.8501,-5.7842,-5.7483,-5.7094,-5.6316,-5.5957,-5.5658,-5.5269,-5.5179,-5.4999,-5.4431,-5.4012,-5.3773,-5.3773,-5.3443,-5.3174,-5.3174,-5.3174,-5.3174,-5.3174,-5.2665,-5.2366,-5.2366,-5.1828,-5.1648,-5.1947,-5.1947,-5.2067,-5.2366,-5.2636,-5.2785,-5.2785,-5.3054,-5.3174,-5.3204,-5.3593,-5.3773,-3.5889,-3.6327,-3.6985,-3.7973,-3.9499,-4.1294,-4.3269,-4.4227,-4.5334,-4.7638,-4.8865,-4.9733,-5.0345,-5.1828,-5.2965,-5.3144,-5.4162,-5.5149,-5.5807,-5.5897,-5.5786,-5.5394,-5.5559,-5.5394,-5.4714,-5.4975,-5.546,-5.6154,-5.6773,-5.741,-5.804,-5.8728,-5.9099,-5.9099,-5.9099,-5.9099,-5.9099,-5.9099,-5.9099,-5.9099,-5.9099,-5.9099,-5.9099,-5.9099,-5.9471,-6.0048,-5.9615,-6.0022,-6.1048,-6.0592,-6.0767,-6.1373,-6.1373,-6.1493,-6.1642,-6.1642,-6.1433,-6.1044,-6.0535,-6.0236,-5.9997,-5.9518,-5.9249,-5.9099,-5.9099,-5.9099,-5.9099,-5.9099,-5.9099,-5.9099,-5.9099,-5.9099,-5.9099,-5.9099,-5.9099,-5.8979,-5.8501,-5.8261,-5.7842,-5.6885,-5.6555,-5.6226,-5.5568,-5.5478,-5.5388,-5.5209,-5.479,-5.4491,-5.4491,-5.4042,-5.3743,-5.3743,-5.3743,-5.3743,-5.3743,-5.3563,-5.3473,-5.3473,-5.3294,-5.3174,-5.3174,-5.3174,-5.3174,-5.3174,-5.3354,-5.3473,-5.3473,-5.3653,-5.3743,-5.3743,-5.4251,-5.4491,-3.4711,-3.5938,-3.7853,-3.9828,-4.2252,-4.4676,-4.6711,-4.7668,-4.8506,-4.9837,-5.0136,-5.0375,-5.1079,-5.1768,-5.2426,-5.3084,-5.3773,-5.4461,-5.5119,-5.5209,-5.4738,-5.344,-5.3849,-5.3989,-5.3331,-5.4458,-5.546,-5.6154,-5.6748,-5.742,-5.8065,-5.8728,-5.9099,-5.9099,-5.9099,-5.9099,-5.9099,-5.9099,-5.9099,-5.9099,-5.9099,-5.9099,-5.9099,-5.9099,-5.9471,-6.0078,-6.0048,-6.0456,-6.1108,-6.1104,-6.1486,-6.2061,-6.2061,-6.245,-6.3019,-6.3019,-6.2211,-6.1104,-6.1104,-6.0655,-6.0086,-6.0057,-5.9608,-5.9099,-5.9099,-5.9099,-5.9099,-5.9099,-5.9099,-5.9099,-5.9099,-5.9099,-5.9099,-5.9099,-5.9099,-5.9099,-5.9069,-5.859,-5.8112,-5.8082,-5.7513,-5.6885,-5.6256,-5.6188,-5.5927,-5.5299,-5.5179,-5.5149,-5.5149,-5.5149,-5.5119,-5.5119,-5.5119,-5.5119,-5.5119,-5.4551,-5.4192,-5.4192,-5.3563,-5.3174,-5.3174,-5.3174,-5.3174,-5.3174,-5.3832,-5.4192,-5.4192,-5.482,-5.5119,-5.5119,-5.5149,-5.5149,-3.7015,-3.917,-4.1713,-4.3269,-4.5304,-4.7369,-4.8895,-4.9388,-4.9657,-5.0106,-4.9553,-4.8865,-4.8656,-4.9523,-5.0481,-5.1109,-5.3264,-5.494,-5.5149,-5.5927,-5.5645,-5.3446,-5.4589,-5.4933,-5.3345,-5.3585,-5.4348,-5.543,-5.6154,-5.6792,-5.7409,-5.847,-5.9099,-5.9099,-5.9099,-5.9099,-5.9099,-5.9099,-5.9099,-5.9099,-5.9099,-5.9099,-5.9099,-5.9099,-5.9729,-6.0772,-6.0287,-6.1008,-6.2421,-6.193,-6.2193,-6.275,-6.275,-6.2869,-6.3079,-6.3079,-6.278,-6.2361,-6.1912,-6.1613,-6.1283,-6.0386,-5.9937,-5.9668,-5.9249,-5.9099,-5.9099,-5.9099,-5.9099,-5.9099,-5.9099,-5.9099,-5.9099,-5.9099,-5.9099,-5.9099,-5.9099,-5.8919,-5.865,-5.8201,-5.7932,-5.7573,-5.6885,-5.6795,-5.6555,-5.5927,-5.5478,-5.5179,-5.5179,-5.5179,-5.5179,-5.5179,-5.5179,-5.5179,-5.5179,-5.497,-5.485,-5.485,-5.464,-5.4521,-5.4521,-5.4521,-5.4521,-5.4521,-5.473,-5.485,-5.485,-5.5089,-5.5418,-5.5837,-5.5837,-5.6077,-3.9439,-4.1893,-4.4466,-4.6262,-4.7848,-4.9254,-5.0315,-5.0375,-5.0136,-4.9942,-4.8656,-4.7369,-4.6711,-4.689,-4.7758,-4.9583,-5.1887,-5.3922,-5.5359,-5.6047,-5.5795,-5.4119,-5.4824,-5.5005,-5.37,-5.3337,-5.3743,-5.5077,-5.6003,-5.671,-5.707,-5.8357,-5.9099,-5.9099,-5.9099,-5.9099,-5.9099,-5.9099,-5.9099,-5.9099,-5.9099,-5.9099,-5.9099,-5.9099,-5.9675,-6.0717,-6.0541,-6.1345,-6.2754,-6.2519,-6.2724,-6.3079,-6.3079,-6.3079,-6.3079,-6.3079,-6.3079,-6.3019,-6.26,-6.2301,-6.1942,-6.1074,-6.0655,-6.0386,-5.9967,-5.9817,-5.9817,-5.9817,-5.9638,-5.9458,-5.9458,-5.9279,-5.9099,-5.9099,-5.9099,-5.9099,-5.9099,-5.9099,-5.8979,-5.856,-5.8471,-5.8261,-5.7573,-5.7244,-5.6944,-5.6555,-5.6137,-5.5688,-5.5239,-5.5179,-5.5179,-5.5179,-5.5179,-5.5179,-5.5179,-5.5179,-5.5179,-5.5179,-5.5179,-5.5179,-5.5179,-5.5179,-5.5179,-5.5179,-5.5418,-5.5538,-5.5538,-5.5748,-5.6077,-5.6496,-5.6496,-5.6705,-4.1841,-4.4028,-4.6142,-4.873,-4.9793,-5.0405,-5.0973,-5.0614,-4.9927,-4.9269,-4.7459,-4.5843,-4.5065,-4.4047,-4.4586,-4.8491,-4.9793,-5.1738,-5.5568,-5.5658,-5.5326,-5.5145,-5.4688,-5.4304,-5.4209,-5.3689,-5.3823,-5.5114,-5.6335,-5.7045,-5.707,-5.8357,-5.9099,-5.9099,-5.9099,-5.9099,-5.9099,-5.9099,-5.9099,-5.9099,-5.9099,-5.9099,-5.9099,-5.9129,-5.9501,-6.0199,-6.0832,-6.1521,-6.2195,-6.2872,-6.3079,-6.3079,-6.3079,-6.3079,-6.3079,-6.3079,-6.3079,-6.3079,-6.3079,-6.266,-6.2151,-6.2121,-6.1672,-6.1164,-6.1134,-6.1104,-6.1104,-6.1104,-6.0655,-6.0146,-6.0146,-5.9638,-5.9159,-5.9159,-5.9129,-5.9099,-5.9099,-5.9099,-5.9099,-5.9099,-5.9099,-5.8919,-5.8291,-5.7603,-5.7154,-5.7154,-5.7124,-5.6645,-5.5448,-5.5299,-5.5299,-5.5299,-5.5299,-5.5299,-5.5299,-5.5299,-5.5299,-5.5299,-5.5299,-5.5299,-5.5299,-5.5299,-5.5299,-5.5299,-5.5897,-5.6278,-5.6278,-5.6795,-5.7124,-5.7154,-5.7154,-5.7154,-4.4107,-4.6711,-4.9089,-4.9823,-5.0435,-5.0853,-5.0524,-4.9972,-4.8895,-4.6741,-4.4347,-4.2132,-4.0457,-4.1542,-4.3459,-4.5903,-4.9763,-5.3144,-5.5149,-5.6547,-5.6653,-5.4692,-5.5545,-5.5759,-5.4333,-5.4503,-5.4819,-5.5144,-5.5505,-5.6093,-5.704,-5.8357,-5.9099,-5.9099,-5.9099,-5.9099,-5.9099,-5.9099,-5.9099,-5.9099,-5.9099,-5.9099,-5.9129,-5.9615,-6.0193,-6.0862,-6.1533,-6.2225,-6.2872,-6.3049,-6.3079,-6.3079,-6.3079,-6.3079,-6.3079,-6.3079,-6.3079,-6.3079,-6.3079,-6.2959,-6.275,-6.2241,-6.1972,-6.1762,-6.1253,-6.1104,-6.1104,-6.1104,-6.0984,-6.0864,-6.0864,-6.0356,-5.9847,-5.9847,-5.9458,-5.9099,-5.9099,-5.9099,-5.9099,-5.9099,-5.9099,-5.9069,-5.889,-5.8291,-5.7872,-5.7872,-5.7423,-5.6974,-5.6645,-5.6615,-5.6615,-5.6615,-5.6615,-5.6615,-5.6615,-5.6615,-5.6615,-5.6615,-5.6615,-5.6615,-5.6615,-5.6615,-5.6615,-5.6615,-5.6765,-5.6855,-5.6855,-5.7004,-5.7363,-5.7872,-5.7872,-5.8112,-4.695,-4.9254,-5.1109,-5.1109,-5.1169,-5.081,-4.9239,-4.8207,-4.6681,-4.3748,-4.1265,-3.902,-3.7045,-3.8637,-4.1025,-4.3638,-4.8207,-5.2474,-5.5239,-5.6563,-5.6825,-5.5597,-5.6199,-5.6153,-5.4779,-5.4959,-5.519,-5.5226,-5.57,-5.6346,-5.704,-5.8357,-5.9099,-5.9099,-5.9099,-5.9099,-5.9099,-5.9099,-5.9099,-5.9099,-5.9099,-5.9099,-5.9129,-5.9789,-6.0306,-6.0693,-6.1687,-6.2313,-6.2667,-6.3019,-6.3079,-6.3079,-6.3079,-6.3079,-6.3079,-6.3079,-6.3079,-6.3079,-6.3079,-6.3079,-6.3019,-6.266,-6.254,-6.245,-6.2091,-6.1972,-6.1972,-6.1972,-6.1762,-6.1553,-6.1553,-6.1044,-6.0535,-6.0535,-6.0027,-5.9548,-5.9548,-5.9308,-5.9099,-5.9099,-5.9099,-5.9099,-5.9099,-5.88,-5.856,-5.856,-5.8231,-5.7992,-5.7992,-5.7453,-5.7094,-5.7094,-5.7094,-5.7094,-5.7094,-5.7094,-5.7094,-5.7094,-5.7094,-5.7094,-5.7094,-5.7094,-5.7094,-5.7094,-5.7393,-5.7543,-5.7543,-5.7842,-5.8171,-5.856,-5.856,-5.874,-4.9687,-5.1319,-5.2306,-5.2217,-5.1648,-5.0391,-4.7758,-4.5933,-4.3838,-4.0546,-3.8212,-3.6207,-3.4412,-3.5848,-3.8392,-4.1841,-4.6214,-5.0797,-5.543,-5.608,-5.6295,-5.6936,-5.6555,-5.5932,-5.5289,-5.5179,-5.5259,-5.5319,-5.6436,-5.7106,-5.707,-5.8357,-5.9099,-5.9099,-5.9099,-5.9099,-5.9099,-5.9099,-5.9099,-5.9099,-5.9099,-5.9099,-5.9129,-5.9904,-6.0245,-6.0323,-6.1668,-6.2225,-6.2255,-6.2872,-6.3079,-6.3079,-6.3079,-6.3079,-6.3079,-6.3079,-6.3079,-6.3079,-6.3079,-6.3079,-6.3079,-6.3079,-6.3079,-6.3079,-6.3079,-6.3079,-6.3079,-6.3079,-6.266,-6.2241,-6.2241,-6.1732,-6.1253,-6.1253,-6.0715,-6.0206,-6.0206,-5.9697,-5.9249,-5.9249,-5.9159,-5.9099,-5.9099,-5.9099,-5.9099,-5.9099,-5.9099,-5.9099,-5.9099,-5.8082,-5.7363,-5.7363,-5.7363,-5.7363,-5.7363,-5.7363,-5.7363,-5.7363,-5.7363,-5.7363,-5.7363,-5.7363,-5.7363,-5.7363,-5.7962,-5.8261,-5.8261,-5.883,-5.9099,-5.9099,-5.9099,-5.9099,-5.0734,-5.2007,-5.2875,-5.2336,-5.1289,-4.9687,-4.71,-4.4197,-4.1115,-3.7853,-3.513,-3.3065,-3.2168,-3.4562,-3.7948,-4.1782,-4.5825,-5.0109,-5.4707,-5.5394,-5.5642,-5.629,-5.6284,-5.5932,-5.5289,-5.5179,-5.543,-5.6013,-5.6688,-5.7106,-5.707,-5.8357,-5.9099,-5.9099,-5.9099,-5.9099,-5.9099,-5.9099,-5.9099,-5.9099,-5.9099,-5.9099,-5.9129,-6.0337,-6.0941,-6.0995,-6.2342,-6.2931,-6.2931,-6.3049,-6.3079,-6.3079,-6.3079,-6.3079,-6.3079,-6.3079,-6.3079,-6.3079,-6.3079,-6.3079,-6.3079,-6.3079,-6.3079,-6.3079,-6.3079,-6.3079,-6.3079,-6.3079,-6.2989,-6.2899,-6.2899,-6.2421,-6.1942,-6.1942,-6.1403,-6.0924,-6.0924,-6.0386,-5.9907,-5.9907,-5.9488,-5.9099,-5.9099,-5.9099,-5.9099,-5.9099,-5.9099,-5.9099,-5.9099,-5.889,-5.877,-5.877,-5.877,-5.877,-5.877,-5.877,-5.877,-5.877,-5.877,-5.877,-5.877,-5.877,-5.877,-5.877,-5.889,-5.8949,-5.8949,-5.9039,-5.9099,-5.9099,-5.9099,-5.9099,-5.1887,-5.2965,-5.3563,-5.2875,-5.1468,-4.9149,-4.5185,-4.1953,-3.8691,-3.4741,-3.2617,-3.127,-3.0642,-3.3215,-3.633,-3.8906,-4.2634,-4.687,-5.1496,-5.2368,-5.3341,-5.5411,-5.5654,-5.554,-5.5209,-5.5179,-5.546,-5.6154,-5.6749,-5.7242,-5.7611,-5.8584,-5.9099,-5.9099,-5.9099,-5.9099,-5.9099,-5.9099,-5.9099,-5.9099,-5.9099,-5.9273,-5.9675,-6.0651,-6.1297,-6.1668,-6.2667,-6.3079,-6.3079,-6.3079,-6.3079,-6.3079,-6.3079,-6.3079,-6.3079,-6.3079,-6.3079,-6.3079,-6.3079,-6.3079,-6.3079,-6.3079,-6.3079,-6.3079,-6.3079,-6.3079,-6.3079,-6.3079,-6.3079,-6.3079,-6.3079,-6.2839,-6.26,-6.26,-6.2121,-6.1523,-6.1194,-6.0864,-6.0625,-6.0625,-6.0356,-6.0027,-5.9668,-5.9608,-5.9488,-5.9159,-5.9099,-5.9099,-5.9099,-5.9099,-5.9099,-5.9099,-5.9099,-5.9099,-5.9099,-5.9099,-5.9099,-5.9099,-5.9099,-5.9099,-5.9099,-5.9099,-5.9099,-5.9099,-5.9099,-5.9099,-5.9099,-5.9099,-5.9279,-5.9608,-5.9608,-5.9817,-5.2636,-5.3683,-5.4042,-5.3354,-5.1498,-4.8506,-4.3509,-3.9895,-3.6357,-3.2138,-3.0552,-2.9774,-2.9472,-3.1718,-3.4294,-3.6178,-3.9484,-4.3523,-4.8607,-4.9811,-5.1447,-5.4831,-5.5204,-5.5179,-5.5179,-5.5319,-5.5681,-5.6325,-5.7093,-5.7784,-5.8297,-5.8811,-5.9099,-5.9099,-5.9099,-5.9099,-5.9099,-5.9099,-5.9099,-5.9099,-5.9243,-5.9615,-6.0138,-6.0919,-6.1638,-6.2108,-6.2784,-6.3079,-6.3079,-6.3079,-6.3079,-6.3079,-6.3079,-6.3079,-6.3079,-6.3079,-6.3079,-6.3079,-6.3079,-6.3079,-6.3079,-6.3079,-6.3079,-6.3079,-6.3079,-6.3079,-6.3079,-6.3079,-6.3079,-6.3079,-6.3079,-6.3079,-6.3079,-6.3079,-6.269,-6.2181,-6.1642,-6.1433,-6.1313,-6.1313,-6.1224,-6.0954,-6.0386,-6.0296,-6.0146,-5.9608,-5.9548,-5.9548,-5.9548,-5.9548,-5.9548,-5.9548,-5.9279,-5.9099,-5.9099,-5.9099,-5.9099,-5.9099,-5.9099,-5.9099,-5.9099,-5.9249,-5.9308,-5.9308,-5.9458,-5.9548,-5.9548,-5.9548,-5.9787,-6.0296,-6.0296,-6.0595,-5.2636,-5.3683,-5.4042,-5.3354,-5.081,-4.7399,-4.3329,-3.8482,-3.4054,-3.118,-2.9116,-2.8034,-2.8577,-2.9894,-3.2108,-3.5878,0.0,-4.1926,-4.8417,-4.9849,-5.1439,-5.4818,-5.5188,-5.5179,-5.5179,-5.5761,-5.6375,-5.694,-5.8226,-5.8955,-5.8985,-5.9099,-5.9099,-5.9099,-5.9099,-5.9099,-5.9099,-5.9099,-5.9099,-5.9099,-5.9729,-6.0048,-6.0138,-6.1413,-6.2048,-6.2108,-6.2784,-6.3079,-6.3079,-6.3079,-6.3079,-6.3079,-6.3079,-6.3079,-6.3079,-6.3079,-6.3079,-6.3079,-6.3079,-6.3079,-6.3079,-6.3079,-6.3079,-6.3079,-6.3079,-6.3079,-6.3079,-6.3079,-6.3079,-6.3079,-6.3079,-6.3079,-6.3079,-6.3079,-6.3019,-6.2959,-6.2899,-6.2421,-6.2002,-6.2002,-6.1523,-6.1104,-6.1044,-6.1014,-6.1014,-6.0954,-6.0924,-6.0924,-6.0924,-6.0924,-6.0924,-6.0924,-5.9847,-5.9099,-5.9099,-5.9099,-5.9099,-5.9099,-5.9099,-5.9099,-5.9099,-5.9668,-5.9997,-5.9997,-6.0625,-6.0924,-6.0924,-6.0924,-6.0954,-6.1014,-6.1014,-6.1044,-5.1349,-5.2785,-5.3443,-5.2755,-5.0122,-4.6651,-4.2701,-3.8003,-3.3635,-3.0582,-2.8693,-2.7794,-2.8487,-2.9002,-3.0404,0.0,0.0,0.0,-4.2583,-4.4613,-4.7024,-5.1149,-5.2666,-5.3849,-5.5069,-5.5791,-5.6594,-5.7648,-5.856,-5.9099,-5.9099,-5.9099,-5.9099,-5.9099,-5.9099,-5.9099,-5.9099,-5.9099,-5.9099,-5.9099,-5.9357,-5.9937,-6.0707,-6.1223,-6.1931,-6.2724,-6.3019,-6.3079,-6.3079,-6.3079,-6.3079,-6.3079,-6.3079,-6.3079,-6.3079,-6.3079,-6.3079,-6.3079,-6.3079,-6.3079,-6.3079,-6.3079,-6.3079,-6.3079,-6.3079,-6.3079,-6.3079,-6.3079,-6.3079,-6.3079,-6.3079,-6.3079,-6.3079,-6.3079,-6.3079,-6.3079,-6.3079,-6.2869,-6.269,-6.269,-6.248,-6.2181,-6.1762,-6.1702,-6.1553,-6.1164,-6.1104,-6.1104,-6.1104,-6.1104,-6.1104,-6.1104,-6.0625,-6.0296,-6.0296,-6.0296,-6.0296,-6.0296,-6.0296,-6.0296,-6.0296,-6.0565,-6.0715,-6.0715,-6.0984,-6.1104,-6.1104,-6.1104,-6.1313,-6.1702,-6.1702,-6.1912,-4.9823,-5.1588,-5.2486,-5.2037,-4.9284,-4.5723,-4.1953,-3.7345,-3.3066,-3.022,-2.8543,-2.7735,-2.8218,-2.8483,-2.9315,0.0,0.0,-3.4313,-3.8775,-4.1101,-4.3906,-4.7916,-5.0182,-5.2063,-5.3849,-5.5505,-5.6982,-5.8321,-5.8841,-5.9099,-5.9099,-5.9099,-5.9099,-5.9099,-5.9099,-5.9099,-5.9099,-5.9099,-5.9099,-5.9099,-5.9273,-5.9985,-6.1111,-6.1287,-6.2048,-6.3079,-6.3079,-6.3079,-6.3079,-6.3079,-6.3079,-6.3079,-6.3079,-6.3079,-6.3079,-6.3079,-6.3079,-6.3079,-6.3079,-6.3079,-6.3079,-6.3079,-6.3079,-6.3079,-6.3079,-6.3079,-6.3079,-6.3079,-6.3079,-6.3079,-6.3079,-6.3079,-6.3079,-6.3079,-6.3079,-6.3079,-6.3079,-6.3079,-6.3079,-6.3079,-6.3079,-6.2929,-6.248,-6.2391,-6.2241,-6.1762,-6.1702,-6.1702,-6.1702,-6.1702,-6.1702,-6.1702,-6.1702,-6.1523,-6.1134,-6.1104,-6.1104,-6.1104,-6.1104,-6.1104,-6.1104,-6.1313,-6.1403,-6.1403,-6.1583,-6.1702,-6.1702,-6.1702,-6.1942,-6.2391,-6.2391,-6.263,-4.8281,-5.0242,-5.1229,-5.1229,-4.8237,-4.4466,-4.1175,-3.6327,-3.1988,-2.9983,-2.8543,-2.7585,-2.7615,-2.8142,-2.9031,0.0,0.0,0.0,-3.8809,-4.1114,-4.3355,-4.6018,-4.8119,-4.9839,-5.1114,-5.4785,-5.767,-5.8985,-5.9099,-5.9099,-5.9099,-5.9099,-5.9099,-5.9099,-5.9099,-5.9099,-5.9099,-5.9099,-5.9099,-5.9099,-5.9759,-6.0475,-6.1111,-6.1785,-6.246,-6.3079,-6.3079,-6.3079,-6.3079,-6.3079,-6.3079,-6.3079,-6.3079,-6.3079,-6.3079,-6.3079,-6.3079,-6.3079,-6.3079,-6.3079,-6.3079,-6.3079,-6.3079,-6.3079,-6.3079,-6.3079,-6.3079,-6.3079,-6.3079,-6.3079,-6.3079,-6.3079,-6.3079,-6.3079,-6.3079,-6.3079,-6.3079,-6.3079,-6.3079,-6.3079,-6.3079,-6.3079,-6.3079,-6.3079,-6.3079,-6.3049,-6.3049,-6.3049,-6.3049,-6.3049,-6.3049,-6.3049,-6.3049,-6.254,-6.1224,-6.1104,-6.1104,-6.1104,-6.1104,-6.1104,-6.1104,-6.1732,-6.2091,-6.2091,-6.272,-6.3049,-6.3049,-6.3049,-6.3049,-6.3079,-6.3079,-6.3079,-4.303,-4.4825,-4.5681,-4.5274,-4.3539,-4.1324,-3.8901,-3.534,-3.1958,-2.9983,-2.8543,-2.7585,-2.7585,-2.778,-2.9083,-3.2651,0.0,0.0,-3.8901,-4.1466,-4.3662,-4.5409,-4.9808,-5.331,-5.507,-5.6384,-5.767,-5.8985,-5.9099,-5.9099,-5.9099,-5.9099,-5.9099,-5.9099,-5.9099,-5.9099,-5.9099,-5.9099,-5.9099,-5.9099,-5.9327,-5.9777,-6.0446,-6.1129,-6.1811,-6.2421,-6.2869,-6.3079,-6.3079,-6.3079,-6.3079,-6.3079,-6.3079,-6.3079,-6.3079,-6.3079,-6.3079,-6.3079,-6.3079,-6.3079,-6.3079,-6.3079,-6.3079,-6.3079,-6.3079,-6.3079,-6.3079,-6.3079,-6.3079,-6.3079,-6.3079,-6.3079,-6.3079,-6.3079,-6.3079,-6.3079,-6.3079,-6.3079,-6.3079,-6.3079,-6.3079,-6.3079,-6.3079,-6.3079,-6.3079,-6.3079,-6.3079,-6.3079,-6.3079,-6.3079,-6.3079,-6.3079,-6.3079,-6.2899,-6.248,-6.245,-6.245,-6.245,-6.245,-6.245,-6.245,-6.266,-6.278,-6.278,-6.2959,-6.3079,-6.3079,-6.3079,-6.3079,-6.3079,-6.3079,-6.3079,-3.92,-4.1414,-4.2551,-4.244,-4.1033,-3.914,-3.7135,-3.4143,-3.127,-2.9564,-2.8364,-2.7585,-2.7585,-2.7836,-2.8986,-3.2139,-3.3276,-3.4813,-3.7872,-4.0359,-4.2866,-4.5715,-4.9974,-5.3567,-5.5822,-5.6667,-5.7557,-5.8614,-5.8955,-5.9099,-5.9099,-5.9099,-5.9099,-5.9099,-5.9099,-5.9099,-5.9099,-5.9099,-5.9099,-5.9099,-5.9099,-5.9471,-6.0108,-6.0496,-6.1094,-6.1762,-6.2421,-6.272,0.0,-6.2989,-6.3079,-6.3079,-6.3079,-6.3079,-6.3079,-6.3079,-6.3079,-6.3079,-6.3079,-6.3079,-6.3079,-6.3079,-6.3079,-6.3079,-6.3079,-6.3079,-6.3079,-6.3079,-6.3079,-6.3079,-6.3079,-6.3079,-6.3079,-6.3079,-6.3079,-6.3079,-6.3079,-6.3079,-6.3079,-6.3079,-6.3079,-6.3079,-6.3079,-6.3079,-6.3079,-6.3079,-6.3079,-6.3079,-6.3079,-6.3079,-6.3079,-6.3079,-6.3079,-6.3079,-6.3079,-6.3079,-6.3079,-6.3079,-6.3079,-6.3079,-6.3079,-6.3079,-6.3079,-6.3079,-6.3079,-6.3079,-6.3079,-6.3079,-6.3079,-6.3079,-6.3079,-6.3079,0.0,-3.92,-4.0816,-4.1422,-3.9745,-3.7404,-3.5579,-3.2706,0.0,-2.8846,-2.8094,-2.764,-2.7725,-2.8198,-2.89,-2.9892,-3.1626,-3.3751,-3.6338,-3.8549,-4.1794,-4.7015,-4.9337,-5.1519,-5.4099,-5.6012,-5.7379,-5.807,-5.8728,-5.9099,-5.9099,-5.9099,-5.9099,-5.9099,-5.9099,-5.9099,-5.9099,-5.9099,-5.9099,-5.9099,-5.9099,-5.9417,-6.0048,-6.0057,-6.0424,-6.1074,-6.1732,-6.2032,-6.2061,-6.272,-6.3019,-6.3019,-6.3049,-6.3079,-6.3079,-6.3079,-6.3079,-6.3079,-6.3079,-6.3079,-6.3079,-6.3079,-6.3079,-6.3079,-6.3079,-6.3079,-6.3079,-6.3079,-6.3079,-6.3079,-6.3079,-6.3079,-6.3079,-6.3079,-6.3079,-6.3079,-6.3079,-6.3079,-6.3079,-6.3079,-6.3079,-6.3079,-6.3079,-6.3079,-6.3079,-6.3079,-6.3079,-6.3079,-6.3079,-6.3079,-6.3079,-6.3079,-6.3079,-6.3079,-6.3079,-6.3079,-6.3079,-6.3079,-6.3079,-6.3079,-6.3079,-6.3079,-6.3079,-6.3079,-6.3079,-6.3079,-6.3079,-6.3079,-6.3079,-6.3079,-6.3079,-6.3079,-3.115,0.0,-3.3723,-3.3395,-3.3215,-3.2856,0.0,-3.0702,-2.9564,-2.8757,-2.8094,-2.7891,-2.8931,-2.8844,-2.9805,-3.3519,-3.529,-3.6841,-3.8512,-4.2166,-4.6275,-5.0538,-5.2388,-5.3879,-5.557,-5.6585,-5.7371,-5.8065,-5.8728,-5.9099,-5.9099,-5.9099,-5.9099,-5.9099,-5.9099,-5.9099,-5.9099,-5.9099,-5.9099,-5.9099,-5.9099,-5.9213,-5.9387,-5.9882,-6.0211,-6.0356,-6.1044,-6.1343,-6.1403,-6.2061,-6.2331,-6.2391,-6.2869,-6.3079,-6.3079,-6.3079,-6.3079,-6.3079,-6.3079,-6.3079,-6.3079,-6.3079,-6.3079,-6.3079,-6.3079,-6.3079,-6.3079,-6.3079,-6.3079,-6.3079,-6.3079,-6.3079,-6.3079,-6.3079,-6.3079,-6.3079,-6.3079,-6.3079,-6.3079,-6.3079,-6.3079,-6.3079,-6.3079,-6.3079,-6.3079,-6.3079,-6.3079,-6.3079,-6.3079,-6.3079,-6.3079,-6.3079,-6.3079,-6.3079,-6.3079,-6.3079,-6.3079,-6.3079,-6.3079,-6.3079,-6.3079,-6.3079,-6.3079,-6.3079,-6.3079,-6.3079,-6.3079,-6.3079,-6.3079,-6.3079,-6.3079,-6.3079,-2.8573,-3.0283,-3.1929,-3.1898,-3.1928,-3.178,-3.1092,0.0,-2.8936,-2.8304,-2.7854,-2.7921,-2.8956,-2.9098,-3.0068,-3.3154,-3.503,-3.7274,-4.0769,-4.4941,-4.8798,-5.1832,-5.3377,-5.4598,-5.5651,-5.6295,-5.6934,-5.7606,-5.8243,-5.8757,-5.9099,-5.9099,-5.9099,-5.9099,-5.9099,-5.9099,-5.9099,-5.9099,-5.9099,-5.9099,-5.9099,-5.9099,-5.9129,-5.9463,-5.9643,-5.9668,-6.0356,-6.0655,-6.0685,-6.1373,-6.1822,-6.2121,-6.248,-6.281,-6.3079,-6.3079,-6.3079,-6.3079,-6.3079,-6.3079,-6.3079,-6.3079,-6.3079,-6.3079,-6.3079,-6.3079,-6.3079,-6.3079,-6.3079,-6.3079,-6.3079,-6.3079,-6.3079,-6.3079,-6.3079,-6.3079,-6.3079,-6.3079,-6.3079,-6.3079,-6.3079,-6.3079,-6.3079,-6.3079,-6.3079,-6.3079,-6.3079,-6.3079,-6.3079,-6.3079,-6.3079,-6.3079,-6.3079,-6.3079,-6.3079,-6.3079,-6.3079,-6.3079,-6.3079,-6.3079,-6.3079,-6.3079,-6.3079,-6.3079,-6.3079,-6.3079,-6.3079,-6.3079,-6.3079,-6.3079,-6.3079,-6.3079,-2.7854,-3.0073,-3.2407,-3.2557,-3.2407,-3.1989,-3.1241,0.0,0.0,0.0,-2.79,-2.8173,-2.9042,-2.972,-3.0689,-3.2163,-3.424,-3.7746,-4.3634,-4.7315,-5.0199,-5.2264,-5.36,-5.4568,-5.5149,-5.5791,-5.6389,-5.693,-5.7576,-5.8213,-5.8871,-5.8955,-5.8985,-5.9099,-5.9099,-5.9099,-5.9099,-5.9099,-5.9099,-5.9099,-5.9099,-5.9099,-5.9099,-5.9099,-5.9099,-5.9129,-5.9697,-5.9937,-5.9997,-6.0685,-6.1283,-6.1822,-6.2002,-6.245,-6.2929,-6.3049,-6.3079,-6.3079,-6.3079,-6.3079,-6.3079,-6.3079,-6.3079,-6.3079,-6.3079,-6.3079,-6.3079,-6.3079,-6.3079,-6.3079,-6.3079,-6.3079,-6.3079,-6.3079,-6.3079,-6.3079,-6.3079,-6.3079,-6.3079,-6.3079,-6.3079,-6.3079,-6.3079,-6.3079,-6.3079,-6.3079,-6.3169,-6.3169,-6.3079,-6.3169,-6.3169,-6.3079,-6.3079,-6.3079,-6.3079,-6.3079,-6.3079,-6.3079,-6.3079,-6.3079,-6.3079,-6.3079,-6.3079,-6.3079,-6.3079,-6.3079,-6.3079,-6.3079,-6.3079,-6.3079,-6.3079,-6.3079,-2.8992,-3.0462,-3.1152,-2.9052,-2.9654,-3.0492,-2.9325,0.0,0.0,0.0,0.0,-2.9836,-3.159,-3.2462,-3.3687,-3.6101,-3.9143,-4.3033,-4.8388,-4.9704,-5.1006,-5.3583,-5.4568,-5.5069,-5.5179,-5.5791,-5.6224,-5.6333,-5.6935,-5.7557,-5.8213,-5.8243,-5.85,-5.9099,-5.9099,-5.9099,-5.9099,-5.9099,-5.9099,-5.9099,-5.9099,-5.9099,-5.9099,-5.9099,-5.9099,-5.9099,-5.9219,-5.9249,-5.9308,-5.9967,-6.0296,-6.0505,-6.1642,-6.2151,-6.2301,-6.2869,-6.3079,-6.3079,-6.3079,-6.3079,-6.3079,-6.3079,-6.3079,-6.3079,-6.3079,-6.3079,-6.3079,-6.3079,-6.3079,-6.3079,-6.3079,-6.3079,-6.3079,-6.3079,-6.3079,-6.3079,-6.3079,-6.3079,-6.3079,-6.3079,-6.3079,-6.3079,-6.3079,-6.3079,-6.3079,-6.3079,-6.3528,-6.3677,-6.3139,-6.3528,-6.3647,-6.3139,-6.3079,-6.3079,-6.3079,-6.3079,-6.3079,-6.3079,-6.3079,-6.3079,-6.3079,-6.3079,-6.3079,-6.3079,-6.3079,-6.3079,-6.3079,-6.3079,-6.3079,-6.3079,-6.3079,-6.3079,-2.814,-2.9475,-3.0253,-2.9385,-3.0642,-3.1958,-3.139,-3.0941,0.0,0.0,-3.0643,-3.0995,-3.2273,-3.396,-3.6325,-3.9987,-4.2769,-4.573,-4.9209,-5.0609,-5.2024,-5.395,-5.4788,-5.5179,-5.5179,-5.546,-5.5791,-5.6154,-5.6457,-5.6892,-5.7513,-5.7553,-5.7843,-5.8554,-5.8584,-5.8728,-5.9099,-5.9099,-5.9099,-5.9099,-5.9099,-5.9099,-5.9099,-5.9099,-5.9099,-5.9099,-5.9099,-5.9099,-5.9129,-5.9428,-5.9757,-6.0146,-6.0775,-6.1463,-6.2181,-6.2839,-6.3079,-6.3079,-6.3079,-6.3079,-6.3079,-6.3079,-6.3079,-6.3079,-6.3079,-6.3079,-6.3079,-6.3079,-6.3079,-6.3079,-6.3079,-6.3079,-6.3079,-6.3079,-6.3079,-6.3079,-6.3079,-6.3079,-6.3079,-6.3079,-6.3079,-6.3079,-6.3079,-6.3348,-6.3588,-6.3588,-6.4126,-6.4455,-6.4156,-6.4366,-6.4455,-6.4156,-6.4126,-6.4126,-6.4126,-6.4126,-6.3827,-6.3109,-6.3079,-6.3079,-6.3079,-6.3079,-6.3079,-6.3079,-6.3079,-6.3079,-6.3079,-6.3079,-6.3079,-6.3079,-6.3079,-6.3079,-2.7646,-2.8693,-2.9535,-3.0313,-3.1779,-3.3245,-3.4023,-3.3185,-3.2435,-3.3178,-3.31,-3.3087,-3.3773,-3.6076,-3.9291,-4.3546,-4.5809,-4.7753,-4.9893,-5.1513,-5.2914,-5.4238,-5.4899,-5.5179,-5.5179,-5.5179,-5.543,-5.5932,-5.5962,-5.6264,-5.688,-5.687,-5.7179,-5.7832,-5.7832,-5.8214,-5.8841,-5.889,-5.8919,-5.9099,-5.9099,-5.9099,-5.9099,-5.9099,-5.9099,-5.9099,-5.9099,-5.9099,-5.9099,-5.9099,-5.9398,-5.9877,-6.0027,-6.0924,-6.2151,-6.266,-6.2959,-6.3079,-6.3079,-6.3079,-6.3079,-6.3079,-6.3079,-6.3079,-6.3079,-6.3079,-6.3079,-6.3079,-6.3079,-6.3079,-6.3079,-6.3079,-6.3079,-6.3079,-6.3079,-6.3079,-6.3079,-6.3079,-6.3079,-6.3079,-6.3079,-6.3109,-6.3258,-6.3677,-6.4066,-6.4216,-6.4814,-6.5203,-6.4994,-6.5173,-6.5203,-6.5054,-6.5024,-6.5024,-6.5024,-6.5024,-6.4545,-6.3378,-6.3169,-6.3079,-6.3079,-6.3079,-6.3079,-6.3079,-6.3079,-6.3079,-6.3079,-6.3079,-6.3079,-6.3079,-6.3079,-6.3079,-2.8869,-2.9056,-2.8966,-3.0193,-3.1062,-3.2437,-3.5579,-3.5252,-3.5174,-3.8218,-3.7838,-3.7178,-3.7851,-4.0166,-4.3084,-4.6431,-4.8162,-4.9999,-5.2527,-5.3039,-5.363,-5.4958,-5.5179,-5.5179,-5.5179,-5.5179,-5.5209,-5.5289,-5.5289,-5.554,-5.6264,-5.6254,-5.6566,-5.7132,-5.7183,-5.7488,-5.8183,-5.8178,-5.8464,-5.9099,-5.9099,-5.9099,-5.9099,-5.9099,-5.9099,-5.9099,-5.9099,-5.9099,-5.9099,-5.9099,-5.9129,-5.9249,-5.9847,-6.0924,-6.2091,-6.2151,-6.254,-6.3079,-6.3079,-6.3079,-6.3079,-6.3079,-6.3079,-6.3079,-6.3079,-6.3079,-6.3079,-6.3079,-6.3079,-6.3079,-6.3079,-6.3079,-6.3079,-6.3079,-6.3079,-6.3079,-6.3079,-6.3079,-6.3079,-6.3079,-6.3079,-6.3258,-6.3827,-6.3977,-6.4216,-6.4844,-6.5533,-6.5712,-6.5114,-6.5562,-6.5712,-6.5084,-6.5024,-6.5024,-6.5024,-6.5024,-6.4725,-6.3977,-6.3408,-6.3079,-6.3079,-6.3079,-6.3079,-6.3079,-6.3079,-6.3079,-6.3079,-6.3079,-6.3079,-6.3079,-6.3079,-6.3079,-2.7118,-2.7764,-2.8481,-3.0589,-3.1958,-3.3395,-3.5908,-3.7045,-3.8262,-4.077,-4.1184,-4.1268,-4.1927,-4.322,-4.5013,-4.7525,-4.9383,-5.1122,-5.2957,-5.3177,-5.371,-5.5039,-5.5179,-5.5179,-5.5179,-5.5179,-5.5179,-5.5179,-5.5179,-5.5319,-5.554,-5.557,-5.5902,-5.6516,-5.6547,-5.6826,-5.7483,-5.7872,-5.8201,-5.8501,-5.8919,-5.9099,-5.9099,-5.9099,-5.9099,-5.9099,-5.9099,-5.9099,-5.9099,-5.9099,-5.9099,-5.9159,-5.9817,-6.0386,-6.0954,-6.1792,-6.2241,-6.254,-6.2929,-6.3079,-6.3079,-6.3079,-6.3079,-6.3079,-6.3079,-6.3079,-6.3079,-6.3079,-6.3079,-6.3079,-6.3079,-6.3079,-6.3079,-6.3079,-6.3079,-6.3079,-6.3079,-6.3079,-6.3079,-6.3079,-6.3079,-6.3139,-6.3378,-6.4096,-6.4725,-6.4934,-6.5951,-6.652,-6.6281,-6.646,-6.652,-6.6281,-6.6251,-6.6251,-6.6251,-6.5862,-6.5533,-6.5263,-6.4246,-6.3468,-6.3079,-6.3079,-6.3079,-6.3079,-6.3079,-6.3079,-6.3079,-6.3079,-6.3079,-6.3079,-6.3079,-6.3079,-2.6438,-2.7304,-2.8397,-3.041,-3.2377,-3.4502,-3.7135,-3.8903,-4.0921,-4.3946,-4.4398,-4.4318,-4.4569,-4.498,-4.594,-4.7967,-4.9745,-5.1366,-5.2712,-5.3068,-5.363,-5.4738,-5.5069,-5.5179,-5.5179,-5.5179,-5.5179,-5.5179,-5.5179,-5.5179,-5.5179,-5.5179,-5.543,-5.5902,-5.5902,-5.6182,-5.6831,-5.7266,-5.7603,-5.7812,-5.8471,-5.8919,-5.9099,-5.9099,-5.9099,-5.9099,-5.9099,-5.9099,-5.9099,-5.9099,-5.9099,-5.9159,-5.9608,-5.9907,-6.0206,-6.1134,-6.1583,-6.1882,-6.254,-6.278,-6.281,-6.3019,-6.3079,-6.3079,-6.3079,-6.3079,-6.3079,-6.3079,-6.3079,-6.3079,-6.3079,-6.3079,-6.3079,-6.3079,-6.3079,-6.3079,-6.3079,-6.3079,-6.3079,-6.3079,-6.3079,-6.3139,-6.3318,-6.4126,-6.4844,-6.5263,-6.6101,-6.6759,-6.6969,-6.6999,-6.6999,-6.6999,-6.6999,-6.6999,-6.6999,-6.658,-6.6131,-6.5712,-6.4844,-6.4036,-6.3408,-6.3169,-6.3079,-6.3079,-6.3079,-6.3079,-6.3079,-6.3079,-6.3079,-6.3079,-6.3079,-6.3079,-2.7476,-2.8068,-2.8786,-2.9472,-3.2107,-3.5582,-3.9529,-4.0969,-4.2953,-4.8246,-4.7717,-4.614,-4.5455,-4.5361,-4.5966,-4.7984,-4.9363,-5.0666,-5.2038,-5.2792,-5.3461,-5.4099,-5.4788,-5.5179,-5.5179,-5.5179,-5.5179,-5.5179,-5.5179,-5.5179,-5.5179,-5.5179,-5.5179,-5.5179,-5.5179,-5.5487,-5.6183,-5.6226,-5.6466,-5.7094,-5.7782,-5.8471,-5.9099,-5.9099,-5.9099,-5.9099,-5.9099,-5.9099,-5.9099,-5.9099,-5.9099,-5.9099,-5.9099,-5.9488,-6.0086,-6.0086,-6.0505,-6.1194,-6.1852,-6.2091,-6.2181,-6.2839,-6.3079,-6.3079,-6.3079,-6.3079,-6.3079,-6.3079,-6.3079,-6.3079,-6.3079,-6.3079,-6.3079,-6.3079,-6.3079,-6.3079,-6.3079,-6.3079,-6.3079,-6.3079,-6.3079,-6.3258,-6.3887,-6.4006,-6.4455,-6.5772,-6.6011,-6.6251,-6.6879,-6.6999,-6.6999,-6.6999,-6.6999,-6.6999,-6.6999,-6.6999,-6.643,-6.5114,-6.5024,-6.4695,-6.4006,-6.3408,-6.3079,-6.3079,-6.3079,-6.3079,-6.3079,-6.3079,-6.3079,-6.3079,-6.3079,-6.3079,-2.5726,-2.6928,-2.9103,-3.1126,-3.4831,-3.8857,-4.2334,-4.3663,-4.5382,-4.9749,-4.9068,-4.7668,-4.7446,-4.7384,-4.7589,-4.8202,-4.9787,-5.1229,-5.2068,-5.2377,-5.2744,-5.3402,-5.4072,-5.4488,-5.4488,-5.4929,-5.5179,-5.5179,-5.5179,-5.5179,-5.5179,-5.5179,-5.5179,-5.5179,-5.5179,-5.5299,-5.5457,-5.5957,-5.6308,-5.6436,-5.7094,-5.7752,-5.8441,-5.889,-5.9099,-5.9099,-5.9099,-5.9099,-5.9099,-5.9099,-5.9099,-5.9099,-5.9099,-5.9219,-5.9458,-5.9907,-6.0206,-6.0475,-6.1164,-6.1403,-6.1523,-6.2181,-6.2391,-6.248,-6.2929,-6.3079,-6.3079,-6.3079,-6.3079,-6.3079,-6.3079,-6.3079,-6.3079,-6.3079,-6.3079,-6.3079,-6.3079,-6.3079,-6.3079,-6.3079,-6.3079,-6.3139,-6.3318,-6.3707,-6.4126,-6.4545,-6.4994,-6.5562,-6.6221,-6.67,-6.6999,-6.6999,-6.6999,-6.6999,-6.6999,-6.658,-6.6131,-6.5742,-6.4844,-6.4006,-6.3378,-6.3169,-6.3079,-6.3079,-6.3079,-6.3079,-6.3079,-6.3079,-6.3079,-6.3079,-6.3079,-6.3079,-2.6882,-2.8652,-3.1161,-3.381,-3.7345,-4.1198,-4.501,-4.658,-4.8019,-5.0633,-4.9893,-4.8755,-4.8993,-4.8864,-4.8802,-4.9027,-5.0241,-5.1336,-5.1717,-5.2038,-5.2369,-5.278,-5.3391,-5.3794,-5.379,-5.4428,-5.4818,-5.4818,-5.5039,-5.5179,-5.5179,-5.5179,-5.5179,-5.5179,-5.5179,-5.5179,-5.5179,-5.5598,-5.5777,-5.5777,-5.6436,-5.6944,-5.7393,-5.8291,-5.871,-5.874,-5.8979,-5.9099,-5.9099,-5.9099,-5.9099,-5.9099,-5.9099,-5.9099,-5.9159,-5.9548,-5.9697,-5.9787,-6.0475,-6.0715,-6.0805,-6.1493,-6.1702,-6.1822,-6.248,-6.269,-6.275,-6.3019,-6.3079,-6.3079,-6.3079,-6.3079,-6.3079,-6.3079,-6.3079,-6.3079,-6.3079,-6.3079,-6.3079,-6.3079,-6.3079,-6.3079,-6.3079,-6.3378,-6.3707,-6.3947,-6.4575,-6.5173,-6.5562,-6.5951,-6.6221,-6.6221,-6.6221,-6.6221,-6.6221,-6.5862,-6.5503,-6.5233,-6.4455,-6.3707,-6.3109,-6.3079,-6.3079,-6.3079,-6.3079,-6.3079,-6.3079,-6.3079,-6.3079,-6.3079,-6.3079,-6.3079,-2.951,-3.1781,-3.4173,-3.6896,-3.9835,-4.3148,-4.7443,-4.9296,-5.0279,-5.0922,-5.0092,-4.9499,-5.0056,-4.9704,-4.9551,-5.0097,-5.0773,-5.1229,-5.1229,-5.1717,-5.2124,-5.2121,-5.2687,-5.3109,-5.3118,-5.3743,-5.4101,-5.4101,-5.4699,-5.5119,-5.5089,-5.5149,-5.5179,-5.5179,-5.5179,-5.5179,-5.5179,-5.5179,-5.5179,-5.5209,-5.5807,-5.6077,-5.6137,-5.7423,-5.8052,-5.8171,-5.883,-5.9099,-5.9099,-5.9099,-5.9099,-5.9099,-5.9099,-5.9099,-5.9099,-5.9099,-5.9099,-5.9189,-5.9787,-5.9997,-6.0116,-6.0805,-6.1014,-6.1134,-6.1822,-6.2061,-6.2211,-6.281,-6.3019,-6.3079,-6.3079,-6.3079,-6.3079,-6.3079,-6.3079,-6.3079,-6.3079,-6.3079,-6.3079,-6.3079,-6.3079,-6.3079,-6.3079,-6.3079,-6.3258,-6.3827,-6.4485,-6.4934,-6.4934,-6.4934,-6.5024,-6.5024,-6.5024,-6.5024,-6.5024,-6.4964,-6.4665,-6.4036,-6.3947,-6.3647,-6.3109,-6.3079,-6.3079,-6.3079,-6.3079,-6.3079,-6.3079,-6.3079,-6.3079,-6.3079,-6.3079,-6.3079,-2.7369,-3.0456,-3.4382,-3.8063,-4.2917,-4.7219,-4.8729,-4.9307,-4.9522,-4.9681,-4.9477,-4.9321,-4.9499,-4.9756,-5.0041,-5.0152,-5.0773,-5.1229,-5.1229,-5.1336,-5.1426,-5.1421,-5.2021,-5.2416,-5.239,-5.3019,-5.3403,-5.3403,-5.4042,-5.441,-5.4411,-5.493,-5.5179,-5.5179,-5.5179,-5.5179,-5.5179,-5.5179,-5.5179,-5.5179,-5.5329,-5.5418,-5.5448,-5.6735,-5.7603,-5.8171,-5.883,-5.9099,-5.9099,-5.9099,-5.9099,-5.9099,-5.9099,-5.9099,-5.9099,-5.9099,-5.9099,-5.9129,-5.9279,-5.9308,-5.9428,-6.0086,-6.0296,-6.0446,-6.1104,-6.1672,-6.2121,-6.2271,-6.269,-6.3079,-6.3079,-6.3079,-6.3079,-6.3079,-6.3079,-6.3079,-6.3079,-6.3079,-6.3079,-6.3079,-6.3079,-6.3079,-6.3079,-6.3079,-6.3109,-6.3258,-6.3827,-6.4216,-6.4216,-6.4695,-6.5024,-6.5024,-6.5024,-6.5024,-6.5024,-6.4545,-6.4156,-6.4006,-6.3558,-6.3228,-6.3079,-6.3079,-6.3079,-6.3079,-6.3079,-6.3079,-6.3079,-6.3079,-6.3079,-6.3079,-6.3079,-6.3079,-2.8225,-3.1442,-3.5274,-4.0816,-4.5297,-4.8387,-4.8725,-4.882,-4.8715,-4.8404,-4.8625,-4.8892,-4.9233,-4.9787,-5.0211,-5.0211,-5.0773,-5.1229,-5.1229,-5.1229,-5.1229,-5.1229,-5.1503,-5.1717,-5.1717,-5.2312,-5.2742,-5.2742,-5.3368,-5.3713,-5.3729,-5.4381,-5.473,-5.473,-5.5029,-5.5179,-5.5179,-5.5179,-5.5179,-5.5179,-5.5179,-5.5179,-5.5209,-5.6196,-5.7004,-5.7663,-5.8351,-5.865,-5.865,-5.8979,-5.9099,-5.9099,-5.9099,-5.9099,-5.9099,-5.9099,-5.9099,-5.9099,-5.9099,-5.9099,-5.9159,-5.9518,-5.9608,-5.9727,-6.0416,-6.0864,-6.1283,-6.1912,-6.2331,-6.269,-6.2989,-6.3079,-6.3079,-6.3079,-6.3079,-6.3079,-6.3079,-6.3079,-6.3079,-6.3079,-6.3079,-6.3079,-6.3079,-6.3079,-6.3079,-6.3079,-6.3348,-6.3558,-6.3558,-6.3857,-6.4096,-6.4096,-6.4096,-6.4096,-6.4096,-6.3767,-6.3558,-6.3558,-6.3258,-6.3079,-6.3079,-6.3079,-6.3079,-6.3079,-6.3079,-6.3079,-6.3079,-6.3079,-6.3079,-6.3079,-6.3079,-6.3079,-2.8972,-3.2788,-3.6746,-4.3588,-4.6625,-4.8028,-4.8243,-4.8223,-4.7959,-4.7412,-4.7826,-4.8487,-4.9038,-4.9664,-5.0041,-5.0041,-5.0598,-5.102,-5.102,-5.1139,-5.1229,-5.1229,-5.1229,-5.1229,-5.1229,-5.1686,-5.2038,-5.2038,-5.2635,-5.3008,-5.3056,-5.3691,-5.4042,-5.4042,-5.4551,-5.491,-5.5029,-5.5029,-5.5089,-5.5179,-5.5179,-5.5179,-5.5209,-5.5748,-5.6346,-5.6974,-5.7663,-5.7932,-5.7992,-5.865,-5.8949,-5.8949,-5.9069,-5.9099,-5.9099,-5.9099,-5.9099,-5.9099,-5.9099,-5.9099,-5.9099,-5.9099,-5.9099,-5.9189,-5.9757,-5.9997,-6.0356,-6.1583,-6.2002,-6.2241,-6.2899,-6.3079,-6.3079,-6.3079,-6.3079,-6.3079,-6.3079,-6.3079,-6.3079,-6.3079,-6.3079,-6.3079,-6.3079,-6.3079,-6.3079,-6.3079,-6.3079,-6.3079,-6.3079,-6.3079,-6.3079,-6.3079,-6.3079,-6.3079,-6.3079,-6.3079,-6.3079,-6.3079,-6.3079,-6.3079,-6.3079,-6.3079,-6.3079,-6.3079,-6.3079,-6.3079,-6.3079,-6.3079,-6.3079,-6.3079,-6.3079,-6.3079,-2.5452,-3.2015,-3.9068,-4.4068,-4.5938,-4.686,-4.8068,-4.7835,-4.7412,-4.7309,-4.7826,-4.836,-4.841,-4.8991,-4.9438,-4.9438,-4.99,-5.0333,-5.0333,-5.0857,-5.1229,-5.1229,-5.1229,-5.1229,-5.1229,-5.1259,-5.1336,-5.1336,-5.1959,-5.2348,-5.2354,-5.2935,-5.3324,-5.3324,-5.3414,-5.3743,-5.4341,-5.4341,-5.464,-5.5179,-5.5179,-5.5179,-5.5179,-5.5269,-5.5688,-5.6316,-5.6944,-5.7244,-5.7304,-5.7962,-5.8261,-5.8321,-5.889,-5.9099,-5.9099,-5.9099,-5.9099,-5.9099,-5.9099,-5.9099,-5.9099,-5.9099,-5.9099,-5.9129,-5.9219,-5.9638,-6.0236,-6.1014,-6.1642,-6.2241,-6.2899,-6.3079,-6.3079,-6.3079,-6.3079,-6.3079,-6.3079,-6.3079,-6.3079,-6.3079,-6.3079,-6.3079,-6.3079,-6.3079,-6.3079,-6.3079,-6.3079,-6.3079,-6.3079,-6.3079,-6.3079,-6.3079,-6.3079,-6.3079,-6.3079,-6.3079,-6.3079,-6.3079,-6.3079,-6.3079,-6.3079,-6.3079,-6.3079,-6.3079,-6.3079,-6.3079,-6.3079,-6.3079,-6.3079,-6.3079,-6.3079,-6.3079,-2.6779,-3.3008,-3.8862,-4.3148,-4.4679,-4.5402,-4.6407,-4.638,-4.628,-4.6661,-4.697,-4.7309,-4.7649,-4.827,-4.8762,-4.8725,-4.9268,-4.9704,-4.9704,-5.0242,-5.0614,-5.0614,-5.0943,-5.1229,-5.1229,-5.1229,-5.1229,-5.1229,-5.1481,-5.1661,-5.1648,-5.2276,-5.2636,-5.2636,-5.2995,-5.3324,-5.3623,-5.4012,-5.4551,-5.5179,-5.5179,-5.5179,-5.5179,-5.5179,-5.5359,-5.5658,-5.6286,-5.6585,-5.6615,-5.7274,-5.7782,-5.8141,-5.8441,-5.877,-5.9099,-5.9099,-5.9099,-5.9099,-5.9099,-5.9099,-5.9099,-5.9099,-5.9099,-5.9099,-5.9099,-5.9308,-5.9668,-6.0356,-6.1014,-6.1702,-6.2361,-6.281,-6.3079,-6.3079,-6.3079,-6.3079,-6.3079,-6.3079,-6.3079,-6.3079,-6.3079,-6.3079,-6.3079,-6.3079,-6.3079,-6.3079,-6.3079,-6.3079,-6.3079,-6.3079,-6.3079,-6.3079,-6.3079,-6.3079,-6.3079,-6.3079,-6.3079,-6.3079,-6.3079,-6.3079,-6.3079,-6.3079,-6.3079,-6.3079,-6.3079,-6.3079,-6.3079,-6.3079,-6.3079,-6.3079,-6.3079,-6.3079,-2.7454,-3.2333,-3.6403,-4.0561,-4.2438,-4.3546,-4.4579,-4.4915,-4.523,-4.5913,-4.6215,-4.6456,-4.697,-4.7619,-4.8066,-4.8073,-4.8625,-4.9044,-4.906,-4.9583,-5.0002,-5.0002,-5.0421,-5.072,-5.072,-5.087,-5.0913,-5.0913,-5.1109,-5.1229,-5.1229,-5.1678,-5.1947,-5.1947,-5.2426,-5.2755,-5.2935,-5.3593,-5.4281,-5.494,-5.494,-5.5029,-5.5179,-5.5179,-5.5179,-5.5209,-5.5718,-5.5927,-5.5957,-5.6615,-5.7154,-5.7663,-5.7992,-5.8411,-5.889,-5.9039,-5.9099,-5.9099,-5.9099,-5.9099,-5.9099,-5.9099,-5.9099,-5.9099,-5.9099,-5.9099,-5.9249,-5.9907,-6.0565,-6.1253,-6.1942,-6.26,-6.3079,-6.3079,-6.3079,-6.3079,-6.3079,-6.3079,-6.3079,-6.3079,-6.3079,-6.3079,-6.3079,-6.3079,-6.3079,-6.3079,-6.3079,-6.3079,-6.3079,-6.3079,-6.3079,-6.3079,-6.3079,-6.3079,-6.3079,-6.3079,-6.3079,-6.3079,-6.3079,-6.3079,-6.3079,-6.3079,-6.3079,-6.3079,-6.3079,-6.3079,-6.3079,-6.3079,-6.3079,-6.3079,-6.3079,-6.3079,-2.4969,-2.7935,-3.1116,-3.5705,-3.8745,-4.1113,-4.2952,-4.3878,-4.4539,-4.5202,-4.5878,-4.631,-4.6353,-4.6897,-4.7339,-4.7369,-4.7908,-4.8371,-4.8327,-4.894,-4.9359,-4.9359,-4.9389,-4.9419,-4.9419,-4.9942,-5.0255,-5.0255,-5.0823,-5.1229,-5.1229,-5.1259,-5.1259,-5.1259,-5.1319,-5.1618,-5.2247,-5.2905,-5.3593,-5.4251,-5.4251,-5.4581,-5.5179,-5.5179,-5.5179,-5.5179,-5.5239,-5.5239,-5.5299,-5.5957,-5.6308,-5.6406,-5.7633,-5.8141,-5.8261,-5.889,-5.9099,-5.9099,-5.9099,-5.9099,-5.9099,-5.9099,-5.9099,-5.9099,-5.9099,-5.9099,-5.9249,-5.9907,-6.0565,-6.1253,-6.1942,-6.26,-6.3079,-6.3079,-6.3079,-6.3079,-6.3079,-6.3079,-6.3079,-6.3079,-6.3079,-6.3079,-6.3079,-6.3079,-6.3079,-6.3079,-6.3079,-6.3079,-6.3079,-6.3079,-6.3079,-6.3079,-6.3079,-6.3079,-6.3079,-6.3079,-6.3079,-6.3079,-6.3079,-6.3079,-6.3079,-6.3079,-6.3079,-6.3079,-6.3079,-6.3079,-6.3079,-6.3079,-6.3079,-6.3079,-6.3079,-6.3079,-2.3847,-2.6681,-2.9853,-3.3613,-3.6257,-3.8525,-4.093,-4.2258,-4.3389,-4.4458,-4.484,-4.5147,-4.5585,-4.6561,-4.7309,-4.7309,-4.7489,-4.7668,-4.7668,-4.8237,-4.8626,-4.8626,-4.906,-4.9299,-4.9299,-4.9494,-4.9613,-4.9613,-5.0212,-5.0554,-5.0554,-5.099,-5.1229,-5.1229,-5.1229,-5.1528,-5.2187,-5.2426,-5.2875,-5.3563,-5.3982,-5.4341,-5.4581,-5.4999,-5.5179,-5.5179,-5.5179,-5.5179,-5.5209,-5.5448,-5.5777,-5.6308,-5.7124,-5.7723,-5.8201,-5.886,-5.9099,-5.9099,-5.9099,-5.9099,-5.9099,-5.9099,-5.9099,-5.9099,-5.9099,-5.9099,-5.9159,-5.9398,-6.0266,-6.1164,-6.1403,-6.2271,-6.3079,-6.3079,-6.3079,-6.3079,-6.3079,-6.3079,-6.3079,-6.3079,-6.3079,-6.3079,-6.3079,-6.3079,-6.2929,-6.251,-6.281,-6.2929,-6.251,-6.281,-6.3079,-6.3079,-6.3079,-6.3079,-6.3079,-6.3079,-6.3079,-6.3079,-6.3079,-6.3079,-6.3079,-6.3079,-6.3079,-6.3079,-6.3079,-6.3079,-6.3079,-6.3079,-6.3079,-6.3079,-6.3079,-6.3079,-2.25,-2.4972,-2.8044,-3.1368,-3.3352,-3.5487,-3.9186,-4.0744,-4.1794,-4.3359,-4.3988,-4.4429,-4.4899,-4.5855,-4.6711,-4.695,-4.716,-4.7309,-4.7309,-4.7668,-4.7967,-4.7967,-4.8356,-4.864,-4.864,-4.8805,-4.897,-4.897,-4.9553,-5.0002,-5.0196,-5.0614,-5.099,-5.1199,-5.1229,-5.1439,-5.1858,-5.1858,-5.2187,-5.2845,-5.3324,-5.3773,-5.4221,-5.467,-5.497,-5.5179,-5.5179,-5.5179,-5.5179,-5.5179,-5.5448,-5.5897,-5.6526,-5.7184,-5.7872,-5.853,-5.8919,-5.9099,-5.9099,-5.9099,-5.9099,-5.9099,-5.9099,-5.9099,-5.9099,-5.9099,-5.9099,-5.9099,-6.0086,-6.1104,-6.1104,-6.2091,-6.3079,-6.3079,-6.3079,-6.3079,-6.3079,-6.3079,-6.3079,-6.3079,-6.3079,-6.3079,-6.3079,-6.3079,-6.2929,-6.248,-6.278,-6.2929,-6.248,-6.281,-6.3079,-6.3079,-6.3079,-6.3079,-6.3079,-6.3079,-6.3079,-6.3079,-6.3079,-6.3079,-6.3079,-6.3079,-6.3079,-6.3079,-6.3079,-6.3079,-6.3079,-6.3079,-6.3079,-6.3079,-6.3079,-6.3079,0.0,0.0,0.0,-2.8658,-2.9934,-3.1928,-3.7814,-3.917,-3.9778,-4.1843,-4.324,-4.4118,-4.4236,-4.4773,-4.5454,-4.6142,-4.683,-4.7279,-4.7279,-4.7309,-4.7309,-4.7309,-4.7309,-4.7309,-4.7309,-4.7878,-4.8267,-4.8267,-4.891,-4.9523,-5.0106,-5.0166,-5.0495,-5.1169,-5.1199,-5.1229,-5.1229,-5.1229,-5.1528,-5.2187,-5.2187,-5.2875,-5.4162,-5.4192,-5.4551,-5.5149,-5.5179,-5.5179,-5.5179,-5.5179,-5.5179,-5.5269,-5.5927,-5.6526,-5.7154,-5.7872,-5.853,-5.9069,-5.9099,-5.9099,-5.9099,-5.9099,-5.9099,-5.9099,-5.9099,-5.9099,-5.9099,-5.9099,-6.0086,-6.1134,-6.1164,-6.2121,-6.3079,-6.3079,-6.3079,-6.3079,-6.3079,-6.3079,-6.3079,-6.3079,-6.3079,-6.3079,-6.3079,-6.3079,-6.3079,-6.3049,-6.3049,-6.3049,-6.3049,-6.3049,-6.3049,-6.3079,-6.3079,-6.3079,-6.3079,-6.3079,-6.3079,-6.3079,-6.3079,-6.3079,-6.3079,-6.3079,-6.3079,-6.3079,-6.3079,-6.3079,-6.3079,-6.3079,-6.3079,-6.3079,-6.3079,-6.3079,-2.1394,0.0,0.0,0.0,0.0,0.0,-3.2164,-3.3318,-3.4794,-3.8672,-3.939,-4.0066,-4.2479,-4.3409,-4.4077,-4.4766,-4.5843,-4.6591,-4.6591,-4.701,-4.7309,-4.7309,-4.7309,-4.7309,-4.7309,-4.7459,-4.7578,-4.7578,-4.8177,-4.8626,-4.8805,-4.9687,-5.0285,-5.0465,-5.0913,-5.1229,-5.1229,-5.1229,-5.1319,-5.1498,-5.1977,-5.2396,-5.2785,-5.3773,-5.4311,-5.4491,-5.497,-5.5179,-5.5179,-5.5179,-5.5179,-5.5269,-5.5927,-5.6286,-5.6555,-5.7693,-5.8231,-5.8471,-5.8949,-5.9099,-5.9099,-5.9099,-5.9099,-5.9099,-5.9099,-5.9099,-5.9099,-5.9099,-6.0086,-6.1343,-6.2301,-6.281,-6.3079,-6.3079,-6.3079,-6.3079,-6.3079,-6.3079,-6.3079,-6.3079,-6.3079,-6.3079,-6.3079,-6.3079,-6.2929,-6.245,-6.2361,-6.2361,-6.2361,-6.2361,-6.254,-6.3019,-6.3079,-6.3079,-6.3079,-6.3079,-6.3079,-6.3079,-6.3079,-6.3079,-6.3079,-6.3079,-6.3079,-6.3079,-6.3079,-6.3079,-6.3079,-6.3079,-6.3079,-6.3079,-6.3079,-6.3079,-2.2667,-2.3716,-2.5214,-2.6059,0.0,0.0,-3.1116,-3.1801,-3.2913,-3.7813,-3.8517,-3.8975,-4.1528,-4.2043,-4.2402,-4.3359,-4.4407,-4.5274,-4.5813,-4.6232,-4.6561,-4.686,-4.689,-4.701,-4.7279,-4.7309,-4.7309,-4.7309,-4.7668,-4.7997,-4.8267,-4.9254,-4.9942,-5.0196,-5.0554,-5.093,-5.1229,-5.1229,-5.1229,-5.1229,-5.1618,-5.1947,-5.2217,-5.3025,-5.3683,-5.4221,-5.461,-5.494,-5.5179,-5.5179,-5.5179,-5.5239,-5.5598,-5.5927,-5.6286,-5.7334,-5.7872,-5.8231,-5.889,-5.9099,-5.9099,-5.9099,-5.9099,-5.9099,-5.9099,-5.9099,-5.9099,-5.9099,-6.0086,-6.1343,-6.2391,-6.2869,-6.3079,-6.3079,-6.3079,-6.3079,-6.3079,-6.3079,-6.3079,-6.3079,-6.3079,-6.3079,-6.3079,-6.3079,-6.2959,-6.257,-6.251,-6.251,-6.251,-6.251,-6.275,-6.3408,-6.3468,-6.3588,-6.3857,-6.3887,-6.3887,-6.3887,-6.3887,-6.3887,-6.3887,-6.3617,-6.3468,-6.3468,-6.3199,-6.3079,-6.3079,-6.3079,-6.3079,-6.3079,-6.3079,-6.3079,-2.4497,-2.4985,-2.6331,-2.787,-2.619,0.0,-3.19,-3.2069,-3.2352,-3.7307,-3.8301,-3.8836,-4.0441,-4.0307,-4.0367,-4.1662,-4.2581,-4.3629,-4.5005,-4.5244,-4.5514,-4.6142,-4.6202,-4.6441,-4.701,-4.716,-4.7189,-4.7189,-4.7279,-4.7549,-4.8147,-4.8805,-4.9434,-4.9956,-5.0106,-5.0465,-5.1063,-5.1169,-5.1229,-5.1229,-5.1229,-5.1528,-5.2097,-5.2157,-5.2905,-5.4102,-5.4192,-5.4581,-5.5179,-5.5179,-5.5179,-5.5179,-5.5179,-5.5538,-5.6188,-5.6825,-5.7483,-5.8112,-5.886,-5.9099,-5.9099,-5.9099,-5.9099,-5.9099,-5.9099,-5.9099,-5.9129,-5.9189,-6.0086,-6.1164,-6.1912,-6.254,-6.2989,-6.3049,-6.3079,-6.3079,-6.3079,-6.3079,-6.3079,-6.3079,-6.3079,-6.3079,-6.3079,-6.3079,-6.3079,-6.3079,-6.3019,-6.2989,-6.3079,-6.3019,-6.3228,-6.3917,-6.4006,-6.4276,-6.4964,-6.5024,-6.5024,-6.5024,-6.5024,-6.4994,-6.4904,-6.4336,-6.3977,-6.3887,-6.3348,-6.3079,-6.3079,-6.3079,-6.3079,-6.3079,-6.3079,-6.3079,-2.6807,-2.7403,-2.7732,-2.6474,-2.6925,0.0,-2.6029,-2.6673,-2.8302,-3.0984,-3.1482,-3.2556,-3.6031,-3.6985,-3.7494,-3.8242,-4.0277,-4.2402,-4.4257,-4.4975,-4.5334,-4.5484,-4.5514,-4.5544,-4.5663,-4.6202,-4.6531,-4.6531,-4.701,-4.7369,-4.7489,-4.8117,-4.8536,-4.8656,-4.9703,-5.0255,-5.0375,-5.096,-5.1229,-5.1229,-5.1229,-5.1289,-5.1439,-5.1947,-5.2636,-5.3414,-5.3982,-5.4581,-5.5179,-5.5179,-5.5179,-5.5179,-5.5179,-5.5269,-5.5508,-5.6675,-5.7184,-5.7483,-5.868,-5.9099,-5.9099,-5.9099,-5.9099,-5.9099,-5.9099,-5.9099,-5.9219,-5.9727,-6.0086,-6.0565,-6.1792,-6.2181,-6.2421,-6.2959,-6.3079,-6.3079,-6.3079,-6.3079,-6.3079,-6.3079,-6.3079,-6.3079,-6.3079,-6.3079,-6.3079,-6.3079,-6.263,-6.248,-6.3019,-6.26,-6.272,-6.3887,-6.4006,-6.4276,-6.4964,-6.5024,-6.5024,-6.5024,-6.5024,-6.4784,-6.4216,-6.4066,-6.3767,-6.3258,-6.3139,-6.3079,-6.3079,-6.3079,-6.3079,-6.3079,-6.3079,-6.3079,-2.8692,-2.8858,-2.8915,-2.8225,-2.7813,0.0,0.0,-2.6802,-2.7654,-3.1279,-3.0735,-3.073,-3.4322,-3.4472,-3.4562,-3.6207,-3.8123,-3.9978,-4.1654,-4.3,-4.3958,-4.4287,-4.4317,-4.4466,-4.4766,-4.5424,-4.5963,-4.6249,-4.6621,-4.695,-4.7279,-4.7608,-4.7938,-4.8267,-4.9224,-4.9912,-5.0196,-5.0853,-5.1229,-5.1229,-5.1229,-5.1229,-5.1229,-5.1558,-5.2067,-5.2725,-5.3414,-5.4072,-5.473,-5.5059,-5.5179,-5.5179,-5.5179,-5.5179,-5.5299,-5.6286,-5.6825,-5.7244,-5.8261,-5.883,-5.9099,-5.9099,-5.9099,-5.9099,-5.9099,-5.9099,-5.9189,-5.9518,-5.9817,-6.0326,-6.1343,-6.1852,-6.2271,-6.2929,-6.3079,-6.3079,-6.3079,-6.3079,-6.3079,-6.3079,-6.3079,-6.3079,-6.3079,-6.3079,-6.3079,-6.3079,-6.278,-6.272,-6.3049,-6.278,-6.2959,-6.3887,-6.4306,-6.4784,-6.5473,-6.5832,-6.6011,-6.6011,-6.6011,-6.5862,-6.5503,-6.4844,-6.4066,-6.3109,-6.3079,-6.3079,-6.3079,-6.3079,-6.3079,-6.3079,-6.3079,-6.3079,-3.0688,-3.0542,-3.0661,-3.0409,-2.9202,-2.8351,0.0,0.0,0.0,-3.2198,-3.0969,-3.0071,-3.2856,-3.2048,-3.169,-3.3993,-3.5639,-3.7045,-3.8123,-3.9858,-4.1474,-4.2602,-4.303,-4.3389,-4.3898,-4.4317,-4.4975,-4.6052,-4.5783,-4.6022,-4.707,-4.713,-4.7429,-4.8087,-4.8745,-4.9404,-4.9986,-5.069,-5.1079,-5.1229,-5.1229,-5.1229,-5.1229,-5.1229,-5.1588,-5.2247,-5.2905,-5.3563,-5.4251,-5.491,-5.5179,-5.5179,-5.5179,-5.5179,-5.5269,-5.5927,-5.6555,-5.7184,-5.7872,-5.856,-5.9099,-5.9099,-5.9099,-5.9099,-5.9099,-5.9099,-5.9099,-5.9099,-5.9488,-6.0086,-6.0894,-6.1493,-6.2121,-6.2899,-6.3079,-6.3079,-6.3079,-6.3079,-6.3079,-6.3079,-6.3079,-6.3079,-6.3079,-6.3079,-6.3079,-6.3079,-6.3079,-6.3079,-6.3079,-6.3079,-6.3318,-6.3947,-6.4605,-6.5293,-6.5951,-6.661,-6.6999,-6.6999,-6.6999,-6.6939,-6.6819,-6.5533,-6.4276,-6.3109,-6.3079,-6.3079,-6.3079,-6.3079,-6.3079,-6.3079,-6.3079,-6.3079,-3.3412,-3.3921,-3.3983,-3.0573,-3.1658,-3.2323,-2.7306,0.0,-2.891,-2.775,0.0,-2.8124,-2.9086,0.0,0.0,-3.0103,-3.2317,-3.3993,-3.4143,-3.54,-3.7404,-4.0397,-4.1811,-4.256,-4.262,-4.2171,-4.2821,-4.5214,-4.3808,-4.3868,-4.6322,-4.6399,-4.6741,-4.7399,-4.8057,-4.8716,-4.9419,-5.0032,-5.0584,-5.1229,-5.1229,-5.1229,-5.1229,-5.1229,-5.1588,-5.2247,-5.2905,-5.3563,-5.4251,-5.491,-5.5179,-5.5179,-5.5179,-5.5179,-5.5269,-5.5927,-5.6555,-5.7184,-5.7872,-5.856,-5.9099,-5.9099,-5.9099,-5.9099,-5.9099,-5.9099,-5.9099,-5.9099,-5.9159,-5.9518,-6.0775,-6.1164,-6.1553,-6.278,-6.3079,-6.3079,-6.3079,-6.3079,-6.3079,-6.3079,-6.3079,-6.3079,-6.3079,-6.3079,-6.3079,-6.3079,-6.3079,-6.3079,-6.3079,-6.3079,-6.3318,-6.3947,-6.4605,-6.5293,-6.5951,-6.661,-6.6999,-6.6999,-6.6999,-6.6729,-6.6131,-6.4844,-6.3797,-6.3079,-6.3079,-6.3079,-6.3079,-6.3079,-6.3079,-6.3079,-6.3079,-6.3079,-3.3783,-3.4482,-3.4813,-3.1984,-3.2313,-3.2374,-2.8758,-2.7896,-2.7951,-2.8269,0.0,0.0,0.0,0.0,0.0,0.0,-3.0011,-3.124,-3.124,-3.2677,-3.4861,-3.7793,-3.7978,-3.8427,-3.9955,-4.0187,-4.1175,-4.3459,-4.25,-4.294,-4.5574,-4.6112,-4.6621,-4.7279,-4.7938,-4.8416,-4.873,-4.9733,-5.0315,-5.0614,-5.0973,-5.1229,-5.1229,-5.1229,-5.1379,-5.1678,-5.2336,-5.2995,-5.3653,-5.4341,-5.485,-5.5179,-5.5179,-5.5179,-5.5209,-5.5508,-5.6017,-5.6645,-5.7304,-5.7962,-5.859,-5.8979,-5.9099,-5.9099,-5.9099,-5.9099,-5.9099,-5.9099,-5.9099,-5.9428,-6.0775,-6.1104,-6.1433,-6.275,-6.3079,-6.3079,-6.3079,-6.3079,-6.3079,-6.3079,-6.3079,-6.3079,-6.3079,-6.3079,-6.3079,-6.3079,-6.3079,-6.3079,-6.3079,-6.3079,-6.3318,-6.3947,-6.4605,-6.5293,-6.5951,-6.661,-6.6999,-6.6999,-6.6999,-6.652,-6.5473,-6.4904,-6.4126,-6.3109,-6.3079,-6.3079,-6.3079,-6.3079,-6.3079,-6.3079,-6.3079,-6.3079,-3.4964,-3.5427,-3.5454,-3.3095,-3.2521,-3.188,-2.9581,-2.8344,-2.8038,-2.9352,-2.8487,0.0,0.0,0.0,-2.7141,-2.7794,0.0,-2.9262,-2.9082,-3.0103,-3.1958,-3.4801,-3.507,-3.5998,-3.8452,-3.8482,-3.932,-4.1692,-4.0763,-4.1414,-4.4586,-4.5394,-4.613,-4.701,-4.7668,-4.8087,-4.8297,-4.9404,-5.0016,-5.0196,-5.09,-5.1229,-5.1229,-5.1229,-5.1229,-5.1259,-5.1917,-5.2576,-5.3234,-5.3922,-5.461,-5.5179,-5.5179,-5.5179,-5.5179,-5.5179,-5.5598,-5.6308,-5.6885,-5.7663,-5.8471,-5.8949,-5.9099,-5.9099,-5.9099,-5.9099,-5.9099,-5.9099,-5.9099,-5.9428,-6.0775,-6.1104,-6.1433,-6.275,-6.3079,-6.3079,-6.3079,-6.3079,-6.3079,-6.3079,-6.3079,-6.3079,-6.3079,-6.3079,-6.3079,-6.3079,-6.3079,-6.3079,-6.3079,-6.3079,-6.3318,-6.3947,-6.4605,-6.5293,-6.5951,-6.661,-6.6999,-6.6999,-6.6999,-6.649,-6.5353,-6.5114,-6.4485,-6.3348,-6.3169,-6.3079,-6.3079,-6.3079,-6.3079,-6.3079,-6.3079,-6.3079,-3.8232,-3.7793,-3.6567,-3.3302,-3.2507,-3.1647,-2.8394,-2.9082,-3.0223,-2.9711,-3.1031,-3.2079,-3.1511,-3.0823,-2.9953,-2.8757,-2.8607,0.0,0.0,-2.7165,-2.8008,-3.1271,-3.4502,-3.7195,-3.92,-3.7105,-3.6985,-4.0217,-3.8093,-3.8631,-4.311,-4.4018,-4.4975,-4.6279,-4.698,-4.7638,-4.8267,-4.9,-4.9613,-5.0196,-5.09,-5.1229,-5.1229,-5.1229,-5.1229,-5.1259,-5.1917,-5.2576,-5.3234,-5.3922,-5.461,-5.5179,-5.5179,-5.5179,-5.5179,-5.5179,-5.5598,-5.6308,-5.6885,-5.7962,-5.9069,-5.9099,-5.9099,-5.9099,-5.9099,-5.9099,-5.9099,-5.9099,-5.9099,-5.9428,-6.0775,-6.1104,-6.1433,-6.275,-6.3079,-6.3079,-6.3079,-6.3079,-6.3079,-6.3079,-6.3079,-6.3079,-6.3079,-6.3079,-6.3079,-6.3079,-6.3079,-6.3079,-6.3079,-6.3079,-6.3318,-6.3947,-6.4605,-6.5293,-6.5951,-6.661,-6.6999,-6.6999,-6.6999,-6.67,-6.6011,-6.5353,-6.4695,-6.3977,-6.3378,-6.3079,-6.3079,-6.3079,-6.3079,-6.3079,-6.3079,-6.3079,-3.8411,-3.9208,-3.9154,-3.54,-3.4494,-3.3521,-2.9769,-3.0082,-3.0853,-2.9831,-3.148,-3.2826,-3.172,-3.0943,-3.0223,-2.9385,-2.8876,-2.7919,0.0,-2.4687,-2.5249,-2.8517,-3.1839,-3.3754,-3.3544,-3.4741,-3.5968,-3.7075,-3.7135,-3.8542,-4.1863,-4.306,-4.4456,-4.6219,-4.6488,-4.698,-4.7638,-4.876,-4.9419,-4.9613,-5.069,-5.1229,-5.1229,-5.1229,-5.1229,-5.1229,-5.1439,-5.2187,-5.3204,-5.3443,-5.4192,-5.5179,-5.5179,-5.5179,-5.5179,-5.5179,-5.5329,-5.5688,-5.6735,-5.7992,-5.9099,-5.9099,-5.9099,-5.9099,-5.9099,-5.9099,-5.9099,-5.9099,-5.9099,-5.9308,-6.0206,-6.0775,-6.1343,-6.2211,-6.275,-6.3079,-6.3079,-6.3079,-6.3079,-6.3079,-6.3079,-6.3079,-6.3079,-6.3079,-6.3079,-6.3079,-6.3079,-6.3079,-6.3079,-6.3079,-6.3498,-6.4575,-6.4874,-6.5473,-6.658,-6.6879,-6.6999,-6.6999,-6.6999,-6.67,-6.6041,-6.5802,-6.5144,-6.4006,-6.3797,-6.3498,-6.3079,-6.3079,-6.3079,-6.3079,-6.3079,-6.3079,-3.9748,-4.042,-4.033,-3.7287,-3.637,-3.5283,-3.1775,-3.2199,-3.3006,-3.1898,-3.3215,-3.4502,-3.4321,-3.3006,-3.1629,-3.0761,-2.9684,-2.7859,0.0,-2.3939,-2.4418,-2.6303,-2.9026,-3.0971,-3.1509,-3.2467,-3.3844,-3.5699,-3.5519,-3.6896,-4.0487,-4.1923,-4.3539,-4.5544,-4.604,-4.6651,-4.7309,-4.864,-4.9299,-4.9329,-5.0601,-5.1229,-5.1229,-5.1229,-5.1229,-5.1229,-5.1229,-5.1828,-5.2845,-5.3084,-5.3832,-5.485,-5.5089,-5.5179,-5.5179,-5.5179,-5.5329,-5.5688,-5.6735,-5.7812,-5.88,-5.9039,-5.9099,-5.9099,-5.9099,-5.9099,-5.9099,-5.9099,-5.9099,-5.9249,-5.9907,-6.0595,-6.1283,-6.1942,-6.26,-6.3079,-6.3079,-6.3079,-6.3079,-6.3079,-6.3079,-6.3079,-6.3079,-6.3079,-6.3079,-6.3079,-6.3079,-6.3079,-6.3079,-6.3258,-6.3827,-6.4904,-6.5233,-6.5802,-6.6909,-6.6999,-6.6999,-6.6999,-6.6999,-6.6789,-6.637,-6.6131,-6.5592,-6.4725,-6.4246,-6.3797,-6.3408,-6.3169,-6.3079,-6.3079,-6.3079,-6.3079]},{"header":{"parameterUnit":"m.s-1","parameterCategory":1,"la1":30.6,"la2":29.2853,"lo1":-89.7004,"lo2":-87.6739,"dy":0.0162,"dx":0.0183,"nx":112,"ny":82,"refTime":"2026-02-23T12:00:00:Z","depth":0,"parameterNumber":3,"parameterNumberName":"V-component_of_WINDS"},"data":[0.0,0.0,0.0,0.0,0.0,0.0,0.0,0.0,0.0,0.0,0.0,0.0,0.0,0.0,0.0,0.0,0.0,0.0,0.0,0.0,0.0,0.0,0.0,0.0,0.0,0.0,0.0,0.0,0.0,0.0,0.0,0.0,0.0,0.0,0.0,0.0,0.0,0.0,0.0,0.0,0.0,0.0,0.0,0.0,0.0,0.0,0.0,0.0,0.0,0.0,0.0,0.0,0.0,0.0,0.0,0.0,0.0,0.0,0.0,0.0,0.0,0.0,0.0,0.0,0.0,0.0,0.0,0.0,0.0,0.0,0.0,0.0,0.0,0.0,0.0,0.0,0.0,0.0,0.0,0.0,0.0,0.0,0.0,0.0,0.0,0.0,0.0,0.0,0.0,0.0,-3.1938,-3.3997,-3.8567,-4.1376,-4.13,-4.1681,-3.9647,-3.4349,0.0,0.0,0.0,0.0,0.0,0.0,0.0,0.0,0.0,0.0,0.0,0.0,0.0,0.0,0.0,0.0,0.0,0.0,0.0,0.0,0.0,0.0,0.0,0.0,0.0,0.0,0.0,0.0,0.0,0.0,0.0,0.0,0.0,0.0,0.0,0.0,0.0,0.0,0.0,0.0,0.0,0.0,0.0,0.0,0.0,0.0,0.0,0.0,0.0,0.0,0.0,0.0,0.0,0.0,0.0,0.0,0.0,0.0,0.0,0.0,0.0,0.0,0.0,0.0,0.0,0.0,0.0,0.0,0.0,0.0,0.0,0.0,0.0,0.0,0.0,0.0,0.0,0.0,0.0,0.0,0.0,0.0,0.0,0.0,0.0,0.0,0.0,0.0,0.0,0.0,0.0,0.0,0.0,0.0,0.0,0.0,0.0,0.0,0.0,0.0,0.0,0.0,0.0,0.0,-3.2441,-3.8718,-4.0978,-4.1856,-4.1326,-4.0978,-3.8994,-3.4851,0.0,0.0,0.0,0.0,0.0,0.0,0.0,0.0,0.0,0.0,0.0,0.0,0.0,0.0,0.0,0.0,0.0,0.0,0.0,0.0,0.0,0.0,0.0,0.0,0.0,0.0,0.0,0.0,0.0,0.0,0.0,0.0,0.0,0.0,0.0,0.0,0.0,0.0,0.0,0.0,0.0,0.0,0.0,0.0,0.0,0.0,0.0,0.0,0.0,0.0,0.0,0.0,0.0,0.0,0.0,0.0,0.0,0.0,0.0,0.0,0.0,0.0,0.0,0.0,0.0,0.0,0.0,0.0,0.0,0.0,0.0,0.0,0.0,0.0,0.0,0.0,0.0,0.0,0.0,0.0,0.0,0.0,0.0,0.0,0.0,0.0,0.0,0.0,0.0,0.0,0.0,0.0,0.0,0.0,0.0,0.0,0.0,0.0,0.0,0.0,0.0,0.0,0.0,-3.126,-3.4324,-4.0325,-4.1404,-4.1605,-4.13,-4.0774,-3.8868,-3.4977,-3.2867,0.0,0.0,0.0,0.0,0.0,0.0,0.0,0.0,0.0,0.0,0.0,0.0,0.0,0.0,0.0,0.0,0.0,0.0,0.0,0.0,0.0,0.0,0.0,0.0,0.0,0.0,0.0,0.0,0.0,0.0,0.0,0.0,0.0,0.0,0.0,0.0,0.0,0.0,0.0,0.0,0.0,0.0,0.0,0.0,0.0,0.0,0.0,0.0,0.0,0.0,0.0,0.0,0.0,0.0,0.0,0.0,0.0,0.0,0.0,0.0,0.0,0.0,0.0,0.0,0.0,0.0,0.0,0.0,0.0,0.0,0.0,0.0,0.0,0.0,0.0,0.0,0.0,0.0,0.0,0.0,0.0,0.0,0.0,0.0,0.0,0.0,0.0,0.0,0.0,0.0,0.0,0.0,0.0,0.0,0.0,0.0,0.0,0.0,0.0,0.0,0.0,0.0,-3.4474,-3.6483,-4.0648,-4.12,-4.1225,-4.11,-4.0275,-3.8291,-3.4926,-3.2139,0.0,0.0,0.0,0.0,0.0,0.0,0.0,0.0,0.0,0.0,0.0,0.0,0.0,0.0,0.0,0.0,0.0,0.0,0.0,0.0,0.0,0.0,0.0,0.0,0.0,0.0,0.0,0.0,0.0,0.0,0.0,0.0,0.0,0.0,0.0,0.0,0.0,0.0,0.0,0.0,0.0,0.0,0.0,0.0,0.0,0.0,0.0,0.0,0.0,0.0,0.0,0.0,0.0,0.0,0.0,0.0,0.0,0.0,0.0,0.0,0.0,0.0,0.0,0.0,0.0,0.0,0.0,0.0,0.0,0.0,0.0,0.0,0.0,0.0,0.0,0.0,0.0,0.0,0.0,0.0,0.0,0.0,0.0,0.0,0.0,0.0,0.0,0.0,0.0,0.0,0.0,0.0,0.0,0.0,0.0,0.0,0.0,0.0,0.0,0.0,0.0,0.0,-3.5203,-3.8442,-4.0375,-4.0974,-4.1075,-4.0626,-3.8642,-3.6634,-3.4826,-3.0708,0.0,0.0,0.0,0.0,0.0,0.0,0.0,0.0,0.0,0.0,0.0,0.0,0.0,0.0,0.0,0.0,0.0,0.0,0.0,0.0,0.0,0.0,0.0,0.0,0.0,0.0,0.0,0.0,0.0,0.0,0.0,0.0,0.0,0.0,0.0,0.0,0.0,0.0,0.0,0.0,0.0,0.0,0.0,0.0,0.0,0.0,0.0,0.0,0.0,0.0,0.0,0.0,0.0,0.0,0.0,0.0,0.0,0.0,0.0,0.0,0.0,0.0,0.0,0.0,0.0,0.0,0.0,0.0,0.0,0.0,0.0,0.0,0.0,0.0,0.0,0.0,0.0,0.0,0.0,0.0,0.0,0.0,0.0,0.0,0.0,0.0,0.0,0.0,0.0,0.0,0.0,0.0,0.0,0.0,0.0,0.0,0.0,0.0,0.0,0.0,0.0,0.0,-3.4374,-3.7464,-4.0224,-4.0701,-4.0752,-4.0526,-3.912,-3.7086,-3.4374,0.0,0.0,0.0,0.0,0.0,0.0,0.0,0.0,0.0,0.0,0.0,0.0,0.0,0.0,0.0,0.0,0.0,0.0,0.0,0.0,0.0,0.0,0.0,0.0,0.0,0.0,0.0,0.0,0.0,0.0,0.0,0.0,0.0,0.0,0.0,0.0,0.0,0.0,0.0,0.0,0.0,0.0,0.0,0.0,0.0,0.0,0.0,0.0,0.0,0.0,0.0,0.0,0.0,0.0,0.0,0.0,0.0,0.0,0.0,0.0,0.0,0.0,0.0,0.0,0.0,0.0,0.0,0.0,0.0,0.0,0.0,0.0,0.0,0.0,0.0,0.0,0.0,0.0,0.0,0.0,0.0,0.0,0.0,0.0,0.0,0.0,0.0,0.0,0.0,0.0,0.0,0.0,0.0,0.0,0.0,0.0,0.0,0.0,0.0,0.0,0.0,0.0,-3.0909,-3.4274,-3.7414,-4.0398,-4.0724,-4.0927,-4.1279,-3.9647,-3.7337,-3.4349,0.0,0.0,0.0,0.0,0.0,0.0,0.0,0.0,0.0,0.0,0.0,0.0,0.0,0.0,0.0,0.0,0.0,0.0,0.0,0.0,0.0,0.0,0.0,0.0,0.0,0.0,0.0,0.0,0.0,0.0,0.0,0.0,0.0,0.0,0.0,0.0,0.0,0.0,0.0,0.0,0.0,0.0,0.0,0.0,0.0,0.0,0.0,0.0,0.0,0.0,0.0,0.0,0.0,0.0,0.0,0.0,0.0,0.0,0.0,0.0,0.0,0.0,0.0,0.0,0.0,0.0,0.0,0.0,0.0,0.0,0.0,0.0,0.0,0.0,0.0,0.0,0.0,0.0,0.0,0.0,0.0,0.0,0.0,0.0,0.0,0.0,0.0,0.0,0.0,0.0,0.0,0.0,0.0,0.0,0.0,0.0,0.0,0.0,0.0,0.0,0.0,0.0,-3.1135,-3.5303,-3.8894,-4.1075,-4.13,-4.1806,-4.2886,-3.9948,-3.7086,0.0,0.0,0.0,0.0,0.0,0.0,0.0,0.0,0.0,0.0,0.0,0.0,0.0,0.0,0.0,0.0,0.0,0.0,0.0,0.0,0.0,0.0,0.0,0.0,0.0,0.0,0.0,0.0,0.0,0.0,0.0,0.0,0.0,0.0,0.0,0.0,0.0,0.0,0.0,0.0,0.0,0.0,0.0,0.0,0.0,0.0,0.0,0.0,0.0,0.0,0.0,0.0,0.0,0.0,0.0,0.0,0.0,0.0,0.0,0.0,0.0,0.0,0.0,0.0,0.0,0.0,0.0,0.0,0.0,0.0,0.0,0.0,0.0,0.0,0.0,0.0,0.0,0.0,0.0,0.0,0.0,0.0,0.0,0.0,0.0,0.0,0.0,0.0,0.0,0.0,0.0,0.0,0.0,0.0,0.0,0.0,0.0,0.0,0.0,0.0,0.0,0.0,0.0,-3.2767,-3.7036,-4.0475,-4.2308,-4.2484,-4.2635,-4.2961,-4.1003,-3.8165,-3.4374,0.0,0.0,0.0,0.0,0.0,0.0,0.0,0.0,0.0,0.0,0.0,0.0,0.0,0.0,0.0,0.0,0.0,0.0,0.0,0.0,0.0,0.0,0.0,0.0,0.0,0.0,0.0,0.0,0.0,0.0,0.0,0.0,0.0,0.0,0.0,0.0,0.0,0.0,0.0,0.0,0.0,0.0,0.0,0.0,0.0,0.0,0.0,0.0,0.0,0.0,0.0,0.0,0.0,0.0,0.0,0.0,0.0,0.0,0.0,0.0,0.0,0.0,0.0,0.0,0.0,0.0,0.0,0.0,0.0,0.0,0.0,0.0,0.0,0.0,0.0,0.0,0.0,0.0,0.0,0.0,0.0,0.0,0.0,0.0,0.0,0.0,0.0,0.0,0.0,0.0,0.0,0.0,0.0,0.0,0.0,0.0,0.0,0.0,0.0,0.0,0.0,0.0,-3.347,-3.7764,-4.1329,-4.3413,-4.3639,-4.3815,-4.4267,-4.2585,-3.9597,-3.5152,0.0,0.0,0.0,0.0,0.0,0.0,0.0,0.0,0.0,0.0,0.0,0.0,0.0,0.0,0.0,0.0,0.0,0.0,0.0,0.0,0.0,0.0,0.0,0.0,0.0,0.0,0.0,0.0,0.0,0.0,0.0,0.0,0.0,0.0,0.0,0.0,0.0,0.0,0.0,0.0,0.0,0.0,0.0,0.0,0.0,0.0,0.0,0.0,0.0,0.0,0.0,0.0,0.0,0.0,0.0,0.0,0.0,0.0,0.0,0.0,0.0,0.0,0.0,0.0,0.0,0.0,0.0,0.0,0.0,0.0,0.0,0.0,0.0,0.0,0.0,0.0,0.0,0.0,0.0,0.0,0.0,0.0,0.0,0.0,0.0,0.0,0.0,0.0,0.0,0.0,0.0,0.0,0.0,0.0,0.0,0.0,0.0,0.0,0.0,0.0,0.0,0.0,-3.3696,-3.799,-4.1781,-4.4493,-4.4794,-4.5196,-4.6225,-4.4317,-4.1178,-3.6832,0.0,0.0,0.0,0.0,0.0,0.0,0.0,0.0,0.0,0.0,0.0,0.0,0.0,0.0,0.0,0.0,0.0,0.0,0.0,0.0,0.0,0.0,0.0,0.0,0.0,0.0,0.0,0.0,0.0,0.0,0.0,0.0,0.0,0.0,0.0,0.0,0.0,0.0,0.0,0.0,0.0,0.0,0.0,0.0,0.0,0.0,0.0,0.0,0.0,0.0,0.0,0.0,0.0,0.0,0.0,0.0,0.0,0.0,0.0,0.0,-3.0738,-3.0698,0.0,0.0,0.0,0.0,0.0,0.0,0.0,0.0,0.0,0.0,0.0,0.0,0.0,0.0,0.0,0.0,0.0,0.0,0.0,0.0,0.0,0.0,0.0,0.0,0.0,0.0,0.0,0.0,0.0,0.0,0.0,0.0,0.0,0.0,0.0,0.0,0.0,0.0,0.0,0.0,-3.5349,-3.9722,-4.3363,-4.5698,-4.5949,-4.605,-4.6301,-4.4669,-4.1907,-3.7914,-3.3495,0.0,0.0,0.0,0.0,0.0,0.0,0.0,0.0,0.0,0.0,0.0,0.0,0.0,0.0,0.0,0.0,0.0,0.0,0.0,0.0,0.0,0.0,0.0,0.0,0.0,0.0,0.0,0.0,0.0,0.0,0.0,0.0,0.0,0.0,0.0,0.0,0.0,0.0,0.0,0.0,0.0,0.0,0.0,0.0,0.0,0.0,0.0,0.0,0.0,0.0,0.0,0.0,0.0,0.0,0.0,0.0,0.0,0.0,0.0,-3.3995,-3.3674,0.0,0.0,0.0,0.0,0.0,0.0,0.0,0.0,0.0,0.0,0.0,0.0,0.0,0.0,0.0,0.0,0.0,0.0,0.0,0.0,0.0,0.0,0.0,0.0,0.0,0.0,0.0,0.0,0.0,0.0,0.0,0.0,0.0,0.0,0.0,0.0,0.0,0.0,0.0,0.0,-3.6157,-4.04,-4.384,-4.6075,-4.6301,-4.6301,-4.6301,-4.4769,-4.2484,-3.9396,-3.5303,0.0,0.0,0.0,0.0,0.0,0.0,0.0,0.0,0.0,0.0,0.0,0.0,0.0,0.0,0.0,0.0,0.0,0.0,0.0,0.0,0.0,0.0,0.0,0.0,0.0,0.0,0.0,0.0,0.0,0.0,0.0,0.0,0.0,0.0,0.0,0.0,0.0,0.0,0.0,0.0,0.0,0.0,0.0,0.0,0.0,0.0,0.0,0.0,0.0,0.0,0.0,0.0,0.0,-4.155,-4.2032,-4.4149,-4.4176,-4.4168,-4.3839,-3.8759,-3.8191,-4.035,-3.4089,0.0,0.0,0.0,0.0,0.0,0.0,0.0,0.0,0.0,0.0,0.0,0.0,0.0,0.0,0.0,0.0,0.0,0.0,0.0,0.0,0.0,0.0,-3.568,-3.6508,-3.7739,-3.7337,-3.2148,0.0,0.0,0.0,0.0,0.0,0.0,0.0,0.0,0.0,0.0,0.0,-3.6584,-4.0576,-4.3765,-4.5799,-4.6024,-4.605,-4.615,-4.4794,-4.3087,-4.1078,-3.7487,-3.4098,0.0,0.0,0.0,0.0,0.0,0.0,0.0,0.0,0.0,0.0,0.0,0.0,0.0,0.0,0.0,0.0,0.0,0.0,0.0,0.0,0.0,0.0,0.0,0.0,0.0,0.0,0.0,0.0,0.0,0.0,0.0,0.0,-2.5335,-2.6072,0.0,0.0,0.0,0.0,0.0,0.0,0.0,0.0,0.0,0.0,0.0,0.0,0.0,-2.8019,-3.7409,-3.9978,-4.1833,-4.3005,-4.4634,-4.6586,-4.8695,-4.8756,-4.8733,-4.8793,-4.9852,0.0,-4.5051,-4.0363,0.0,0.0,0.0,0.0,0.0,0.0,0.0,0.0,0.0,0.0,0.0,0.0,0.0,0.0,0.0,0.0,0.0,0.0,0.0,0.0,0.0,0.0,-4.1706,-4.1408,-4.1509,-4.1254,-3.9921,-3.5278,-3.0683,-2.8637,-2.6766,-2.4908,0.0,0.0,0.0,0.0,0.0,0.0,-3.6734,-4.0576,-4.3463,-4.4719,-4.4844,-4.5045,-4.5547,-4.4945,-4.3991,-4.2735,-3.9923,-3.7487,-3.5604,-3.1562,0.0,0.0,0.0,0.0,0.0,0.0,0.0,0.0,0.0,0.0,0.0,0.0,0.0,0.0,0.0,0.0,0.0,0.0,0.0,0.0,0.0,0.0,0.0,0.0,0.0,0.0,0.0,0.0,0.0,-2.5084,-2.7444,-2.7394,-2.8423,-2.8373,0.0,0.0,0.0,0.0,0.0,0.0,0.0,0.0,0.0,-3.1102,-2.8338,-3.22,-4.3313,-4.5618,-4.6714,-4.6721,-4.7705,-4.9305,-5.1442,-5.1434,-5.1484,-5.1507,-5.2464,-5.1784,-4.9693,-4.524,-4.024,-3.5248,0.0,0.0,0.0,0.0,-4.0935,-3.9706,-4.1028,-4.0639,-3.9473,-3.8592,0.0,0.0,0.0,0.0,0.0,0.0,0.0,-3.5784,-3.8542,-4.1103,-4.3313,-4.4644,-4.4719,-4.4418,-4.4192,-4.0852,-3.686,-3.3276,-3.1822,-2.998,-2.6113,-2.5954,0.0,0.0,0.0,-3.4474,-3.8115,-4.0877,-4.3062,-4.4468,-4.4618,-4.4719,-4.497,-4.4493,-4.3815,-4.3037,-4.1279,-3.9647,-3.8316,-3.5177,-3.239,0.0,0.0,0.0,0.0,0.0,0.0,0.0,0.0,0.0,0.0,0.0,0.0,0.0,0.0,0.0,0.0,0.0,0.0,0.0,0.0,0.0,0.0,0.0,0.0,0.0,0.0,0.0,0.0,-2.7494,-2.9465,-2.8825,-3.0608,-3.0884,0.0,0.0,0.0,0.0,0.0,0.0,-3.5313,-3.5042,-3.4903,-3.5125,-3.4958,-3.8824,-4.7036,-4.8788,-4.9878,-5.0422,-5.0431,-5.1347,-5.2924,-5.2925,-5.2877,-5.2877,-5.2877,-5.2782,-5.2356,-4.8669,-4.4878,-4.1299,-4.0192,-4.2603,-4.6688,-4.6417,-4.4703,-4.2968,-4.5456,-4.5118,-4.3514,-4.2836,-4.1781,-4.0074,-3.6531,0.0,0.0,0.0,0.0,-3.8115,-4.2007,-4.3514,-4.4593,-4.6803,-4.7029,-4.6677,-4.6552,-4.4995,-4.2308,-3.784,-3.6636,-3.4901,-3.0206,-2.9955,0.0,-3.0568,-3.3093,-3.6157,-3.9471,-4.1354,-4.2836,-4.4066,-4.4192,-4.4267,-4.4392,-4.4041,-4.3564,-4.3011,-4.2208,-4.1254,-4.0149,-3.8115,-3.583,-3.3319,0.0,0.0,0.0,0.0,0.0,0.0,0.0,0.0,0.0,0.0,0.0,0.0,0.0,0.0,0.0,0.0,0.0,0.0,0.0,0.0,0.0,0.0,0.0,0.0,0.0,0.0,0.0,0.0,0.0,-3.0608,-3.3276,0.0,0.0,0.0,0.0,-3.4349,-3.5956,-3.7023,-3.7348,-3.8664,-3.8427,-3.6384,-4.4279,-4.8844,-4.9428,-4.9506,-5.0635,-5.2711,-5.2733,-5.2801,-5.2877,-5.2934,-5.2879,-5.2879,-5.2879,-5.2528,-5.1732,-5.0128,-4.8067,-4.6169,-4.8152,-4.8486,-4.7718,-4.669,-4.5488,-4.4626,-4.5858,-4.5883,-4.5698,-4.7707,-4.62,-4.3363,-4.2137,-3.9823,0.0,0.0,-4.0978,-4.2414,-4.4719,-4.6125,-4.7079,-4.7732,-4.7857,-4.7682,-4.7205,-4.6175,-4.4518,-4.1551,-3.9772,-3.7939,-3.5508,0.0,-3.4555,-3.5082,-3.6684,-3.8442,-4.0249,-4.1907,-4.2961,-4.3062,-4.3062,-4.3263,-4.379,-4.3815,-4.3564,-4.3011,-4.2936,-4.2409,-4.125,-3.9647,-3.7964,-3.6229,-3.2365,0.0,0.0,0.0,0.0,0.0,0.0,0.0,0.0,0.0,0.0,0.0,0.0,0.0,0.0,0.0,0.0,0.0,0.0,0.0,0.0,0.0,0.0,0.0,0.0,0.0,0.0,0.0,0.0,-3.3753,-3.6686,0.0,-3.5604,-3.6232,-3.7412,-3.8818,-4.0174,-4.1409,-4.2414,-4.3389,-4.3602,-4.2794,-4.723,-5.0256,-5.1692,-5.169,-5.2094,-5.2886,-5.2876,-5.2891,-5.2891,-5.2879,-5.2635,-5.2191,-5.2191,-5.1958,-5.1473,-5.1135,-5.0572,-4.9838,-4.9662,-4.9367,-4.8893,-4.8042,-4.7759,-4.7883,-4.8284,-4.8761,-4.9163,-4.8862,-4.7004,-4.4744,-4.3991,-4.2811,-4.1932,-4.2886,-4.3438,-4.4242,-4.6476,-4.7079,-4.7355,-4.8259,-4.8184,-4.7757,-4.7255,-4.6552,-4.5497,-4.379,-4.2108,-4.0226,-3.7563,-3.7563,-3.7613,-3.6734,-3.8015,-3.9697,-4.1354,-4.2137,-4.264,-4.2936,-4.2986,-4.3062,-4.3263,-4.3263,-4.3187,-4.2986,-4.2715,-4.2313,-4.1882,-4.0626,-3.9145,-3.7462,-3.4675,-3.0984,0.0,0.0,0.0,0.0,0.0,0.0,0.0,0.0,0.0,0.0,0.0,0.0,0.0,0.0,0.0,0.0,0.0,0.0,0.0,0.0,0.0,0.0,0.0,0.0,0.0,-3.2817,-3.6031,-3.6609,-3.9597,-4.1028,-3.9546,-4.0249,-4.143,-4.2855,-4.3676,-4.4702,-4.6018,-4.6217,-4.6655,-4.7361,-4.9576,-5.1377,-5.2909,-5.2903,-5.2876,-5.2876,-5.2898,-5.271,-5.2323,-5.2441,-5.2141,-5.1472,-5.159,-5.1506,-5.1297,-5.1506,-5.163,-5.1524,-5.0125,-4.962,-4.9558,-4.9267,-4.9442,-4.9866,-4.9866,-5.0368,-5.077,-4.9464,-4.7807,-4.6225,-4.5849,-4.5221,-4.4769,-4.5321,-4.5472,-4.5849,-4.7481,-4.7657,-4.7581,-4.8309,-4.8184,-4.7757,-4.7255,-4.6853,-4.625,-4.5146,-4.3714,-4.2007,-3.9798,-4.0023,-4.0074,-3.8793,-3.9697,-4.0927,-4.2062,-4.2363,-4.264,-4.2936,-4.2986,-4.2911,-4.2766,-4.2534,-4.2333,-4.2158,-4.163,-4.1383,-4.1383,-4.0074,-3.8793,-3.7487,-3.455,-3.1336,-2.7821,0.0,0.0,0.0,0.0,0.0,0.0,0.0,0.0,0.0,0.0,0.0,0.0,0.0,0.0,0.0,0.0,0.0,0.0,0.0,0.0,0.0,0.0,0.0,-3.1436,-3.5328,-3.8341,-3.8969,-4.1932,-4.3489,-4.2489,-4.379,-4.5196,-4.6301,-4.6373,-4.6836,-4.788,-4.6963,-4.741,-4.966,-5.1758,-5.2903,-5.2903,-5.284,-5.2785,-5.2785,-5.281,-5.2273,-5.1277,-5.163,-5.1355,-5.0714,-5.113,-5.1247,-5.1247,-5.1247,-5.1222,-5.1147,-5.0065,-4.9631,-4.969,-5.0193,-5.0393,-5.0419,-5.0444,-5.0444,-5.0318,-4.9791,-4.8862,-4.7958,-4.7958,-4.7205,-4.6476,-4.7004,-4.7068,-4.723,-4.7757,-4.7883,-4.7857,-4.7883,-4.7883,-4.7732,-4.723,-4.7043,-4.6778,-4.5673,-4.4568,-4.3463,-4.2414,-4.2213,-4.1982,-4.1401,-4.1831,0.0,-4.2238,-4.2715,-4.2961,-4.2961,-4.2961,-4.2735,-4.2263,-4.1656,-4.105,-4.0576,-3.9998,-3.9697,-3.9697,-3.8115,-3.6985,-3.6458,-3.2139,-2.9603,-2.8963,0.0,0.0,0.0,0.0,0.0,0.0,0.0,0.0,0.0,0.0,0.0,0.0,0.0,0.0,0.0,0.0,0.0,0.0,0.0,0.0,0.0,-3.1721,-3.4204,-3.4329,-3.784,-4.1078,-4.2836,-4.492,-4.625,-4.6326,-4.6728,-4.7218,-4.7833,-4.7896,-4.8269,-4.9112,-4.8877,-4.9685,-5.193,-5.2587,-5.2884,-5.2884,-5.1322,-5.0486,-5.0486,-5.1372,-5.1414,-5.0846,-5.0938,-5.1072,-5.113,-5.082,-5.0645,-5.0619,-5.0218,-5.0067,-5.0067,-5.0112,-5.0203,-5.0167,-4.9916,-5.0067,-5.0469,-5.0896,-5.077,-5.0393,-5.0243,-4.9715,-4.9138,-4.9138,-4.836,-4.7506,-4.7657,-4.7129,-4.6652,-4.7205,-4.7054,-4.6853,-4.7255,-4.7355,-4.7205,-4.6652,-4.6527,-4.62,-4.5095,-4.4292,-4.3589,-4.2861,-4.2464,-4.2162,-4.1957,-4.2112,-4.2363,-4.2766,-4.2886,-4.2866,-4.2489,-4.2439,-4.2363,-4.2213,-4.1656,-4.1225,-4.1075,-4.0224,-3.9697,-3.9697,-3.8868,-3.814,-3.7588,-3.4022,-3.1687,0.0,0.0,0.0,0.0,0.0,0.0,0.0,0.0,0.0,0.0,0.0,0.0,0.0,0.0,0.0,0.0,0.0,0.0,0.0,0.0,0.0,0.0,-3.4901,-3.7564,-3.8517,-4.1003,-4.3407,-4.5388,-4.6954,-4.8033,-4.856,-4.8611,-4.8736,-4.8949,-4.8974,-4.916,-4.9581,-5.0499,-5.159,-5.2858,-5.2032,-5.1506,-5.1506,-5.0248,-4.9784,-5.004,-5.0714,-5.0913,-5.0572,-5.0572,-5.0563,-5.0544,-5.0218,-5.0067,-5.0042,-4.9715,-4.959,-4.9615,0.0,0.0,0.0,0.0,-4.9791,-5.0117,-5.0469,-5.0368,-5.0067,-5.0067,-4.969,-4.9238,-4.9238,-4.8611,-4.7908,-4.7908,-4.7456,-4.7004,-4.7104,-4.6903,-4.6677,-4.6778,-4.6778,-4.6702,-4.6376,-4.6301,-4.605,-4.5146,-4.4719,0.0,-4.3463,-4.2861,-4.2464,-4.2238,-4.2414,-4.259,-4.2665,-4.2836,-4.2861,-4.259,-4.2564,-4.2464,-4.2238,-4.143,0.0,0.0,0.0,-3.8668,-3.799,-3.7864,0.0,0.0,0.0,0.0,0.0,0.0,0.0,0.0,-3.0984,-3.0658,0.0,0.0,0.0,0.0,0.0,0.0,0.0,0.0,0.0,0.0,0.0,0.0,0.0,0.0,0.0,0.0,-3.7939,-4.0827,-4.3037,-4.4292,-4.5547,-4.6993,-4.8134,-4.8987,-4.954,-4.959,-4.959,-4.9604,-4.9565,-4.959,-4.959,-5.1481,0.0,0.0,0.0,-4.9594,-4.9611,-4.9611,-4.9934,-5.0605,-5.0605,-5.0472,-5.0318,-5.0318,-5.0092,-4.969,-4.9615,-4.9615,-4.969,-4.9615,-4.959,-4.959,-4.959,-4.959,-4.959,-4.959,-4.959,-4.959,-4.959,0.0,0.0,-4.959,-4.9264,-4.8862,-4.8862,-4.846,-4.8008,-4.8008,-4.7958,-4.7807,-4.733,-4.723,-4.7079,-4.6527,-4.6401,-4.6376,-4.6326,-4.6301,-4.615,-4.5598,-4.5497,-4.5146,-4.4091,-4.3438,-4.2886,-4.2389,-4.2715,-4.2811,-4.2363,-4.274,-4.2961,-4.2886,-4.2886,0.0,-4.2263,-4.1204,-4.0576,-4.0526,-3.8994,-3.7462,-3.6034,-3.6483,-3.6307,-3.5357,-3.6282,-3.7033,-3.7462,-3.8517,-3.8743,-3.8191,-3.3721,-3.3176,0.0,0.0,0.0,0.0,0.0,0.0,0.0,0.0,0.0,0.0,0.0,0.0,0.0,0.0,0.0,-3.7487,-4.0475,-4.3112,-4.5347,-4.6602,-4.738,-4.7732,-4.836,-4.8987,-4.954,-4.959,-4.9618,-4.9596,-4.9568,-4.959,-4.959,-5.0002,-5.0212,-5.0212,-4.985,-4.9585,-4.9596,-4.9596,-4.9686,-4.9801,-4.9801,0.0,-4.9741,-4.9741,-4.9941,-5.0243,-4.9791,-4.9841,-5.0218,-4.9766,-4.959,-4.959,-4.959,-4.959,-4.959,-4.959,-4.959,-4.959,-4.959,-4.959,-4.959,-4.959,-4.9515,-4.9439,-4.9439,-4.9038,0.0,-4.8611,-4.8259,-4.7883,-4.7782,-4.7757,-4.7631,-4.7104,-4.6979,-4.6853,-4.6401,-4.6301,-4.615,-4.5598,-4.5497,-4.5271,-4.4593,-4.4016,-4.3463,-4.2911,-4.2911,-4.2936,-4.2891,-4.2911,-4.2811,-4.2414,-4.2363,-4.2313,-4.2213,-4.1555,-4.0949,-4.0551,-3.9371,-3.8768,-3.8894,-3.8994,-3.9145,-3.9396,-3.917,-3.9094,-3.922,-3.9421,-3.9697,-3.9998,-3.8592,-3.8291,0.0,0.0,0.0,0.0,0.0,0.0,0.0,0.0,0.0,0.0,0.0,-2.9704,-3.2215,0.0,-3.7287,-4.0126,-4.2359,-4.4392,-4.6075,-4.723,-4.8008,-4.8309,-4.8611,-4.8976,-4.957,-4.9596,-4.9622,-4.9622,-4.8582,-4.8426,-4.9565,-4.9611,-4.9581,-4.9581,-4.9581,-4.9571,-4.959,-4.959,-4.959,-4.959,-4.959,-4.959,-4.959,-4.959,-4.9741,-4.9992,-4.9715,-4.9741,-4.9992,-4.9715,-4.959,-4.959,-4.959,-4.959,-4.959,-4.959,-4.959,-4.959,-4.959,-4.959,-4.959,-4.959,-4.959,-4.959,-4.959,-4.9414,-4.9188,-4.9188,-4.8962,-4.8686,-4.841,-4.8335,-4.8209,-4.7657,-4.7531,-4.738,-4.6853,-4.6728,-4.6552,-4.5999,-4.5899,-4.5723,-4.5146,-4.4819,-4.4443,-4.389,-4.3564,-4.3388,-4.3388,-4.3162,-4.2861,-4.2665,-4.2615,-4.2615,-4.2615,-4.2057,-4.1505,-4.0953,-4.04,-4.0099,-4.0099,-4.0375,-4.0526,-4.0526,-4.0777,-4.0777,-4.0526,-4.1078,-4.1329,-4.1354,-4.163,-4.1455,0.0,0.0,0.0,0.0,0.0,0.0,0.0,-2.6013,-2.7007,-2.9765,-3.1612,-3.342,-3.5859,-3.809,-4.0201,-4.2213,-4.379,-4.5196,-4.6326,-4.7305,-4.8146,-4.8699,-4.8863,-4.9052,-4.928,-4.9455,-4.939,-4.8989,-4.7717,-4.7739,-4.9504,-4.9629,-4.959,-4.959,-4.959,-4.959,-4.959,-4.959,-4.959,-4.959,-4.959,-4.959,-4.959,-4.959,-4.959,-4.959,-4.959,-4.959,-4.959,-4.959,-4.9665,-4.9766,-4.9766,-4.9816,-4.9891,-4.9665,-4.959,-4.959,-4.959,-4.959,-4.959,-4.959,-4.959,-4.959,-4.959,-4.959,-4.959,-4.959,-4.959,-4.949,-4.9038,-4.8937,-4.8786,-4.8209,-4.8083,-4.7933,-4.7405,-4.7143,-4.6943,-4.6552,-4.6376,-4.6175,-4.5723,-4.5648,-4.5422,-4.4719,-4.4242,-4.3966,-4.3966,-4.3564,-4.3288,-4.3288,-4.3288,-4.3288,-4.3288,-4.274,-4.2133,-4.1681,-4.1401,-4.1125,-4.0852,-4.1254,-4.1329,-4.1003,-4.1957,-4.2258,-4.1777,-4.2811,-4.3062,-4.2715,-4.3539,-4.3489,-2.6047,-2.4255,-2.3521,-2.4883,-2.5234,-2.6414,0.0,-3.1712,-3.219,-3.5002,-3.6483,-3.7663,-3.8994,-4.0679,-4.2238,-4.3413,-4.4618,-4.5773,-4.6878,-4.7531,-4.8069,-4.8451,-4.9126,-4.9166,-4.8194,-4.9001,-4.8785,-4.6848,-4.8259,-4.933,-4.9609,-4.9632,-4.959,-4.959,-4.959,-4.959,-4.959,-4.959,-4.959,-4.959,-4.959,-4.959,-4.959,-4.959,-4.959,-4.959,-4.959,-4.959,-4.959,-4.959,-4.9891,-5.0318,-5.0318,-5.0645,-5.0971,-4.9967,-4.959,-4.959,-4.959,-4.959,-4.959,-4.959,-4.959,-4.959,-4.959,-4.959,-4.959,-4.959,-4.959,-4.959,-4.9515,-4.9515,-4.9364,-4.8812,-4.8686,-4.851,-4.7933,-4.7456,-4.7043,-4.6993,-4.6652,-4.6301,-4.6225,-4.6225,-4.5849,-4.4794,-4.4568,-4.4543,-4.4543,-4.4468,-4.4443,-4.4443,-4.4443,-4.4443,-4.4443,-4.3489,-4.2861,-4.2785,-4.1882,-4.153,-4.2011,-4.2087,-4.2313,-4.2685,-4.3313,-4.3589,-4.3539,-4.4141,-4.4418,-4.4342,-4.4468,-4.4468,-2.9088,-2.8021,-2.772,-2.8725,-2.9453,-3.0758,-3.3822,-3.4575,-3.5328,-3.7814,-3.9195,-4.0199,-4.0978,-4.2484,-4.374,-4.4192,-4.5221,-4.6225,-4.6968,-4.733,-4.7492,-4.7688,-4.7668,-4.8019,-4.8825,-4.8172,-4.7327,-4.639,-4.8383,-4.9608,-4.9596,-4.9607,-4.959,-4.959,-4.959,-4.959,-4.959,-4.959,-4.959,-4.959,-4.959,-4.959,-4.959,-4.959,-4.9561,-4.9606,-4.9626,-4.9967,-5.0569,-5.0564,-5.0741,-5.0921,-5.0921,-5.1071,-5.1222,-5.0745,-5.0569,-5.0519,-5.0193,-5.0067,-5.0017,-4.969,-4.959,-4.959,-4.959,-4.959,-4.959,-4.959,-4.959,-4.959,-4.959,-4.959,-4.954,-4.9314,-4.9264,-4.9088,-4.8535,-4.8234,-4.7908,-4.7255,-4.6954,-4.6702,-4.6376,-4.6301,-4.615,-4.5673,-4.5321,-4.5121,-4.5121,-4.4844,-4.4618,-4.4618,-4.4618,-4.4618,-4.4618,-4.4192,-4.394,-4.394,-4.3489,-4.3338,-4.3589,-4.3589,-4.3689,-4.394,-4.4166,-4.4292,-4.4292,-4.4518,-4.4618,-4.4644,-4.497,-4.5121,-3.0517,-3.0482,-3.1035,-3.1863,-3.3144,-3.465,-3.6307,-3.7111,-3.804,-3.9973,-4.1003,-4.1731,-4.2338,-4.3489,-4.4443,-4.4593,-4.5447,-4.6276,-4.6828,-4.6903,-4.6914,-4.6894,-4.6516,-4.6894,-4.8514,-4.7265,-4.633,-4.6289,-4.7744,-4.8925,-4.9571,-4.9607,-4.959,-4.959,-4.959,-4.959,-4.959,-4.959,-4.959,-4.959,-4.959,-4.959,-4.959,-4.959,-4.9571,-4.961,-4.9581,-5.0253,-5.1339,-5.1636,-5.1671,-5.1498,-5.1498,-5.1599,-5.1724,-5.1724,-5.1548,-5.1222,-5.0795,-5.0544,-5.0343,-4.9941,-4.9715,-4.959,-4.959,-4.959,-4.959,-4.959,-4.959,-4.959,-4.959,-4.959,-4.959,-4.959,-4.959,-4.949,-4.9088,-4.8887,-4.8535,-4.7732,-4.7456,-4.7179,-4.6627,-4.6552,-4.6476,-4.6326,-4.5974,-4.5723,-4.5723,-4.5347,-4.5095,-4.5095,-4.5095,-4.5095,-4.5095,-4.4945,-4.4869,-4.4869,-4.4719,-4.4618,-4.4618,-4.4618,-4.4618,-4.4618,-4.4769,-4.4869,-4.4869,-4.502,-4.5095,-4.5095,-4.5522,-4.5723,-2.9126,-3.0156,-3.1763,-3.342,-3.5454,-3.7487,-3.9195,-3.9998,-4.0701,-4.1911,-4.2162,-4.2363,-4.2861,-4.3438,-4.3991,-4.4543,-4.5121,-4.5698,-4.625,-4.6326,-4.6339,-4.6353,-4.6297,-4.6315,-4.636,-4.6307,-4.633,-4.6289,-4.6365,-4.7333,-4.9482,-4.9607,-4.959,-4.959,-4.959,-4.959,-4.959,-4.959,-4.959,-4.959,-4.959,-4.959,-4.959,-4.959,-4.9571,-4.9635,-4.961,-5.0281,-5.1389,-5.2419,-5.2514,-5.2076,-5.2076,-5.2402,-5.2879,-5.2879,-5.2201,-5.1272,-5.1272,-5.0896,-5.0419,-5.0393,-5.0017,-4.959,-4.959,-4.959,-4.959,-4.959,-4.959,-4.959,-4.959,-4.959,-4.959,-4.959,-4.959,-4.959,-4.9565,-4.9163,-4.8761,-4.8736,-4.8259,-4.7732,-4.7205,-4.7043,-4.6928,-4.6401,-4.6301,-4.6276,-4.6276,-4.6276,-4.625,-4.625,-4.625,-4.625,-4.625,-4.5773,-4.5472,-4.5472,-4.4945,-4.4618,-4.4618,-4.4618,-4.4618,-4.4618,-4.5171,-4.5472,-4.5472,-4.5999,-4.625,-4.625,-4.6276,-4.6276,-3.106,-3.2867,-3.5002,-3.6307,-3.8015,-3.9747,-4.1028,-4.1534,-4.176,-4.2137,-4.158,-4.1003,-4.0827,-4.1555,-4.2359,-4.2886,-4.4694,-4.61,-4.6276,-4.6928,-4.6899,-4.5748,-4.5301,-4.4882,-4.417,-4.5464,-4.6315,-4.6305,-4.6289,-4.7233,-4.9467,-4.9608,-4.959,-4.959,-4.959,-4.959,-4.959,-4.959,-4.959,-4.959,-4.959,-4.959,-4.959,-4.959,-4.9566,-4.9652,-5.115,-5.1991,-5.2377,-5.2776,-5.2767,-5.2653,-5.2653,-5.2754,-5.2929,-5.2929,-5.2678,-5.2327,-5.195,-5.1699,-5.1423,-5.067,-5.0293,-5.0067,-4.9715,-4.959,-4.959,-4.959,-4.959,-4.959,-4.959,-4.959,-4.959,-4.959,-4.959,-4.959,-4.959,-4.9439,-4.9213,-4.8837,-4.8611,-4.8309,-4.7732,-4.7657,-4.7456,-4.6928,-4.6552,-4.6301,-4.6301,-4.6301,-4.6301,-4.6301,-4.6301,-4.6301,-4.6301,-4.6125,-4.6024,-4.6024,-4.5849,-4.5748,-4.5748,-4.5748,-4.5748,-4.5748,-4.5924,-4.6024,-4.6024,-4.6225,-4.6502,-4.6853,-4.6853,-4.7054,-3.3093,-3.5152,-3.7312,-3.8818,-4.0149,-4.1329,-4.2313,-4.2363,-4.2162,-4.1907,-4.0827,-3.9747,-3.9195,-3.9346,-4.0074,-4.1605,-4.3539,-4.5246,-4.6451,-4.7029,-4.7025,-4.6222,-4.4893,-4.4048,-4.4169,-4.5454,-4.6002,-4.52,-4.5858,-4.727,-4.9501,-4.9621,-4.959,-4.959,-4.959,-4.959,-4.959,-4.959,-4.959,-4.959,-4.959,-4.959,-4.959,-4.959,-4.9631,-4.9719,-5.1936,-5.2858,-5.2891,-5.2927,-5.2866,-5.2929,-5.2929,-5.2929,-5.2929,-5.2929,-5.2929,-5.2879,-5.2528,-5.2277,-5.1975,-5.1247,-5.0896,-5.067,-5.0318,-5.0193,-5.0193,-5.0193,-5.0042,-4.9891,-4.9891,-4.9741,-4.959,-4.959,-4.959,-4.959,-4.959,-4.959,-4.949,-4.9138,-4.9063,-4.8887,-4.8309,-4.8033,-4.7782,-4.7456,-4.7104,-4.6728,-4.6351,-4.6301,-4.6301,-4.6301,-4.6301,-4.6301,-4.6301,-4.6301,-4.6301,-4.6301,-4.6301,-4.6301,-4.6301,-4.6301,-4.6301,-4.6301,-4.6502,-4.6602,-4.6602,-4.6778,-4.7054,-4.7405,-4.7405,-4.7581,-3.5031,-3.6862,-3.8718,-4.0799,-4.1781,-4.2389,-4.2866,-4.2564,-4.1986,-4.125,-3.9823,-3.8467,-3.7814,-3.696,-3.7412,-4.0598,-4.1781,-4.3413,-4.6627,-4.6702,-4.6733,-4.7726,-4.5181,-4.4171,-4.6298,-4.6364,-4.5364,-4.3156,-4.5012,-4.7234,-4.9501,-4.9621,-4.959,-4.959,-4.959,-4.959,-4.959,-4.959,-4.959,-4.959,-4.959,-4.959,-4.959,-4.9615,-4.9596,-4.9734,-5.1956,-5.2893,-5.2886,-5.2872,-5.2929,-5.2929,-5.2929,-5.2929,-5.2929,-5.2929,-5.2929,-5.2929,-5.2929,-5.2578,-5.2151,-5.2126,-5.1749,-5.1322,-5.1297,-5.1272,-5.1272,-5.1272,-5.0896,-5.0469,-5.0469,-5.0042,-4.964,-4.964,-4.9615,-4.959,-4.959,-4.959,-4.959,-4.959,-4.959,-4.9439,-4.8912,-4.8335,-4.7958,-4.7958,-4.7933,-4.7531,-4.6527,-4.6401,-4.6401,-4.6401,-4.6401,-4.6401,-4.6401,-4.6401,-4.6401,-4.6401,-4.6401,-4.6401,-4.6401,-4.6401,-4.6401,-4.6401,-4.6903,-4.7118,-4.7118,-4.7657,-4.7933,-4.7958,-4.7958,-4.7958,-3.701,-3.9195,-4.1282,-4.1806,-4.2414,-4.2766,-4.2489,-4.1932,-4.1028,-3.922,-3.7211,-3.5353,-3.3947,-3.4781,-3.6386,-3.8517,-4.1756,-4.4593,-4.6276,-4.7344,-4.7643,-4.6815,-4.744,-4.8151,-4.8707,-4.7274,-4.539,-4.318,-4.5047,-4.7277,-4.9475,-4.9621,-4.959,-4.959,-4.959,-4.959,-4.959,-4.959,-4.959,-4.959,-4.959,-4.959,-4.9615,-4.9581,-4.9619,-4.9727,-5.1976,-5.2911,-5.2872,-5.2904,-5.2929,-5.2929,-5.2929,-5.2929,-5.2929,-5.2929,-5.2929,-5.2929,-5.2929,-5.2829,-5.2653,-5.2226,-5.2,-5.1825,-5.1398,-5.1272,-5.1272,-5.1272,-5.1172,-5.1071,-5.1071,-5.0645,-5.0218,-5.0218,-4.9891,-4.959,-4.959,-4.959,-4.959,-4.959,-4.959,-4.9565,-4.9414,-4.8912,-4.856,-4.856,-4.8184,-4.7807,-4.7531,-4.7506,-4.7506,-4.7506,-4.7506,-4.7506,-4.7506,-4.7506,-4.7506,-4.7506,-4.7506,-4.7506,-4.7506,-4.7506,-4.7506,-4.7506,-4.7631,-4.7707,-4.7707,-4.7832,-4.8134,-4.856,-4.856,-4.8761,-3.9396,-4.1329,-4.2886,-4.2886,-4.2936,-4.2635,-4.1408,-4.045,-3.917,-3.6709,-3.4625,-3.2742,-3.1085,-3.2348,-3.4424,-3.6536,-4.045,-4.3933,-4.6351,-4.7568,-4.8106,-4.78,-4.7998,-4.8172,-4.8146,-4.7043,-4.5799,-4.4522,-4.5611,-4.728,-4.9475,-4.9621,-4.959,-4.959,-4.959,-4.959,-4.959,-4.959,-4.959,-4.959,-4.959,-4.959,-4.9615,-4.9616,-5.0156,-5.1154,-5.2338,-5.2868,-5.2934,-5.2879,-5.2929,-5.2929,-5.2929,-5.2929,-5.2929,-5.2929,-5.2929,-5.2929,-5.2929,-5.2929,-5.2879,-5.2578,-5.2477,-5.2402,-5.2101,-5.2,-5.2,-5.2,-5.1825,-5.1649,-5.1649,-5.1222,-5.0795,-5.0795,-5.0368,-4.9967,-4.9967,-4.9766,-4.959,-4.959,-4.959,-4.959,-4.959,-4.9339,-4.9138,-4.9138,-4.8862,-4.8661,-4.8661,-4.8209,-4.7908,-4.7908,-4.7908,-4.7908,-4.7908,-4.7908,-4.7908,-4.7908,-4.7908,-4.7908,-4.7908,-4.7908,-4.7908,-4.7908,-4.8159,-4.8284,-4.8284,-4.8535,-4.8812,-4.9138,-4.9138,-4.9289,-4.1785,-4.3062,-4.389,-4.3815,-4.3338,-4.2283,-4.0074,-3.8542,-3.6784,-3.4022,-3.2064,-3.0382,-2.8875,-3.008,-3.2215,-3.5031,-3.8693,-4.2529,-4.6305,-4.7475,-4.8186,-4.9059,-4.7456,-4.6312,-4.6291,-4.6301,-4.6266,-4.6316,-4.6316,-4.7284,-4.9501,-4.9621,-4.959,-4.959,-4.959,-4.959,-4.959,-4.959,-4.959,-4.959,-4.959,-4.959,-4.9615,-4.9601,-5.0776,-5.2902,-5.2902,-5.2911,-5.2936,-5.2872,-5.2929,-5.2929,-5.2929,-5.2929,-5.2929,-5.2929,-5.2929,-5.2929,-5.2929,-5.2929,-5.2929,-5.2929,-5.2929,-5.2929,-5.2929,-5.2929,-5.2929,-5.2929,-5.2578,-5.2226,-5.2226,-5.18,-5.1398,-5.1398,-5.0946,-5.0519,-5.0519,-5.0092,-4.9715,-4.9715,-4.964,-4.959,-4.959,-4.959,-4.959,-4.959,-4.959,-4.959,-4.959,-4.8736,-4.8134,-4.8134,-4.8134,-4.8134,-4.8134,-4.8134,-4.8134,-4.8134,-4.8134,-4.8134,-4.8134,-4.8134,-4.8134,-4.8134,-4.8636,-4.8887,-4.8887,-4.9364,-4.959,-4.959,-4.959,-4.959,-4.2665,-4.3639,-4.4367,-4.3915,-4.3037,-4.1785,-3.9521,-3.7086,-3.45,-3.1763,-2.9478,-2.7806,-2.7052,-2.9001,-3.1772,-3.4981,-3.8367,-4.1768,-4.5097,-4.6894,-4.7628,-4.692,-4.65,-4.6312,-4.6291,-4.6301,-4.6305,-4.6276,-4.6316,-4.7284,-4.9501,-4.9621,-4.959,-4.959,-4.959,-4.959,-4.959,-4.959,-4.959,-4.959,-4.959,-4.959,-4.9615,-4.9628,-5.0797,-5.2905,-5.2894,-5.2923,-5.2923,-5.2904,-5.2929,-5.2929,-5.2929,-5.2929,-5.2929,-5.2929,-5.2929,-5.2929,-5.2929,-5.2929,-5.2929,-5.2929,-5.2929,-5.2929,-5.2929,-5.2929,-5.2929,-5.2929,-5.2854,-5.2779,-5.2779,-5.2377,-5.1975,-5.1975,-5.1523,-5.1122,-5.1122,-5.067,-5.0268,-5.0268,-4.9916,-4.959,-4.959,-4.959,-4.959,-4.959,-4.959,-4.959,-4.959,-4.9414,-4.9314,-4.9314,-4.9314,-4.9314,-4.9314,-4.9314,-4.9314,-4.9314,-4.9314,-4.9314,-4.9314,-4.9314,-4.9314,-4.9314,-4.9414,-4.9464,-4.9464,-4.954,-4.959,-4.959,-4.959,-4.959,-4.3539,-4.4443,-4.4945,-4.4367,-4.3187,-4.1333,-3.7914,-3.5203,-3.2466,-2.9151,-2.7369,-2.6239,-2.5711,-2.7871,-3.0417,-3.2574,-3.6333,-3.9854,-4.2544,-4.5323,-4.7296,-4.7956,-4.701,-4.6295,-4.6326,-4.6301,-4.633,-4.6289,-4.7407,-4.8459,-4.9532,-4.9595,-4.959,-4.959,-4.959,-4.959,-4.959,-4.959,-4.959,-4.959,-4.959,-4.9626,-4.9631,-5.0779,-5.1892,-5.2902,-5.2934,-5.2929,-5.2929,-5.2929,-5.2929,-5.2929,-5.2929,-5.2929,-5.2929,-5.2929,-5.2929,-5.2929,-5.2929,-5.2929,-5.2929,-5.2929,-5.2929,-5.2929,-5.2929,-5.2929,-5.2929,-5.2929,-5.2929,-5.2929,-5.2929,-5.2729,-5.2528,-5.2528,-5.2126,-5.1624,-5.1348,-5.1071,-5.087,-5.087,-5.0645,-5.0368,-5.0067,-5.0017,-4.9916,-4.964,-4.959,-4.959,-4.959,-4.959,-4.959,-4.959,-4.959,-4.959,-4.959,-4.959,-4.959,-4.959,-4.959,-4.959,-4.959,-4.959,-4.959,-4.959,-4.959,-4.959,-4.959,-4.959,-4.9741,-5.0017,-5.0017,-5.0193,-4.4166,-4.5045,-4.5347,-4.4769,-4.3212,-4.0701,-3.6508,-3.3401,-3.0507,-2.7027,-2.5636,-2.4983,-2.4675,-2.6556,-2.8712,-3.0357,-3.3946,-3.7337,-3.9537,-4.3204,-4.6425,-4.8617,-4.7358,-4.6301,-4.6301,-4.6316,-4.6309,-4.6327,-4.8333,-4.957,-4.9571,-4.9568,-4.959,-4.959,-4.959,-4.959,-4.959,-4.959,-4.959,-4.959,-4.9601,-4.9581,-4.9685,-5.1915,-5.2877,-5.2928,-5.2916,-5.2929,-5.2929,-5.2929,-5.2929,-5.2929,-5.2929,-5.2929,-5.2929,-5.2929,-5.2929,-5.2929,-5.2929,-5.2929,-5.2929,-5.2929,-5.2929,-5.2929,-5.2929,-5.2929,-5.2929,-5.2929,-5.2929,-5.2929,-5.2929,-5.2929,-5.2929,-5.2929,-5.2603,-5.2176,-5.1724,-5.1548,-5.1448,-5.1448,-5.1373,-5.1147,-5.067,-5.0594,-5.0469,-5.0017,-4.9967,-4.9967,-4.9967,-4.9967,-4.9967,-4.9967,-4.9741,-4.959,-4.959,-4.959,-4.959,-4.959,-4.959,-4.959,-4.959,-4.9715,-4.9766,-4.9766,-4.9891,-4.9967,-4.9967,-4.9967,-5.0167,-5.0594,-5.0594,-5.0845,-4.4166,-4.5045,-4.5347,-4.4769,-4.2635,-3.9772,-3.6358,-3.229,-2.8512,-2.6163,-2.4431,-2.3471,-2.3979,-2.5084,-2.6942,-3.0105,0.0,-3.4255,-3.6485,-4.0548,-4.4128,-4.6305,-4.6411,-4.6301,-4.6301,-4.6273,-4.6266,-4.6315,-4.8319,-4.9579,-4.9604,-4.959,-4.959,-4.959,-4.959,-4.959,-4.959,-4.959,-4.959,-4.959,-4.9566,-4.961,-4.9685,-5.1875,-5.2877,-5.2928,-5.2916,-5.2929,-5.2929,-5.2929,-5.2929,-5.2929,-5.2929,-5.2929,-5.2929,-5.2929,-5.2929,-5.2929,-5.2929,-5.2929,-5.2929,-5.2929,-5.2929,-5.2929,-5.2929,-5.2929,-5.2929,-5.2929,-5.2929,-5.2929,-5.2929,-5.2929,-5.2929,-5.2929,-5.2879,-5.2829,-5.2779,-5.2377,-5.2026,-5.2026,-5.1624,-5.1272,-5.1222,-5.1197,-5.1197,-5.1147,-5.1122,-5.1122,-5.1122,-5.1122,-5.1122,-5.1122,-5.0218,-4.959,-4.959,-4.959,-4.959,-4.959,-4.959,-4.959,-4.959,-5.0067,-5.0343,-5.0343,-5.087,-5.1122,-5.1122,-5.1122,-5.1147,-5.1197,-5.1197,-5.1222,-4.3087,-4.4292,-4.4844,-4.4267,-4.2057,-3.9145,-3.583,-3.1888,-2.8161,-2.5661,-2.4023,-2.3271,-2.3904,-2.4444,-2.5569,0.0,0.0,0.0,-3.2089,-3.8526,-4.385,-4.6055,-4.6289,-4.6297,-4.6311,-4.6298,-4.686,-4.8159,-4.9138,-4.959,-4.959,-4.959,-4.959,-4.959,-4.959,-4.959,-4.959,-4.959,-4.959,-4.959,-4.9586,-5.0293,-5.162,-5.2521,-5.2894,-5.2866,-5.2879,-5.2929,-5.2929,-5.2929,-5.2929,-5.2929,-5.2929,-5.2929,-5.2929,-5.2929,-5.2929,-5.2929,-5.2929,-5.2929,-5.2929,-5.2929,-5.2929,-5.2929,-5.2929,-5.2929,-5.2929,-5.2929,-5.2929,-5.2929,-5.2929,-5.2929,-5.2929,-5.2929,-5.2929,-5.2929,-5.2929,-5.2754,-5.2603,-5.2603,-5.2427,-5.2176,-5.1825,-5.1774,-5.1649,-5.1322,-5.1272,-5.1272,-5.1272,-5.1272,-5.1272,-5.1272,-5.087,-5.0594,-5.0594,-5.0594,-5.0594,-5.0594,-5.0594,-5.0594,-5.0594,-5.082,-5.0946,-5.0946,-5.1172,-5.1272,-5.1272,-5.1272,-5.1448,-5.1774,-5.1774,-5.195,-4.1806,-4.3288,-4.4041,-4.3664,-4.1354,-3.8366,-3.5203,-3.1336,-2.7745,-2.5302,-2.3898,-2.3221,-2.3678,-2.3847,-2.4436,0.0,0.0,-2.6508,-2.9418,-3.5181,-4.0144,-4.3049,-4.5085,-4.6264,-4.6297,-4.6884,-4.792,-4.9482,-4.9593,-4.959,-4.959,-4.959,-4.959,-4.959,-4.959,-4.959,-4.959,-4.959,-4.959,-4.959,-4.9626,-5.0781,-5.289,-5.2925,-5.2877,-5.2929,-5.2929,-5.2929,-5.2929,-5.2929,-5.2929,-5.2929,-5.2929,-5.2929,-5.2929,-5.2929,-5.2929,-5.2929,-5.2929,-5.2929,-5.2929,-5.2929,-5.2929,-5.2929,-5.2929,-5.2929,-5.2929,-5.2929,-5.2929,-5.2929,-5.2929,-5.2929,-5.2929,-5.2929,-5.2929,-5.2929,-5.2929,-5.2929,-5.2929,-5.2929,-5.2929,-5.2804,-5.2427,-5.2352,-5.2226,-5.1825,-5.1774,-5.1774,-5.1774,-5.1774,-5.1774,-5.1774,-5.1774,-5.1624,-5.1297,-5.1272,-5.1272,-5.1272,-5.1272,-5.1272,-5.1272,-5.1448,-5.1523,-5.1523,-5.1674,-5.1774,-5.1774,-5.1774,-5.1975,-5.2352,-5.2352,-5.2553,-4.0423,-4.2158,-4.2986,-4.2986,-4.0475,-3.7312,-3.455,-3.0482,-2.6841,-2.5159,-2.3898,-2.3095,-2.312,-2.3096,-2.3614,0.0,0.0,0.0,-2.9179,-2.9871,-3.1572,-3.5954,-4.2292,-4.6272,-4.6327,-4.8257,-4.9582,-4.9604,-4.959,-4.959,-4.959,-4.959,-4.959,-4.959,-4.959,-4.959,-4.959,-4.959,-4.959,-4.959,-4.9591,-5.0745,-5.289,-5.2886,-5.2876,-5.2929,-5.2929,-5.2929,-5.2929,-5.2929,-5.2929,-5.2929,-5.2929,-5.2929,-5.2929,-5.2929,-5.2929,-5.2929,-5.2929,-5.2929,-5.2929,-5.2929,-5.2929,-5.2929,-5.2929,-5.2929,-5.2929,-5.2929,-5.2929,-5.2929,-5.2929,-5.2929,-5.2929,-5.2929,-5.2929,-5.2929,-5.2929,-5.2929,-5.2929,-5.2929,-5.2929,-5.2929,-5.2929,-5.2929,-5.2929,-5.2904,-5.2904,-5.2904,-5.2904,-5.2904,-5.2904,-5.2904,-5.2904,-5.2477,-5.1373,-5.1272,-5.1272,-5.1272,-5.1272,-5.1272,-5.1272,-5.18,-5.2101,-5.2101,-5.2628,-5.2904,-5.2904,-5.2904,-5.2904,-5.2929,-5.2929,-5.2929,-3.6107,-3.7613,-3.8416,-3.799,-3.6533,-3.4675,-3.2641,-2.9654,-2.6816,-2.5159,-2.3898,-2.3095,-2.3095,-2.3105,-2.3238,-2.3777,0.0,0.0,-2.9381,-3.1105,-3.2604,-3.3986,-3.8653,-4.2977,-4.6005,-4.8263,-4.9582,-4.9604,-4.959,-4.959,-4.959,-4.959,-4.959,-4.959,-4.959,-4.959,-4.959,-4.959,-4.959,-4.959,-4.9561,-4.9937,-5.072,-5.2209,-5.2675,-5.2377,-5.2754,-5.2929,-5.2929,-5.2929,-5.2929,-5.2929,-5.2929,-5.2929,-5.2929,-5.2929,-5.2929,-5.2929,-5.2929,-5.2929,-5.2929,-5.2929,-5.2929,-5.2929,-5.2929,-5.2929,-5.2929,-5.2929,-5.2929,-5.2929,-5.2929,-5.2929,-5.2929,-5.2929,-5.2929,-5.2929,-5.2929,-5.2929,-5.2929,-5.2929,-5.2929,-5.2929,-5.2929,-5.2929,-5.2929,-5.2929,-5.2929,-5.2929,-5.2929,-5.2929,-5.2929,-5.2929,-5.2929,-5.2779,-5.2427,-5.2402,-5.2402,-5.2402,-5.2402,-5.2402,-5.2402,-5.2578,-5.2678,-5.2678,-5.2829,-5.2929,-5.2929,-5.2929,-5.2929,-5.2929,-5.2929,-5.2929,-3.2893,-3.4751,-3.5705,-3.5533,-3.4354,-3.2842,-3.116,-2.8649,-2.6239,-2.4808,-2.3747,-2.3095,-2.3095,-2.3099,-2.3108,-2.3084,-2.7798,-3.197,-3.3359,-3.327,-3.4021,-3.6527,-4.0019,-4.3281,-4.6016,-4.8292,-4.9594,-4.962,-4.9579,-4.959,-4.959,-4.959,-4.959,-4.959,-4.959,-4.959,-4.959,-4.959,-4.959,-4.959,-4.959,-4.9571,-4.966,-5.1327,-5.1949,-5.1825,-5.2377,-5.2628,0.0,-5.2854,-5.2929,-5.2929,-5.2929,-5.2929,-5.2929,-5.2929,-5.2929,-5.2929,-5.2929,-5.2929,-5.2929,-5.2929,-5.2929,-5.2929,-5.2929,-5.2929,-5.2929,-5.2929,-5.2929,-5.2929,-5.2929,-5.2929,-5.2929,-5.2929,-5.2929,-5.2929,-5.2929,-5.2929,-5.2929,-5.2929,-5.2929,-5.2929,-5.2929,-5.2929,-5.2929,-5.2929,-5.2929,-5.2929,-5.2929,-5.2929,-5.2929,-5.2929,-5.2929,-5.2929,-5.2929,-5.2929,-5.2929,-5.2929,-5.2929,-5.2929,-5.2929,-5.2929,-5.2929,-5.2929,-5.2929,-5.2929,-5.2929,-5.2929,-5.2929,-5.2929,-5.2929,-5.2929,0.0,-3.2893,-3.4248,-3.468,-3.3276,-3.1386,-2.9854,-2.7444,0.0,-2.4205,-2.3521,-2.309,-2.311,-2.309,-2.3091,-2.3093,-3.1903,-3.8826,-3.8967,-3.5869,-3.5933,-4.224,-4.4913,-4.6286,-4.6307,-4.8156,-4.9441,-4.9596,-4.9607,-4.959,-4.959,-4.959,-4.959,-4.959,-4.959,-4.959,-4.959,-4.959,-4.959,-4.959,-4.959,-4.9636,-4.961,-5.0393,-5.0927,-5.1247,-5.18,-5.2051,-5.2076,-5.2628,-5.2879,-5.2879,-5.2904,-5.2929,-5.2929,-5.2929,-5.2929,-5.2929,-5.2929,-5.2929,-5.2929,-5.2929,-5.2929,-5.2929,-5.2929,-5.2929,-5.2929,-5.2929,-5.2929,-5.2929,-5.2929,-5.2929,-5.2929,-5.2929,-5.2929,-5.2929,-5.2929,-5.2929,-5.2929,-5.2929,-5.2929,-5.2929,-5.2929,-5.2929,-5.2929,-5.2929,-5.2929,-5.2929,-5.2929,-5.2929,-5.2929,-5.2929,-5.2929,-5.2929,-5.2929,-5.2929,-5.2929,-5.2929,-5.2929,-5.2929,-5.2929,-5.2929,-5.2929,-5.2929,-5.2929,-5.2929,-5.2929,-5.2929,-5.2929,-5.2929,-5.2929,-5.2929,-2.6138,0.0,-2.836,-2.8021,-2.7871,-2.763,0.0,-2.5762,-2.4808,-2.413,-2.3521,-2.3094,-2.3116,-2.3098,-2.3078,-2.3091,-2.6774,-3.0168,-3.1888,-3.5617,-3.9348,-4.2595,-4.4941,-4.6323,-4.632,-4.6749,-4.7821,-4.9482,-4.9607,-4.959,-4.959,-4.959,-4.959,-4.959,-4.959,-4.959,-4.959,-4.959,-4.959,-4.959,-4.959,-4.9576,-4.9611,-5.0358,-5.0635,-5.0645,-5.1222,-5.1473,-5.1523,-5.2076,-5.2302,-5.2352,-5.2754,-5.2929,-5.2929,-5.2929,-5.2929,-5.2929,-5.2929,-5.2929,-5.2929,-5.2929,-5.2929,-5.2929,-5.2929,-5.2929,-5.2929,-5.2929,-5.2929,-5.2929,-5.2929,-5.2929,-5.2929,-5.2929,-5.2929,-5.2929,-5.2929,-5.2929,-5.2929,-5.2929,-5.2929,-5.2929,-5.2929,-5.2929,-5.2929,-5.2929,-5.2929,-5.2929,-5.2929,-5.2929,-5.2929,-5.2929,-5.2929,-5.2929,-5.2929,-5.2929,-5.2929,-5.2929,-5.2929,-5.2929,-5.2929,-5.2929,-5.2929,-5.2929,-5.2929,-5.2929,-5.2929,-5.2929,-5.2929,-5.2929,-5.2929,-5.2929,-2.3923,-2.541,-2.6851,-2.6766,-2.6791,-2.6725,-2.6147,0.0,-2.428,-2.3697,-2.3321,-2.3119,-2.3084,-2.3094,-2.3439,-2.4477,-2.5685,-2.7644,-3.0861,-3.7047,-4.2047,-4.4269,-4.5588,-4.6323,-4.6284,-4.6303,-4.7246,-4.9418,-4.9634,-4.9632,-4.959,-4.959,-4.959,-4.959,-4.959,-4.959,-4.959,-4.959,-4.959,-4.959,-4.959,-4.959,-4.9615,-5.0006,-5.0157,-5.0067,-5.0645,-5.0896,-5.0921,-5.1498,-5.1875,-5.2126,-5.2427,-5.2703,-5.2929,-5.2929,-5.2929,-5.2929,-5.2929,-5.2929,-5.2929,-5.2929,-5.2929,-5.2929,-5.2929,-5.2929,-5.2929,-5.2929,-5.2929,-5.2929,-5.2929,-5.2929,-5.2929,-5.2929,-5.2929,-5.2929,-5.2929,-5.2929,-5.2929,-5.2929,-5.2929,-5.2929,-5.2929,-5.2929,-5.2929,-5.2929,-5.2929,-5.2929,-5.2929,-5.2929,-5.2929,-5.2929,-5.2929,-5.2929,-5.2929,-5.2929,-5.2929,-5.2929,-5.2929,-5.2929,-5.2929,-5.2929,-5.2929,-5.2929,-5.2929,-5.2929,-5.2929,-5.2929,-5.2929,-5.2929,-5.2929,-5.2929,-2.3321,-2.5234,-2.7193,-2.7318,-2.7193,-2.6901,-2.6273,0.0,0.0,0.0,-2.3205,-2.3121,-2.3101,-2.3377,-2.4356,-2.6631,-2.7297,-2.9029,-3.3482,-3.9264,-4.383,-4.6036,-4.6287,-4.6298,-4.6276,-4.6298,-4.7107,-4.8946,-4.9392,-4.9609,-4.9618,-4.9579,-4.9604,-4.959,-4.959,-4.959,-4.959,-4.959,-4.959,-4.959,-4.959,-4.959,-4.959,-4.959,-4.959,-4.9615,-5.0092,-5.0293,-5.0343,-5.0921,-5.1423,-5.1875,-5.2026,-5.2402,-5.2804,-5.2904,-5.2929,-5.2929,-5.2929,-5.2929,-5.2929,-5.2929,-5.2929,-5.2929,-5.2929,-5.2929,-5.2929,-5.2929,-5.2929,-5.2929,-5.2929,-5.2929,-5.2929,-5.2929,-5.2929,-5.2929,-5.2929,-5.2929,-5.2929,-5.2929,-5.2929,-5.2929,-5.2929,-5.2929,-5.2929,-5.2929,-5.3005,-5.3005,-5.2929,-5.3005,-5.3005,-5.2929,-5.2929,-5.2929,-5.2929,-5.2929,-5.2929,-5.2929,-5.2929,-5.2929,-5.2929,-5.2929,-5.2929,-5.2929,-5.2929,-5.2929,-5.2929,-5.2929,-5.2929,-5.2929,-5.2929,-5.2929,-2.4274,-2.5561,-2.6197,-2.4324,-2.4883,-2.5586,-2.4607,0.0,0.0,0.0,0.0,-2.3102,-2.311,-2.4685,-2.6736,-2.891,-3.0858,-3.3621,-3.806,-4.1155,-4.3853,-4.6068,-4.6298,-4.6311,-4.6301,-4.6298,-4.645,-4.6747,-4.852,-4.9594,-4.9609,-4.9634,-4.9634,-4.959,-4.959,-4.959,-4.959,-4.959,-4.959,-4.959,-4.959,-4.959,-4.959,-4.959,-4.959,-4.959,-4.969,-4.9715,-4.9766,-5.0318,-5.0594,-5.077,-5.1724,-5.2151,-5.2277,-5.2754,-5.2929,-5.2929,-5.2929,-5.2929,-5.2929,-5.2929,-5.2929,-5.2929,-5.2929,-5.2929,-5.2929,-5.2929,-5.2929,-5.2929,-5.2929,-5.2929,-5.2929,-5.2929,-5.2929,-5.2929,-5.2929,-5.2929,-5.2929,-5.2929,-5.2929,-5.2929,-5.2929,-5.2929,-5.2929,-5.2929,-5.3306,-5.3432,-5.298,-5.3306,-5.3406,-5.298,-5.2929,-5.2929,-5.2929,-5.2929,-5.2929,-5.2929,-5.2929,-5.2929,-5.2929,-5.2929,-5.2929,-5.2929,-5.2929,-5.2929,-5.2929,-5.2929,-5.2929,-5.2929,-5.2929,-5.2929,-2.377,-2.4732,-2.5385,-2.4657,-2.5711,-2.6816,-2.6339,-2.5963,0.0,0.0,-2.4539,-2.3837,-2.3233,-2.5941,-2.9811,-3.4379,-3.7015,-3.9144,-4.12,-4.3415,-4.5124,-4.618,-4.6279,-4.6301,-4.6301,-4.633,-4.6298,-4.6289,-4.7269,-4.7844,-4.7833,-4.8938,-4.9621,-4.957,-4.9595,-4.9607,-4.959,-4.959,-4.959,-4.959,-4.959,-4.959,-4.959,-4.959,-4.959,-4.959,-4.959,-4.959,-4.9615,-4.9866,-5.0142,-5.0469,-5.0996,-5.1574,-5.2176,-5.2729,-5.2929,-5.2929,-5.2929,-5.2929,-5.2929,-5.2929,-5.2929,-5.2929,-5.2929,-5.2929,-5.2929,-5.2929,-5.2929,-5.2929,-5.2929,-5.2929,-5.2929,-5.2929,-5.2929,-5.2929,-5.2929,-5.2929,-5.2929,-5.2929,-5.2929,-5.2929,-5.2929,-5.3155,-5.3356,-5.3356,-5.3808,-5.4084,-5.3833,-5.4009,-5.4084,-5.3833,-5.3808,-5.3808,-5.3808,-5.3808,-5.3557,-5.2955,-5.2929,-5.2929,-5.2929,-5.2929,-5.2929,-5.2929,-5.2929,-5.2929,-5.2929,-5.2929,-5.2929,-5.2929,-5.2929,-5.2929,-2.3508,-2.4023,-2.4782,-2.5435,-2.6666,-2.7896,-2.8549,-2.7846,-2.6976,-2.6747,-2.6094,-2.5217,-2.409,-2.8376,-3.393,-3.9554,-4.1884,-4.2997,-4.299,-4.4878,-4.6302,-4.6324,-4.627,-4.6301,-4.6301,-4.6301,-4.6305,-4.6312,-4.6337,-4.6278,-4.6266,-4.7931,-4.8835,-4.885,-4.885,-4.9064,-4.9593,-4.9414,-4.9439,-4.959,-4.959,-4.959,-4.959,-4.959,-4.959,-4.959,-4.959,-4.959,-4.959,-4.959,-4.9841,-5.0243,-5.0368,-5.1122,-5.2151,-5.2578,-5.2829,-5.2929,-5.2929,-5.2929,-5.2929,-5.2929,-5.2929,-5.2929,-5.2929,-5.2929,-5.2929,-5.2929,-5.2929,-5.2929,-5.2929,-5.2929,-5.2929,-5.2929,-5.2929,-5.2929,-5.2929,-5.2929,-5.2929,-5.2929,-5.2929,-5.2955,-5.308,-5.3432,-5.3758,-5.3884,-5.4386,-5.4712,-5.4658,-5.4687,-5.4712,-5.4587,-5.4561,-5.4561,-5.4561,-5.4561,-5.416,-5.3181,-5.3005,-5.2929,-5.2929,-5.2929,-5.2929,-5.2929,-5.2929,-5.2929,-5.2929,-5.2929,-5.2929,-5.2929,-5.2929,-5.2929,-2.4602,-2.4381,-2.4305,-2.5335,-2.6122,-2.7278,-2.9854,-2.9515,-2.9059,-3.0264,-2.91,-2.751,-2.6442,-3.3258,-3.9826,-4.2361,-4.2892,-4.2987,-4.3012,-4.49,-4.6313,-4.632,-4.6301,-4.6301,-4.6301,-4.6301,-4.6326,-4.6291,-4.6291,-4.6295,-4.6278,-4.6475,-4.6526,-4.6575,-4.6513,-4.7495,-4.9584,-4.8925,-4.8949,-4.959,-4.959,-4.959,-4.959,-4.959,-4.959,-4.959,-4.959,-4.959,-4.959,-4.959,-4.9615,-4.9715,-5.0218,-5.1122,-5.2101,-5.2151,-5.2477,-5.2929,-5.2929,-5.2929,-5.2929,-5.2929,-5.2929,-5.2929,-5.2929,-5.2929,-5.2929,-5.2929,-5.2929,-5.2929,-5.2929,-5.2929,-5.2929,-5.2929,-5.2929,-5.2929,-5.2929,-5.2929,-5.2929,-5.2929,-5.2929,-5.308,-5.3557,-5.3683,-5.3884,-5.4411,-5.4988,-5.5139,-5.4637,-5.5013,-5.5139,-5.4612,-5.4561,-5.4561,-5.4561,-5.4561,-5.431,-5.3683,-5.3206,-5.2929,-5.2929,-5.2929,-5.2929,-5.2929,-5.2929,-5.2929,-5.2929,-5.2929,-5.2929,-5.2929,-5.2929,-5.2929,-2.4524,-2.4563,-2.4813,-2.5895,-2.6816,-2.8021,-3.0131,-3.1085,-3.1822,-3.3015,-3.2686,-3.1881,-3.0812,-3.4456,-3.836,-4.059,-4.2084,-4.2992,-4.2979,-4.4918,-4.628,-4.6285,-4.6301,-4.6301,-4.6301,-4.6301,-4.6301,-4.6301,-4.6301,-4.6316,-4.6295,-4.632,-4.6287,-4.6279,-4.6303,-4.6948,-4.8234,-4.856,-4.8837,-4.9088,-4.9439,-4.959,-4.959,-4.959,-4.959,-4.959,-4.959,-4.959,-4.959,-4.959,-4.959,-4.964,-5.0193,-5.067,-5.1147,-5.185,-5.2226,-5.2477,-5.2804,-5.2929,-5.2929,-5.2929,-5.2929,-5.2929,-5.2929,-5.2929,-5.2929,-5.2929,-5.2929,-5.2929,-5.2929,-5.2929,-5.2929,-5.2929,-5.2929,-5.2929,-5.2929,-5.2929,-5.2929,-5.2929,-5.2929,-5.298,-5.3181,-5.3783,-5.431,-5.4607,-5.534,-5.5817,-5.5616,-5.5767,-5.5817,-5.5616,-5.5591,-5.5591,-5.5591,-5.5265,-5.4988,-5.4762,-5.3909,-5.3256,-5.2929,-5.2929,-5.2929,-5.2929,-5.2929,-5.2929,-5.2929,-5.2929,-5.2929,-5.2929,-5.2929,-5.2929,-2.4226,-2.4316,-2.4849,-2.5744,-2.7168,-2.895,-3.116,-3.2212,-3.3509,-3.6227,-3.7089,-3.6696,-3.4509,-3.5379,-3.7368,-4.0249,-4.2019,-4.3006,-4.2971,-4.4926,-4.6313,-4.6339,-4.6311,-4.6301,-4.6301,-4.6301,-4.6301,-4.6301,-4.6301,-4.6301,-4.6301,-4.6301,-4.6305,-4.6287,-4.6287,-4.6623,-4.737,-4.7946,-4.8335,-4.851,-4.9063,-4.9439,-4.959,-4.959,-4.959,-4.959,-4.959,-4.959,-4.959,-4.959,-4.959,-4.964,-5.0017,-5.0268,-5.0519,-5.1297,-5.1674,-5.1925,-5.2477,-5.2678,-5.2703,-5.2879,-5.2929,-5.2929,-5.2929,-5.2929,-5.2929,-5.2929,-5.2929,-5.2929,-5.2929,-5.2929,-5.2929,-5.2929,-5.2929,-5.2929,-5.2929,-5.2929,-5.2929,-5.2929,-5.2929,-5.298,-5.313,-5.3808,-5.4411,-5.4762,-5.5465,-5.6018,-5.6194,-5.6219,-5.6219,-5.6219,-5.6219,-5.6219,-5.6219,-5.5867,-5.5491,-5.5139,-5.4411,-5.3733,-5.3206,-5.3005,-5.2929,-5.2929,-5.2929,-5.2929,-5.2929,-5.2929,-5.2929,-5.2929,-5.2929,-5.2929,-2.3885,-2.3552,-2.4155,-2.4675,-2.6882,-2.979,-3.3169,-3.2955,-3.3786,-4.0037,-4.2216,-4.1636,-3.7221,-3.6406,-3.7891,-4.2267,-4.3005,-4.2987,-4.2992,-4.489,-4.6269,-4.6307,-4.6279,-4.6301,-4.6301,-4.6301,-4.6301,-4.6301,-4.6301,-4.6301,-4.6301,-4.6301,-4.6301,-4.6301,-4.6301,-4.6663,-4.7352,-4.7179,-4.738,-4.7908,-4.8485,-4.9063,-4.959,-4.959,-4.959,-4.959,-4.959,-4.959,-4.959,-4.959,-4.959,-4.959,-4.959,-4.9916,-5.0419,-5.0419,-5.077,-5.1348,-5.19,-5.2101,-5.2176,-5.2729,-5.2929,-5.2929,-5.2929,-5.2929,-5.2929,-5.2929,-5.2929,-5.2929,-5.2929,-5.2929,-5.2929,-5.2929,-5.2929,-5.2929,-5.2929,-5.2929,-5.2929,-5.2929,-5.2929,-5.308,-5.3607,-5.3708,-5.4084,-5.5189,-5.539,-5.5591,-5.6118,-5.6219,-5.6219,-5.6219,-5.6219,-5.6219,-5.6219,-5.6219,-5.5742,-5.4637,-5.4561,-5.4285,-5.3708,-5.3206,-5.2929,-5.2929,-5.2929,-5.2929,-5.2929,-5.2929,-5.2929,-5.2929,-5.2929,-5.2929,-2.436,-2.4675,-2.5466,-2.635,-2.9227,-3.2389,-3.4435,-3.4965,-3.6505,-4.1468,-4.2749,-4.162,-3.7236,-3.7691,-3.9667,-4.2552,-4.2994,-4.2986,-4.3017,-4.3562,-4.4159,-4.4711,-4.5674,-4.6332,-4.6332,-4.6295,-4.6301,-4.6301,-4.6301,-4.6301,-4.6301,-4.6301,-4.6301,-4.6301,-4.6301,-4.6401,-4.6637,-4.6954,-4.7143,-4.7355,-4.7908,-4.846,-4.9038,-4.9414,-4.959,-4.959,-4.959,-4.959,-4.959,-4.959,-4.959,-4.959,-4.959,-4.969,-4.9891,-5.0268,-5.0519,-5.0745,-5.1322,-5.1523,-5.1624,-5.2176,-5.2352,-5.2427,-5.2804,-5.2929,-5.2929,-5.2929,-5.2929,-5.2929,-5.2929,-5.2929,-5.2929,-5.2929,-5.2929,-5.2929,-5.2929,-5.2929,-5.2929,-5.2929,-5.2929,-5.298,-5.313,-5.3457,-5.3808,-5.416,-5.4536,-5.5013,-5.5566,-5.5968,-5.6219,-5.6219,-5.6219,-5.6219,-5.6219,-5.5867,-5.5491,-5.5164,-5.4411,-5.3708,-5.3181,-5.3005,-5.2929,-5.2929,-5.2929,-5.2929,-5.2929,-5.2929,-5.2929,-5.2929,-5.2929,-5.2929,-2.5013,-2.5798,-2.7088,-2.8559,-3.1336,-3.434,-3.653,-3.7384,-3.8712,-4.2298,-4.299,-4.1917,-3.8364,-3.8781,-4.0408,-4.2618,-4.3005,-4.2981,-4.3012,-4.2992,-4.3266,-4.3994,-4.4602,-4.5338,-4.6246,-4.6281,-4.6305,-4.6305,-4.6285,-4.6301,-4.6301,-4.6301,-4.6301,-4.6301,-4.6301,-4.6301,-4.6301,-4.6652,-4.6803,-4.6803,-4.7355,-4.7782,-4.8159,-4.8912,-4.9264,-4.9289,-4.949,-4.959,-4.959,-4.959,-4.959,-4.959,-4.959,-4.959,-4.964,-4.9967,-5.0092,-5.0167,-5.0745,-5.0946,-5.1021,-5.1599,-5.1774,-5.1875,-5.2427,-5.2603,-5.2653,-5.2879,-5.2929,-5.2929,-5.2929,-5.2929,-5.2929,-5.2929,-5.2929,-5.2929,-5.2929,-5.2929,-5.2929,-5.2929,-5.2929,-5.2929,-5.2929,-5.3181,-5.3457,-5.3658,-5.4185,-5.4687,-5.5013,-5.534,-5.5566,-5.5566,-5.5566,-5.5566,-5.5566,-5.5265,-5.4963,-5.4737,-5.4084,-5.3457,-5.2955,-5.2929,-5.2929,-5.2929,-5.2929,-5.2929,-5.2929,-5.2929,-5.2929,-5.2929,-5.2929,-5.2929,-2.5653,-2.6845,-2.8674,-3.0959,-3.3351,-3.5965,-3.9109,-3.9741,-4.0263,-4.2257,-4.2878,-4.237,-4.0354,-3.9981,-4.0666,-4.2692,-4.2982,-4.2986,-4.2986,-4.3012,-4.3255,-4.3929,-4.3432,-4.378,-4.577,-4.6002,-4.6003,-4.6003,-4.6204,-4.625,-4.6225,-4.6276,-4.6301,-4.6301,-4.6301,-4.6301,-4.6301,-4.6301,-4.6301,-4.6326,-4.6828,-4.7054,-4.7104,-4.8184,-4.8711,-4.8812,-4.9364,-4.959,-4.959,-4.959,-4.959,-4.959,-4.959,-4.959,-4.959,-4.959,-4.959,-4.9665,-5.0167,-5.0343,-5.0444,-5.1021,-5.1197,-5.1297,-5.1875,-5.2076,-5.2201,-5.2703,-5.2879,-5.2929,-5.2929,-5.2929,-5.2929,-5.2929,-5.2929,-5.2929,-5.2929,-5.2929,-5.2929,-5.2929,-5.2929,-5.2929,-5.2929,-5.2929,-5.308,-5.3557,-5.411,-5.4486,-5.4486,-5.4607,-5.4561,-5.4561,-5.4561,-5.4561,-5.4561,-5.4511,-5.426,-5.3733,-5.3658,-5.3406,-5.2955,-5.2929,-5.2929,-5.2929,-5.2929,-5.2929,-5.2929,-5.2929,-5.2929,-5.2929,-5.2929,-5.2929,-2.5578,-2.6945,-2.885,-3.1938,-3.5694,-3.9011,-4.0617,-4.0285,-3.9834,-4.0321,-4.1793,-4.2874,-4.237,-4.2309,-4.2456,-4.2928,-4.2982,-4.2986,-4.2986,-4.2981,-4.3056,-4.3243,-4.3074,-4.3208,-4.3669,-4.3705,-4.373,-4.373,-4.5347,-4.6061,-4.5454,-4.599,-4.6301,-4.6301,-4.6301,-4.6301,-4.6301,-4.6301,-4.6301,-4.6301,-4.6426,-4.6502,-4.6527,-4.7606,-4.8335,-4.8812,-4.9364,-4.959,-4.959,-4.959,-4.959,-4.959,-4.959,-4.959,-4.959,-4.959,-4.959,-4.9615,-4.9741,-4.9766,-4.9866,-5.0419,-5.0594,-5.072,-5.1272,-5.1749,-5.2126,-5.2251,-5.2603,-5.2929,-5.2929,-5.2929,-5.2929,-5.2929,-5.2929,-5.2929,-5.2929,-5.2929,-5.2929,-5.2929,-5.2929,-5.2929,-5.2929,-5.2929,-5.2955,-5.308,-5.3557,-5.3884,-5.3884,-5.4285,-5.4561,-5.4561,-5.4561,-5.4561,-5.4561,-5.416,-5.3833,-5.3708,-5.3331,-5.3055,-5.2929,-5.2929,-5.2929,-5.2929,-5.2929,-5.2929,-5.2929,-5.2929,-5.2929,-5.2929,-5.2929,-5.2929,-2.6378,-2.8186,-3.0394,-3.4248,-3.7841,-4.0782,-4.1892,-4.0874,-3.9713,-3.9724,-4.0621,-4.1757,-4.2798,-4.2994,-4.2979,-4.2979,-4.2982,-4.2986,-4.2986,-4.2986,-4.2986,-4.2986,-4.3025,-4.3012,-4.3012,-4.3027,-4.2996,-4.2996,-4.4386,-4.507,-4.4686,-4.5429,-4.5924,-4.5924,-4.6175,-4.6301,-4.6301,-4.6301,-4.6301,-4.6301,-4.6301,-4.6301,-4.6326,-4.7154,-4.7832,-4.8385,-4.8962,-4.9213,-4.9213,-4.949,-4.959,-4.959,-4.959,-4.959,-4.959,-4.959,-4.959,-4.959,-4.959,-4.959,-4.964,-4.9941,-5.0017,-5.0117,-5.0695,-5.1071,-5.1423,-5.195,-5.2302,-5.2603,-5.2854,-5.2929,-5.2929,-5.2929,-5.2929,-5.2929,-5.2929,-5.2929,-5.2929,-5.2929,-5.2929,-5.2929,-5.2929,-5.2929,-5.2929,-5.2929,-5.3155,-5.3331,-5.3331,-5.3582,-5.3783,-5.3783,-5.3783,-5.3783,-5.3783,-5.3507,-5.3331,-5.3331,-5.308,-5.2929,-5.2929,-5.2929,-5.2929,-5.2929,-5.2929,-5.2929,-5.2929,-5.2929,-5.2929,-5.2929,-5.2929,-5.2929,-2.6607,-2.9201,-3.2154,-3.6413,-3.9297,-4.1384,-4.2682,-4.1277,-3.971,-3.9696,-3.9688,-4.0237,-4.2067,-4.2417,-4.2456,-4.2456,-4.2645,-4.2811,-4.2811,-4.2911,-4.2986,-4.2986,-4.2986,-4.2986,-4.2986,-4.2987,-4.2992,-4.2992,-4.3679,-4.4086,-4.4028,-4.4853,-4.5347,-4.5347,-4.5773,-4.6075,-4.6175,-4.6175,-4.6225,-4.6301,-4.6301,-4.6301,-4.6326,-4.6778,-4.728,-4.7807,-4.8385,-4.8611,-4.8661,-4.9213,-4.9464,-4.9464,-4.9565,-4.959,-4.959,-4.959,-4.959,-4.959,-4.959,-4.959,-4.959,-4.959,-4.959,-4.9665,-5.0142,-5.0343,-5.0645,-5.1674,-5.2026,-5.2226,-5.2779,-5.2929,-5.2929,-5.2929,-5.2929,-5.2929,-5.2929,-5.2929,-5.2929,-5.2929,-5.2929,-5.2929,-5.2929,-5.2929,-5.2929,-5.2929,-5.2929,-5.2929,-5.2929,-5.2929,-5.2929,-5.2929,-5.2929,-5.2929,-5.2929,-5.2929,-5.2929,-5.2929,-5.2929,-5.2929,-5.2929,-5.2929,-5.2929,-5.2929,-5.2929,-5.2929,-5.2929,-5.2929,-5.2929,-5.2929,-5.2929,-5.2929,-2.3682,-2.7892,-3.2928,-3.657,-3.8718,-4.0466,-4.2527,-4.1309,-3.9696,-3.9697,-3.9688,-3.9777,-4.0084,-4.0116,-4.0124,-4.0124,-4.1226,-4.2048,-4.2048,-4.2579,-4.2986,-4.2986,-4.2986,-4.2986,-4.2986,-4.3011,-4.2981,-4.2981,-4.3696,-4.4023,-4.3833,-4.4418,-4.4744,-4.4744,-4.4819,-4.5095,-4.5598,-4.5598,-4.5849,-4.6301,-4.6301,-4.6301,-4.6301,-4.6376,-4.6728,-4.7255,-4.7782,-4.8033,-4.8083,-4.8636,-4.8887,-4.8937,-4.9414,-4.959,-4.959,-4.959,-4.959,-4.959,-4.959,-4.959,-4.959,-4.959,-4.959,-4.9615,-4.969,-5.0042,-5.0544,-5.1197,-5.1724,-5.2226,-5.2779,-5.2929,-5.2929,-5.2929,-5.2929,-5.2929,-5.2929,-5.2929,-5.2929,-5.2929,-5.2929,-5.2929,-5.2929,-5.2929,-5.2929,-5.2929,-5.2929,-5.2929,-5.2929,-5.2929,-5.2929,-5.2929,-5.2929,-5.2929,-5.2929,-5.2929,-5.2929,-5.2929,-5.2929,-5.2929,-5.2929,-5.2929,-5.2929,-5.2929,-5.2929,-5.2929,-5.2929,-5.2929,-5.2929,-5.2929,-5.2929,-5.2929,-2.5747,-2.9011,-3.2322,-3.5965,-3.8329,-3.9642,-3.9373,-3.9525,-3.9702,-3.9677,-3.9675,-3.9697,-3.9717,-3.9702,-3.9841,-4.0255,-4.0885,-4.1339,-4.1522,-4.2158,-4.2564,-4.2564,-4.2841,-4.2986,-4.2986,-4.2986,-4.2986,-4.2986,-4.3294,-4.3444,-4.3338,-4.3865,-4.4166,-4.4166,-4.4468,-4.4744,-4.4995,-4.5321,-4.5773,-4.6301,-4.6301,-4.6301,-4.6301,-4.6301,-4.6451,-4.6702,-4.723,-4.7481,-4.7506,-4.8058,-4.8485,-4.8786,-4.9038,-4.9314,-4.959,-4.959,-4.959,-4.959,-4.959,-4.959,-4.959,-4.959,-4.959,-4.959,-4.959,-4.9766,-5.0067,-5.0645,-5.1197,-5.1774,-5.2327,-5.2703,-5.2929,-5.2929,-5.2929,-5.2929,-5.2929,-5.2929,-5.2929,-5.2929,-5.2929,-5.2929,-5.2929,-5.2929,-5.2929,-5.2929,-5.2929,-5.2929,-5.2929,-5.2929,-5.2929,-5.2929,-5.2929,-5.2929,-5.2929,-5.2929,-5.2929,-5.2929,-5.2929,-5.2929,-5.2929,-5.2929,-5.2929,-5.2929,-5.2929,-5.2929,-5.2929,-5.2929,-5.2929,-5.2929,-5.2929,-5.2929,-2.6397,-2.8418,-3.0209,-3.449,-3.7217,-3.8441,-3.6748,-3.7688,-3.8887,-3.8868,-3.9297,-3.9677,-3.9675,-3.9692,-3.9887,-4.0427,-4.0621,-4.0789,-4.1075,-4.1605,-4.1957,-4.1957,-4.2308,-4.2559,-4.2559,-4.2685,-4.2816,-4.2816,-4.2886,-4.2986,-4.2986,-4.3363,-4.3589,-4.3589,-4.3991,-4.4267,-4.4418,-4.497,-4.5547,-4.61,-4.61,-4.6175,-4.6301,-4.6301,-4.6301,-4.6326,-4.6753,-4.6928,-4.6954,-4.7506,-4.7958,-4.8385,-4.8661,-4.9012,-4.9414,-4.954,-4.959,-4.959,-4.959,-4.959,-4.959,-4.959,-4.959,-4.959,-4.959,-4.959,-4.9715,-5.0268,-5.082,-5.1398,-5.1975,-5.2528,-5.2929,-5.2929,-5.2929,-5.2929,-5.2929,-5.2929,-5.2929,-5.2929,-5.2929,-5.2929,-5.2929,-5.2929,-5.2929,-5.2929,-5.2929,-5.2929,-5.2929,-5.2929,-5.2929,-5.2929,-5.2929,-5.2929,-5.2929,-5.2929,-5.2929,-5.2929,-5.2929,-5.2929,-5.2929,-5.2929,-5.2929,-5.2929,-5.2929,-5.2929,-5.2929,-5.2929,-5.2929,-5.2929,-5.2929,-5.2929,-2.2532,-2.407,-2.5936,-3.1798,-3.4962,-3.6534,-3.6442,-3.6493,-3.6552,-3.6604,-3.8241,-3.9728,-3.9677,-3.9701,-3.9722,-3.9747,-4.0199,-4.0498,-4.0551,-4.0974,-4.1326,-4.1326,-4.1351,-4.1376,-4.1376,-4.1907,-4.2263,-4.2263,-4.274,-4.2986,-4.2986,-4.3011,-4.3011,-4.3011,-4.3062,-4.3313,-4.384,-4.4392,-4.497,-4.5522,-4.5522,-4.5799,-4.6301,-4.6301,-4.6301,-4.6301,-4.6351,-4.6351,-4.6401,-4.6954,-4.7143,-4.733,-4.836,-4.8786,-4.8887,-4.9414,-4.959,-4.959,-4.959,-4.959,-4.959,-4.959,-4.959,-4.959,-4.959,-4.959,-4.9715,-5.0268,-5.082,-5.1398,-5.1975,-5.2528,-5.2929,-5.2929,-5.2929,-5.2929,-5.2929,-5.2929,-5.2929,-5.2929,-5.2929,-5.2929,-5.2929,-5.2929,-5.2929,-5.2929,-5.2929,-5.2929,-5.2929,-5.2929,-5.2929,-5.2929,-5.2929,-5.2929,-5.2929,-5.2929,-5.2929,-5.2929,-5.2929,-5.2929,-5.2929,-5.2929,-5.2929,-5.2929,-5.2929,-5.2929,-5.2929,-5.2929,-5.2929,-5.2929,-5.2929,-5.2929,-2.2482,-2.2289,-2.3271,-3.1139,-3.2646,-3.2904,-3.5737,-3.6412,-3.6408,-3.6404,-3.7046,-3.7715,-3.8166,-3.9069,-3.9697,-3.9697,-3.9848,-3.9998,-3.9998,-4.0475,-4.0802,-4.0802,-4.1075,-4.1275,-4.1275,-4.153,-4.163,-4.163,-4.2133,-4.2514,-4.2514,-4.2785,-4.2986,-4.2986,-4.2986,-4.3237,-4.379,-4.3991,-4.4367,-4.4945,-4.5296,-4.5598,-4.5799,-4.615,-4.6301,-4.6301,-4.6301,-4.6301,-4.6326,-4.6527,-4.6803,-4.7143,-4.7933,-4.8435,-4.8837,-4.9389,-4.959,-4.959,-4.959,-4.959,-4.959,-4.959,-4.959,-4.959,-4.959,-4.959,-4.964,-4.9841,-5.0569,-5.1322,-5.1523,-5.2251,-5.2929,-5.2929,-5.2929,-5.2929,-5.2929,-5.2929,-5.2929,-5.2929,-5.2929,-5.2929,-5.2929,-5.2929,-5.2804,-5.2452,-5.2703,-5.2804,-5.2452,-5.2703,-5.2929,-5.2929,-5.2929,-5.2929,-5.2929,-5.2929,-5.2929,-5.2929,-5.2929,-5.2929,-5.2929,-5.2929,-5.2929,-5.2929,-5.2929,-5.2929,-5.2929,-5.2929,-5.2929,-5.2929,-5.2929,-5.2929,-2.089,-1.9997,-2.0282,-2.6969,-2.8675,-2.9843,-3.429,-3.5889,-3.6411,-3.6383,-3.6422,-3.6624,-3.7342,-3.8392,-3.9195,-3.9396,-3.9572,-3.9697,-3.9697,-3.9998,-4.0249,-4.0249,-4.0576,-4.0724,-4.0724,-4.0953,-4.1,-4.1,-4.158,-4.1957,-4.2213,-4.2564,-4.2785,-4.2961,-4.2986,-4.3162,-4.3514,-4.3514,-4.379,-4.4342,-4.4744,-4.5121,-4.5497,-4.5874,-4.6125,-4.6301,-4.6301,-4.6301,-4.6301,-4.6301,-4.6527,-4.6903,-4.7431,-4.7983,-4.856,-4.9113,-4.9439,-4.959,-4.959,-4.959,-4.959,-4.959,-4.959,-4.959,-4.959,-4.959,-4.959,-4.959,-5.0419,-5.1272,-5.1272,-5.2101,-5.2929,-5.2929,-5.2929,-5.2929,-5.2929,-5.2929,-5.2929,-5.2929,-5.2929,-5.2929,-5.2929,-5.2929,-5.2804,-5.2427,-5.2678,-5.2804,-5.2427,-5.2703,-5.2929,-5.2929,-5.2929,-5.2929,-5.2929,-5.2929,-5.2929,-5.2929,-5.2929,-5.2929,-5.2929,-5.2929,-5.2929,-5.2929,-5.2929,-5.2929,-5.2929,-5.2929,-5.2929,-5.2929,-5.2929,-5.2929,0.0,0.0,0.0,-1.9194,-2.323,-2.7754,-3.187,-3.4427,-3.5974,-3.6294,-3.6282,-3.6449,-3.7283,-3.7736,-3.814,-3.8718,-3.9295,-3.9672,-3.9672,-3.9697,-3.9697,-3.9697,-3.9697,-3.9697,-3.9697,-4.0174,-4.0501,-4.0501,-4.0949,-4.1555,-4.2137,-4.2187,-4.2464,-4.2936,-4.2961,-4.2986,-4.2986,-4.2986,-4.3237,-4.379,-4.379,-4.4367,-4.5447,-4.5472,-4.5773,-4.6276,-4.6301,-4.6301,-4.6301,-4.6301,-4.6301,-4.6376,-4.6928,-4.7431,-4.7958,-4.856,-4.9113,-4.9565,-4.959,-4.959,-4.959,-4.959,-4.959,-4.959,-4.959,-4.959,-4.959,-4.959,-5.0419,-5.1297,-5.1322,-5.2126,-5.2929,-5.2929,-5.2929,-5.2929,-5.2929,-5.2929,-5.2929,-5.2929,-5.2929,-5.2929,-5.2929,-5.2929,-5.2929,-5.2904,-5.2904,-5.2904,-5.2904,-5.2904,-5.2904,-5.2929,-5.2929,-5.2929,-5.2929,-5.2929,-5.2929,-5.2929,-5.2929,-5.2929,-5.2929,-5.2929,-5.2929,-5.2929,-5.2929,-5.2929,-5.2929,-5.2929,-5.2929,-5.2929,-5.2929,-5.2929,-1.9264,0.0,0.0,0.0,0.0,0.0,-2.6691,-2.5107,-2.6458,-3.3691,-3.3273,-3.2518,-3.5487,-3.6505,-3.6985,-3.7563,-3.8467,-3.9094,-3.9094,-3.9446,-3.9697,-3.9697,-3.9697,-3.9697,-3.9697,-3.9823,-3.9923,-3.9923,-4.0425,-4.0802,-4.0953,-4.1785,-4.2288,-4.2439,-4.2816,-4.2986,-4.2986,-4.2986,-4.3062,-4.3212,-4.3614,-4.3966,-4.4292,-4.5121,-4.5573,-4.5723,-4.6125,-4.6301,-4.6301,-4.6301,-4.6301,-4.6376,-4.6928,-4.723,-4.7456,-4.841,-4.8862,-4.9063,-4.9464,-4.959,-4.959,-4.959,-4.959,-4.959,-4.959,-4.959,-4.959,-4.959,-5.0419,-5.1473,-5.2277,-5.2703,-5.2929,-5.2929,-5.2929,-5.2929,-5.2929,-5.2929,-5.2929,-5.2929,-5.2929,-5.2929,-5.2929,-5.2929,-5.2804,-5.2402,-5.2327,-5.2327,-5.2327,-5.2327,-5.2477,-5.2879,-5.2929,-5.2929,-5.2929,-5.2929,-5.2929,-5.2929,-5.2929,-5.2929,-5.2929,-5.2929,-5.2929,-5.2929,-5.2929,-5.2929,-5.2929,-5.2929,-5.2929,-5.2929,-5.2929,-5.2929,-1.8561,-2.0707,-2.2258,-1.876,0.0,0.0,-2.5936,-2.4902,-2.5889,-3.2654,-3.2248,-3.1631,-3.4615,-3.5278,-3.5579,-3.6383,-3.7262,-3.799,-3.8442,-3.8793,-3.9069,-3.932,-3.9346,-3.9446,-3.9672,-3.9697,-3.9697,-3.9697,-3.9998,-4.0275,-4.0501,-4.1329,-4.1907,-4.2213,-4.2514,-4.2735,-4.2986,-4.2986,-4.2986,-4.2986,-4.3313,-4.3589,-4.3815,-4.4493,-4.5045,-4.5497,-4.5824,-4.61,-4.6301,-4.6301,-4.6301,-4.6351,-4.6652,-4.6928,-4.723,-4.8109,-4.856,-4.8862,-4.9414,-4.959,-4.959,-4.959,-4.959,-4.959,-4.959,-4.959,-4.959,-4.959,-5.0419,-5.1473,-5.2352,-5.2754,-5.2929,-5.2929,-5.2929,-5.2929,-5.2929,-5.2929,-5.2929,-5.2929,-5.2929,-5.2929,-5.2929,-5.2929,-5.2829,-5.2503,-5.2452,-5.2452,-5.2452,-5.2452,-5.2653,-5.3206,-5.3256,-5.3356,-5.3582,-5.3607,-5.3607,-5.3607,-5.3607,-5.3607,-5.3607,-5.3381,-5.3256,-5.3256,-5.303,-5.2929,-5.2929,-5.2929,-5.2929,-5.2929,-5.2929,-5.2929,-1.6562,-1.9919,-2.2939,-2.0717,-1.8509,0.0,-2.6886,-2.9066,-2.9971,-3.1863,-3.1714,-3.1801,-3.3784,-3.3822,-3.3872,-3.4881,-3.573,-3.6609,-3.7764,-3.7965,-3.8191,-3.8718,-3.8768,-3.8969,-3.9446,-3.9572,-3.9597,-3.9597,-3.9672,-3.9898,-4.04,-4.0953,-4.148,-4.2011,-4.2137,-4.2439,-4.2942,-4.2936,-4.2986,-4.2986,-4.2986,-4.3237,-4.3714,-4.3765,-4.4392,-4.5397,-4.5472,-4.5799,-4.6301,-4.6301,-4.6301,-4.6301,-4.6301,-4.6602,-4.7043,-4.7682,-4.8234,-4.8761,-4.9389,-4.959,-4.959,-4.959,-4.959,-4.959,-4.959,-4.959,-4.9615,-4.9665,-5.0419,-5.1322,-5.195,-5.2477,-5.2854,-5.2904,-5.2929,-5.2929,-5.2929,-5.2929,-5.2929,-5.2929,-5.2929,-5.2929,-5.2929,-5.2929,-5.2929,-5.2929,-5.2879,-5.2854,-5.2929,-5.2879,-5.3055,-5.3632,-5.3708,-5.3934,-5.4511,-5.4561,-5.4561,-5.4561,-5.4561,-5.4536,-5.4461,-5.3984,-5.3683,-5.3607,-5.3155,-5.2929,-5.2929,-5.2929,-5.2929,-5.2929,-5.2929,-5.2929,-1.6955,-2.1075,-2.5301,-2.3013,-2.08,0.0,-2.1361,-2.4548,-2.7093,-2.6934,-2.6533,-2.7137,-3.0167,-3.1035,-3.1461,-3.2089,-3.3796,-3.5579,-3.7136,-3.7739,-3.804,-3.8165,-3.8191,-3.8216,-3.8316,-3.8768,-3.9044,-3.9044,-3.9446,-3.9747,-3.9848,-4.0375,-4.0727,-4.0827,-4.1706,-4.2263,-4.2363,-4.276,-4.2986,-4.2986,-4.2986,-4.3037,-4.3162,-4.3589,-4.4166,-4.4819,-4.5296,-4.5799,-4.6301,-4.6301,-4.6301,-4.6301,-4.6301,-4.6376,-4.6577,-4.7556,-4.7983,-4.8234,-4.9238,-4.959,-4.959,-4.959,-4.959,-4.959,-4.959,-4.959,-4.969,-5.0117,-5.0419,-5.082,-5.185,-5.2176,-5.2377,-5.2829,-5.2929,-5.2929,-5.2929,-5.2929,-5.2929,-5.2929,-5.2929,-5.2929,-5.2929,-5.2929,-5.2929,-5.2929,-5.2553,-5.2427,-5.2879,-5.2528,-5.2628,-5.3607,-5.3708,-5.3934,-5.4511,-5.4561,-5.4561,-5.4561,-5.4561,-5.4361,-5.3884,-5.3758,-5.3507,-5.308,-5.298,-5.2929,-5.2929,-5.2929,-5.2929,-5.2929,-5.2929,-5.2929,-2.1769,-2.3947,-2.6496,-2.6436,-2.3913,0.0,0.0,-2.4291,-2.5731,-2.6892,-2.5904,-2.5728,-2.88,-2.8925,-2.9001,-3.0382,-3.1989,-3.3545,-3.4951,-3.6081,-3.6885,-3.7161,-3.7186,-3.7312,-3.7563,-3.8115,-3.8567,-3.8894,-3.912,-3.9396,-3.9672,-3.9948,-4.0224,-4.0501,-4.1304,-4.1882,-4.2213,-4.2766,-4.2986,-4.2986,-4.2986,-4.2986,-4.2986,-4.3263,-4.3689,-4.4242,-4.4819,-4.5372,-4.5924,-4.62,-4.6301,-4.6301,-4.6301,-4.6301,-4.6401,-4.723,-4.7682,-4.8033,-4.8887,-4.9364,-4.959,-4.959,-4.959,-4.959,-4.959,-4.959,-4.9665,-4.9941,-5.0193,-5.0619,-5.1473,-5.19,-5.2251,-5.2804,-5.2929,-5.2929,-5.2929,-5.2929,-5.2929,-5.2929,-5.2929,-5.2929,-5.2929,-5.2929,-5.2929,-5.2929,-5.2678,-5.2628,-5.2904,-5.2678,-5.2829,-5.3607,-5.3959,-5.4361,-5.4938,-5.5239,-5.539,-5.539,-5.539,-5.5265,-5.4963,-5.4411,-5.3758,-5.2955,-5.2929,-5.2929,-5.2929,-5.2929,-5.2929,-5.2929,-5.2929,-5.2929,-2.6501,-2.6491,-2.6948,-2.8732,-2.6121,-2.3579,0.0,0.0,0.0,-2.7138,-2.5929,-2.5176,-2.7509,-2.6892,-2.665,-2.8524,-2.9905,-3.1085,-3.1989,-3.3445,-3.4801,-3.5827,-3.6107,-3.6408,-3.6835,-3.7186,-3.7739,-3.8642,-3.8417,-3.8617,-3.9496,-3.9546,-3.9798,-4.035,-4.0902,-4.1455,-4.2037,-4.2534,-4.2861,-4.2986,-4.2986,-4.2986,-4.2986,-4.2986,-4.3288,-4.384,-4.4392,-4.4945,-4.5522,-4.6075,-4.6301,-4.6301,-4.6301,-4.6301,-4.6376,-4.6928,-4.7456,-4.7983,-4.856,-4.9138,-4.959,-4.959,-4.959,-4.959,-4.959,-4.959,-4.959,-4.959,-4.9916,-5.0419,-5.1096,-5.1599,-5.2126,-5.2779,-5.2929,-5.2929,-5.2929,-5.2929,-5.2929,-5.2929,-5.2929,-5.2929,-5.2929,-5.2929,-5.2929,-5.2929,-5.2929,-5.2929,-5.2929,-5.2929,-5.313,-5.3658,-5.421,-5.4787,-5.534,-5.5892,-5.6219,-5.6219,-5.6219,-5.6168,-5.6068,-5.4988,-5.3934,-5.2955,-5.2929,-5.2929,-5.2929,-5.2929,-5.2929,-5.2929,-5.2929,-5.2929,-2.6518,-2.6502,-2.655,-2.6812,-2.4957,-2.3163,-2.3424,0.0,-2.3203,-2.308,0.0,-2.3547,-2.4406,0.0,0.0,-2.5259,-2.7118,-2.8524,-2.8649,-2.9704,-3.1386,-3.3897,-3.5006,-3.5633,-3.5683,-3.5307,-3.5931,-3.7939,-3.6759,-3.681,-3.8868,-3.902,-3.922,-3.9772,-4.0325,-4.0877,-4.1376,-4.1982,-4.2539,-4.2986,-4.2986,-4.2986,-4.2986,-4.2986,-4.3288,-4.384,-4.4392,-4.4945,-4.5522,-4.6075,-4.6301,-4.6301,-4.6301,-4.6301,-4.6376,-4.6928,-4.7456,-4.7983,-4.856,-4.9138,-4.959,-4.959,-4.959,-4.959,-4.959,-4.959,-4.959,-4.959,-4.964,-4.9941,-5.0996,-5.1322,-5.1649,-5.2678,-5.2929,-5.2929,-5.2929,-5.2929,-5.2929,-5.2929,-5.2929,-5.2929,-5.2929,-5.2929,-5.2929,-5.2929,-5.2929,-5.2929,-5.2929,-5.2929,-5.313,-5.3658,-5.421,-5.4787,-5.534,-5.5892,-5.6219,-5.6219,-5.6219,-5.5993,-5.5491,-5.4411,-5.3532,-5.2929,-5.2929,-5.2929,-5.2929,-5.2929,-5.2929,-5.2929,-5.2929,-5.2929,-2.841,-2.8425,-2.8698,-3.0022,-2.6696,-2.3092,-2.3081,-2.2842,-2.2837,-2.3616,0.0,0.0,0.0,0.0,0.0,0.0,-2.5126,-2.6214,-2.6214,-2.7419,-2.9252,-3.1712,-3.1797,-3.2173,-3.3452,-3.3721,-3.455,-3.6386,-3.5583,-3.6031,-3.8241,-3.8693,-3.912,-3.9672,-4.0224,-4.0626,-4.0799,-4.1731,-4.2313,-4.2564,-4.2866,-4.2986,-4.2986,-4.2986,-4.3112,-4.3363,-4.3915,-4.4468,-4.502,-4.5598,-4.6024,-4.6301,-4.6301,-4.6301,-4.6326,-4.6577,-4.7004,-4.7531,-4.8083,-4.8636,-4.9163,-4.949,-4.959,-4.959,-4.959,-4.959,-4.959,-4.959,-4.959,-4.9866,-5.0996,-5.1272,-5.1548,-5.2653,-5.2929,-5.2929,-5.2929,-5.2929,-5.2929,-5.2929,-5.2929,-5.2929,-5.2929,-5.2929,-5.2929,-5.2929,-5.2929,-5.2929,-5.2929,-5.2929,-5.313,-5.3658,-5.421,-5.4787,-5.534,-5.5892,-5.6219,-5.6219,-5.6219,-5.5817,-5.4938,-5.4461,-5.3808,-5.2955,-5.2929,-5.2929,-5.2929,-5.2929,-5.2929,-5.2929,-5.2929,-5.2929,-2.9796,-2.9793,-2.9882,-3.026,-2.6689,-2.3109,-2.3111,-2.3158,-2.3527,-2.4575,-2.3904,0.0,0.0,0.0,-2.2774,-2.3271,0.0,-2.4499,-2.4349,-2.5259,-2.6816,-2.9202,-2.9428,-3.0206,-3.2265,-3.229,-3.2993,-3.4906,-3.4129,-3.4751,-3.7412,-3.809,-3.8793,-3.9446,-3.9998,-4.035,-4.0526,-4.1455,-4.2062,-4.2213,-4.271,-4.2986,-4.2986,-4.2986,-4.2986,-4.3011,-4.3564,-4.4116,-4.4669,-4.5246,-4.5824,-4.6301,-4.6301,-4.6301,-4.6301,-4.6301,-4.6652,-4.7143,-4.7732,-4.8385,-4.9063,-4.9464,-4.959,-4.959,-4.959,-4.959,-4.959,-4.959,-4.959,-4.9866,-5.0996,-5.1272,-5.1548,-5.2653,-5.2929,-5.2929,-5.2929,-5.2929,-5.2929,-5.2929,-5.2929,-5.2929,-5.2929,-5.2929,-5.2929,-5.2929,-5.2929,-5.2929,-5.2929,-5.2929,-5.313,-5.3658,-5.421,-5.4787,-5.534,-5.5892,-5.6219,-5.6219,-5.6219,-5.5792,-5.4838,-5.4637,-5.411,-5.3155,-5.3005,-5.2929,-5.2929,-5.2929,-5.2929,-5.2929,-5.2929,-5.2929,-2.9803,-2.9794,-2.8762,-2.4474,-2.3241,-2.3098,-2.3096,-2.4349,-2.536,-2.4876,-2.6038,-2.6977,-2.6499,-2.5921,-2.5134,-2.413,-2.4004,0.0,0.0,-2.2744,-2.3502,-2.6298,-2.895,-3.121,-3.2893,-3.1135,-3.1035,-3.3746,-3.1964,-3.2416,-3.6254,-3.6935,-3.7739,-3.8919,-3.9421,-3.9973,-4.0501,-4.1025,-4.163,-4.2213,-4.271,-4.2986,-4.2986,-4.2986,-4.2986,-4.3011,-4.3564,-4.4116,-4.4669,-4.5246,-4.5824,-4.6301,-4.6301,-4.6301,-4.6301,-4.6301,-4.6652,-4.7143,-4.7732,-4.8636,-4.9565,-4.959,-4.959,-4.959,-4.959,-4.959,-4.959,-4.959,-4.959,-4.9866,-5.0996,-5.1272,-5.1548,-5.2653,-5.2929,-5.2929,-5.2929,-5.2929,-5.2929,-5.2929,-5.2929,-5.2929,-5.2929,-5.2929,-5.2929,-5.2929,-5.2929,-5.2929,-5.2929,-5.2929,-5.313,-5.3658,-5.421,-5.4787,-5.534,-5.5892,-5.6219,-5.6219,-5.6219,-5.5968,-5.539,-5.4838,-5.4285,-5.3683,-5.3181,-5.2929,-5.2929,-5.2929,-5.2929,-5.2929,-5.2929,-5.2929,-3.2374,-3.1963,-3.1284,-2.8285,-2.5292,-2.3363,-2.4377,-2.5466,-2.5946,-2.4976,-2.6414,-2.7544,-2.6675,-2.6021,-2.536,-2.4657,-2.423,-2.3427,0.0,-2.0715,-2.1139,-2.3929,-2.6716,-2.8323,-2.8147,-2.9151,-3.0181,-3.111,-3.116,-3.234,-3.5127,-3.6132,-3.7385,-3.8869,-3.9095,-3.9421,-3.9973,-4.0824,-4.1376,-4.163,-4.2534,-4.2986,-4.2986,-4.2986,-4.2986,-4.2986,-4.3162,-4.379,-4.4644,-4.4844,-4.5472,-4.6301,-4.6301,-4.6301,-4.6301,-4.6301,-4.6426,-4.6728,-4.7606,-4.8661,-4.959,-4.959,-4.959,-4.959,-4.959,-4.959,-4.959,-4.959,-4.959,-4.9766,-5.0519,-5.0996,-5.1473,-5.2201,-5.2653,-5.2929,-5.2929,-5.2929,-5.2929,-5.2929,-5.2929,-5.2929,-5.2929,-5.2929,-5.2929,-5.2929,-5.2929,-5.2929,-5.2929,-5.2929,-5.3281,-5.4185,-5.4436,-5.4938,-5.5867,-5.6118,-5.6219,-5.6219,-5.6219,-5.5968,-5.5415,-5.5214,-5.4662,-5.3708,-5.3532,-5.3281,-5.2929,-5.2929,-5.2929,-5.2929,-5.2929,-5.2929,-3.4477,-3.4294,-3.3916,-3.2485,-2.9386,-2.6588,-2.6427,-2.7198,-2.7695,-2.6766,-2.7871,-2.895,-2.8862,-2.7695,-2.654,-2.5812,-2.4908,-2.3376,0.0,-2.0087,-2.0489,-2.2071,-2.4356,-2.5988,-2.644,-2.7243,-2.8398,-2.9955,-2.9804,-3.0959,-3.3972,-3.5177,-3.6533,-3.8216,-3.8718,-3.9145,-3.9697,-4.0724,-4.1275,-4.13,-4.2459,-4.2986,-4.2986,-4.2986,-4.2986,-4.2986,-4.2986,-4.3489,-4.4342,-4.4543,-4.5171,-4.6024,-4.6225,-4.6301,-4.6301,-4.6301,-4.6426,-4.6728,-4.7606,-4.851,-4.9339,-4.954,-4.959,-4.959,-4.959,-4.959,-4.959,-4.959,-4.959,-4.9715,-5.0268,-5.0845,-5.1423,-5.1975,-5.2528,-5.2929,-5.2929,-5.2929,-5.2929,-5.2929,-5.2929,-5.2929,-5.2929,-5.2929,-5.2929,-5.2929,-5.2929,-5.2929,-5.2929,-5.308,-5.3557,-5.4461,-5.4737,-5.5214,-5.6143,-5.6219,-5.6219,-5.6219,-5.6219,-5.6043,-5.5691,-5.5491,-5.5039,-5.431,-5.3909,-5.3532,-5.3206,-5.3005,-5.2929,-5.2929,-5.2929,-5.2929]}]]